[[[{"header":{"parameterUnit":"kt","parameterCategory":2,"dx":1,"dy":1,"la1":29.285339999999998,"la2":30.599998999999997,"lo1":-89.70041500000002,"lo2":-87.6738589999976,"nx":112,"ny":82,"refTime":"2022-09-19T18:00:00:Z","depth":0,"parameterNumber":1,"parameterNumberName":"U-component_of_WINDS"},"data":[-1.4459,-1.2893,-1.1583,-1.1468,-1.0654,-0.9679,-0.8909,-0.7562,-0.6138,-0.4782,-0.3053,-0.155,-0.061,0.0495,0.1635,0.288,0.3863,0.5164,0.0,0.9421,1.1338,1.2471,1.3442,1.4077,1.4349,1.4348,1.4393,1.4586,1.4459,1.4421,1.454,1.4548,1.4548,1.4548,1.4548,1.4548,1.4548,1.4548,1.4548,1.4548,1.4548,1.4548,1.4548,1.4548,1.4548,1.4548,1.4548,1.4548,1.4548,1.4548,1.4548,1.4548,1.4548,1.4548,1.4548,1.4548,1.4548,1.4316,1.2655,1.2055,1.1605,0.9038,0.8206,0.7904,0.624,0.5788,0.5636,0.503,0.4881,0.4881,0.4881,0.4881,0.4881,0.4881,0.465,0.4498,0.4498,0.4195,0.3816,0.3361,0.3208,0.2979,0.2596,0.252,0.252,0.252,0.252,0.252,0.252,0.252,0.252,0.252,0.252,0.252,0.252,0.2498,0.2557,0.2534,0.2671,0.2728,0.2699,0.2703,0.2703,0.2703,0.2703,0.2703,0.2703,0.2353,0.1831,0.1395,0.0958,0.0523,-1.3188,-1.1866,-1.0853,-1.0596,-0.9743,-0.859,-0.7234,-0.5826,-0.4488,-0.3333,-0.1436,0.0109,0.0436,0.1431,0.2494,0.343,0.4745,0.6181,0.0,0.9801,1.171,1.3119,1.3806,1.4354,1.4748,1.4683,1.466,1.4791,1.4643,1.4548,1.4548,1.4548,1.4548,1.4548,1.4548,1.4548,1.4548,1.4548,1.4548,1.4548,1.4548,1.4548,1.4548,1.4548,1.4548,1.4548,1.4548,1.4548,1.4548,1.4548,1.4548,1.4548,1.4548,1.4548,1.4548,1.4548,1.4241,1.3561,1.2431,1.1373,1.0013,0.7374,0.654,0.6313,0.5183,0.4881,0.4881,0.4881,0.4881,0.4802,0.4726,0.4726,0.4802,0.4726,0.4498,0.4269,0.4269,0.3891,0.3437,0.3132,0.2979,0.2826,0.2596,0.252,0.252,0.252,0.252,0.252,0.252,0.252,0.252,0.252,0.252,0.252,0.252,0.2558,0.2527,0.2506,0.2643,0.2699,0.2757,0.2692,0.2703,0.2703,0.2703,0.2703,0.2703,0.2353,0.1831,0.1395,0.0958,0.0523,-1.2502,-1.1631,-1.0661,-1.0017,-0.8923,-0.7433,-0.4995,-0.3737,-0.2548,-0.0715,0.0273,0.1093,0.1969,0.2303,0.2867,0.4294,0.5569,0.0,0.0,0.9959,1.1398,1.3188,1.411,1.4697,1.5134,1.4826,1.4702,1.5144,1.478,1.4548,1.4548,1.4548,1.4548,1.4548,1.4548,1.4548,1.4548,1.4548,1.4548,1.4548,1.4548,1.4548,1.4548,1.4548,1.4548,1.4548,1.4548,1.4548,1.4548,1.4548,1.4548,1.4548,1.4548,1.4548,1.4548,1.454,1.3486,1.2055,1.198,0.9938,0.7143,0.5411,0.4881,0.4881,0.4881,0.4881,0.4881,0.4881,0.4881,0.4802,0.4422,0.4574,0.4726,0.4345,0.4267,0.4267,0.4267,0.3662,0.3055,0.3055,0.275,0.252,0.252,0.252,0.252,0.252,0.252,0.252,0.252,0.252,0.252,0.252,0.252,0.252,0.252,0.252,0.2546,0.2525,0.2506,0.2562,0.2699,0.2759,0.2703,0.2703,0.2703,0.2703,0.2703,0.2353,0.1831,0.1395,0.0958,0.0523,-1.1332,-1.0017,-0.8602,-0.8408,-0.7195,-0.5502,-0.3546,-0.2517,-0.1452,0.0352,0.1459,0.0,0.0,0.0,0.3905,0.5259,0.0,0.7398,0.9481,1.0692,1.1977,1.3641,1.4005,1.4339,1.4713,1.4621,1.4593,1.4697,1.4622,1.4548,1.4548,1.4548,1.4548,1.4548,1.4548,1.4548,1.4548,1.4548,1.4548,1.4548,1.4548,1.4548,1.4548,1.4548,1.4548,1.4548,1.4548,1.4548,1.4548,1.4548,1.4548,1.4548,1.4548,1.4548,1.4391,1.3187,1.2431,1.1905,1.0777,0.9038,0.7143,0.5411,0.4881,0.4881,0.4881,0.4881,0.4881,0.4881,0.4881,0.4802,0.4726,0.4574,0.4422,0.4269,0.3814,0.3435,0.3435,0.3054,0.2674,0.2674,0.2596,0.252,0.252,0.252,0.252,0.252,0.252,0.252,0.252,0.252,0.252,0.252,0.252,0.252,0.252,0.252,0.2528,0.2544,0.2564,0.2562,0.2699,0.2759,0.2703,0.2703,0.2703,0.2703,0.2703,0.2353,0.1831,0.1395,0.0958,0.0523,-1.0204,-0.885,-0.7301,-0.6972,-0.5301,-0.3319,-0.1947,-0.0681,0.0489,0.1501,0.0,0.0,0.0,0.0,0.0,0.0,0.7139,0.8545,1.0442,1.1838,1.2956,1.3912,1.4008,1.4145,1.4573,1.4577,1.4548,1.4548,1.4548,1.4548,1.4548,1.4548,1.4548,1.4548,1.4548,1.4548,1.4548,1.4548,1.4548,1.4548,1.4548,1.4548,1.4548,1.4548,1.4548,1.4548,1.4548,1.4548,1.4548,1.4548,1.4548,1.4548,1.4548,1.4167,1.3411,1.2431,1.1223,0.9938,0.9038,0.7677,0.6164,0.5183,0.4881,0.4881,0.4881,0.4881,0.4881,0.4881,0.4726,0.465,0.465,0.4348,0.4043,0.4043,0.3588,0.3132,0.3132,0.2826,0.252,0.252,0.252,0.252,0.252,0.252,0.252,0.252,0.252,0.252,0.252,0.252,0.252,0.252,0.252,0.252,0.252,0.252,0.252,0.252,0.2508,0.2572,0.2629,0.271,0.2679,0.2702,0.2703,0.2703,0.2703,0.2353,0.1831,0.1395,0.1133,0.0698,-0.9038,-0.7875,-0.6384,-0.5533,-0.3389,-0.132,-0.0377,0.0,0.2542,0.2672,0.0,0.42,0.4214,0.0,0.0,0.6877,0.8514,1.0087,1.1519,1.3081,1.4087,1.4066,1.4033,1.4224,1.4516,1.4548,1.4548,1.4548,1.4548,1.4548,1.4548,1.4548,1.4548,1.4548,1.4548,1.4548,1.4548,1.4548,1.4548,1.4548,1.4548,1.4548,1.4548,1.4548,1.4548,1.4548,1.4548,1.4548,1.4548,1.4548,1.4548,1.4548,1.4398,1.3262,1.1755,1.1605,0.9787,0.737,0.7147,0.6088,0.4881,0.4881,0.4881,0.4881,0.4881,0.4881,0.4881,0.4881,0.4574,0.4269,0.4269,0.3969,0.3592,0.3592,0.3361,0.3055,0.3055,0.275,0.252,0.252,0.252,0.252,0.252,0.252,0.252,0.252,0.252,0.252,0.252,0.252,0.252,0.252,0.252,0.252,0.252,0.252,0.252,0.252,0.252,0.2547,0.2529,0.2635,0.2723,0.2702,0.2703,0.2703,0.2703,0.2353,0.1918,0.1395,0.1308,0.0872,-0.7426,-0.6453,-0.5153,-0.3525,-0.234,-0.1101,0.0,0.0,0.0,0.3775,0.5182,0.628,0.6356,0.743,0.8835,1.0271,1.081,1.1561,1.3013,1.3923,1.4448,1.4445,1.4453,1.4477,1.454,1.4548,1.4548,1.4548,1.4548,1.4548,1.4548,1.4548,1.4548,1.4548,1.4548,1.4548,1.4548,1.4548,1.4548,1.4548,1.4548,1.4548,1.4548,1.4548,1.4548,1.4548,1.4548,1.4548,1.4548,1.4548,1.4548,1.4465,1.3037,1.1605,1.0024,0.8731,0.7899,0.7222,0.5785,0.5107,0.4881,0.4881,0.4881,0.4881,0.4881,0.4881,0.4881,0.4881,0.4574,0.4269,0.4269,0.3738,0.3208,0.3208,0.2903,0.2674,0.2674,0.2596,0.252,0.252,0.252,0.252,0.252,0.252,0.252,0.252,0.252,0.252,0.252,0.252,0.252,0.252,0.252,0.252,0.252,0.252,0.252,0.252,0.252,0.2547,0.2529,0.2518,0.2601,0.2701,0.2703,0.2703,0.2703,0.2615,0.2179,0.1395,0.1046,0.0611,-0.6132,-0.4763,-0.3199,-0.2287,-0.0726,0.0,0.0,0.2832,0.3897,0.5332,0.631,0.7164,0.8024,0.8815,0.9835,1.1465,1.1775,1.2328,1.3859,1.44,1.4548,1.4548,1.4548,1.4548,1.4548,1.4548,1.4548,1.4548,1.4548,1.4548,1.4548,1.4548,1.4548,1.4548,1.4548,1.4548,1.4548,1.4548,1.4548,1.4548,1.4548,1.4548,1.4548,1.4548,1.4548,1.4548,1.4548,1.4548,1.4548,1.4548,1.4092,1.3187,1.153,0.9943,0.8433,0.7672,0.6843,0.6013,0.5183,0.4881,0.4881,0.4881,0.4881,0.4881,0.4881,0.4881,0.4881,0.4881,0.4424,0.4043,0.4193,0.3586,0.2903,0.3055,0.2826,0.252,0.252,0.252,0.252,0.252,0.252,0.252,0.252,0.252,0.252,0.252,0.252,0.252,0.252,0.252,0.252,0.252,0.252,0.252,0.252,0.252,0.252,0.252,0.252,0.2533,0.2565,0.2545,0.2535,0.2619,0.2675,0.2703,0.2703,0.2528,0.2092,0.1395,0.0958,0.0523,-0.4635,-0.308,-0.1383,-0.0856,0.1009,0.0,0.302,0.3771,0.497,0.6692,0.7259,0.7977,0.9578,1.0151,1.0863,1.2329,1.2509,1.304,1.4359,1.4548,1.4548,1.4548,1.4548,1.4548,1.4548,1.4548,1.4548,1.4548,1.4548,1.4548,1.4548,1.4548,1.4548,1.4548,1.4548,1.4548,1.4548,1.4548,1.4548,1.4548,1.4548,1.4548,1.4548,1.4548,1.4548,1.4548,1.4548,1.4548,1.4548,1.4241,1.2962,1.0997,0.9722,0.8282,0.6919,0.6919,0.6013,0.4881,0.4881,0.4881,0.4881,0.4881,0.4881,0.4881,0.4881,0.4881,0.4881,0.4881,0.4274,0.3742,0.4043,0.3357,0.2596,0.2903,0.275,0.252,0.252,0.252,0.252,0.252,0.252,0.252,0.252,0.252,0.252,0.252,0.252,0.252,0.252,0.252,0.252,0.252,0.252,0.252,0.252,0.252,0.252,0.252,0.252,0.252,0.252,0.25,0.2555,0.2521,0.263,0.2692,0.2703,0.2441,0.1918,0.1395,0.1046,0.0611,-0.2546,-0.1663,-0.0813,0.1627,0.256,0.0,0.4095,0.4387,0.4993,0.6771,0.8253,0.9759,1.1466,1.3005,1.4067,1.4254,1.4261,1.4351,1.454,1.4548,1.4548,1.4548,1.4548,1.4548,1.4548,1.4548,1.4548,1.4548,1.4548,1.4548,1.4548,1.4548,1.4548,1.4548,1.4548,1.4548,1.4548,1.4548,1.4548,1.4548,1.4548,1.4548,1.4548,1.4548,1.4548,1.4548,1.4548,1.4548,1.4473,1.2962,1.0615,0.7899,0.7748,0.662,0.5107,0.5107,0.503,0.4881,0.4881,0.4881,0.4881,0.4881,0.4881,0.4881,0.4881,0.4881,0.4881,0.4881,0.4274,0.3668,0.3742,0.3132,0.252,0.2596,0.252,0.252,0.252,0.252,0.252,0.252,0.252,0.252,0.252,0.252,0.252,0.252,0.252,0.252,0.252,0.252,0.252,0.252,0.252,0.252,0.252,0.252,0.252,0.252,0.252,0.252,0.252,0.25,0.2535,0.2541,0.2654,0.2737,0.2703,0.2703,0.2179,0.1395,0.1308,0.0872,-0.1732,-0.027,0.1298,0.25,0.0,0.0,0.449,0.5415,0.6665,0.83,0.9871,1.154,1.324,1.4092,1.4548,1.4548,1.4548,1.4548,1.4548,1.4548,1.4548,1.4548,1.4548,1.4548,1.4548,1.4548,1.4548,1.4548,1.4548,1.4548,1.4548,1.4548,1.4548,1.4548,1.4548,1.4548,1.4548,1.4548,1.4548,1.4548,1.4548,1.4548,1.4548,1.4548,1.4548,1.4548,1.4548,1.4017,1.2887,1.039,0.858,0.7294,0.6316,0.5484,0.4881,0.4881,0.4881,0.4881,0.4881,0.4881,0.4881,0.4881,0.4881,0.4881,0.4881,0.4881,0.4881,0.4881,0.4652,0.4274,0.3819,0.3132,0.252,0.252,0.252,0.252,0.252,0.252,0.252,0.252,0.252,0.252,0.252,0.252,0.252,0.252,0.252,0.252,0.252,0.252,0.252,0.252,0.252,0.252,0.252,0.252,0.252,0.252,0.252,0.252,0.252,0.2544,0.2496,0.2531,0.2613,0.2682,0.2739,0.2739,0.1721,-0.0261,-0.1915,-0.2962,-0.054,0.0,0.0,0.0,0.0,0.0,0.4751,0.5712,0.7147,0.874,0.9943,1.1298,1.2962,1.3561,1.3718,1.3337,1.3262,1.3262,1.3262,1.3262,1.3262,1.3262,1.3262,1.3262,1.3262,1.3262,1.3262,1.3262,1.3262,1.3262,1.3262,1.3643,1.4092,1.4548,1.4548,1.4548,1.4548,1.4548,1.4548,1.4548,1.4548,1.4316,1.3868,1.3868,1.3643,1.3262,1.3262,1.2281,1.0615,0.8353,0.7143,0.654,0.5332,0.4881,0.4881,0.4881,0.4881,0.4881,0.4881,0.4881,0.4881,0.4881,0.4881,0.4881,0.4881,0.4881,0.4881,0.4881,0.4881,0.4652,0.3895,0.3132,0.252,0.252,0.252,0.252,0.252,0.252,0.252,0.252,0.252,0.2367,0.1908,0.1831,0.1678,0.122,0.1526,0.1678,0.122,0.1984,0.2367,0.1907,0.2214,0.252,0.252,0.252,0.252,0.252,0.252,0.252,0.252,0.252,0.2541,0.2507,0.2566,0.2542,0.2679,0.2189,0.0938,-0.1044,-0.3742,-0.5224,0.0,0.0,0.0,0.4305,0.4714,0.4873,0.4873,0.4878,0.5411,0.7143,0.7521,0.7975,0.9571,1.1079,1.1605,1.0105,0.9878,0.9878,0.9878,0.9878,0.9878,0.9878,0.9878,0.9878,0.9878,0.9878,0.9878,0.9878,0.9878,0.9878,0.9878,1.1304,1.288,1.454,1.4548,1.4548,1.4548,1.4548,1.4548,1.4548,1.4548,1.3718,1.213,1.213,1.1304,0.9878,0.9878,0.8967,0.7521,0.7445,0.6392,0.4954,0.4881,0.4881,0.4881,0.4881,0.4881,0.4881,0.4881,0.4881,0.4881,0.4881,0.4881,0.4881,0.4881,0.4881,0.4881,0.4881,0.4881,0.4652,0.3895,0.3132,0.252,0.252,0.252,0.252,0.252,0.252,0.252,0.252,0.252,0.1984,0.0381,0.0076,-0.0457,-0.2132,-0.099,-0.0533,-0.2132,0.0457,0.1908,0.0228,0.1526,0.252,0.252,0.252,0.252,0.252,0.252,0.252,0.252,0.252,0.2521,0.2522,0.2504,0.2564,0.254,0.0919,0.0,-0.0087,-0.2437,-0.4003,0.1319,0.2848,0.4164,0.4641,0.4849,0.4881,0.4881,0.5712,0.6692,0.7294,0.8206,0.9118,0.9647,0.9264,0.8806,0.8282,0.9043,0.9727,0.9727,0.9727,0.9727,0.9727,0.9727,0.9727,0.9727,0.9727,0.9727,0.9727,0.9727,0.9727,0.9727,1.025,1.0777,1.1304,1.1386,1.183,1.288,1.183,1.1905,1.288,1.183,1.1079,1.0476,1.0476,1.0175,0.9727,0.9727,0.8211,0.5712,0.5712,0.5408,0.4881,0.4881,0.4881,0.4881,0.4881,0.4881,0.4881,0.4881,0.4881,0.4881,0.4881,0.4881,0.4881,0.4881,0.4881,0.4881,0.4881,0.4881,0.4652,0.3895,0.3515,0.3208,0.2674,0.1678,0.1144,0.2291,0.0763,-0.0838,-0.0838,-0.0838,-0.0991,-0.1599,-0.1675,-0.1904,-0.2437,-0.2056,-0.1904,-0.2437,-0.0533,0.0609,0.0076,0.1526,0.252,0.252,0.252,0.2061,0.0914,0.1908,0.1984,0.0914,0.1908,0.252,0.252,0.2502,0.1428,-0.0719,-0.1389,-0.2504,-0.4008,-0.5271,-0.6782,0.0853,0.2613,0.4292,0.44,0.4576,0.465,0.465,0.5633,0.6464,0.6464,0.7302,0.7984,0.7984,0.715,0.6464,0.6464,0.7302,0.7984,0.7984,0.7984,0.7984,0.7984,0.7984,0.7984,0.7984,0.7984,0.7984,0.7984,0.7984,0.7984,0.7984,0.8589,0.8891,0.8891,0.942,1.0175,1.1229,1.025,1.025,1.1229,1.0175,0.942,0.8891,0.8891,0.8589,0.7984,0.7984,0.6775,0.4881,0.4881,0.4881,0.4881,0.4881,0.4881,0.4881,0.4881,0.4881,0.4881,0.4881,0.4881,0.4881,0.4881,0.4881,0.4881,0.4881,0.4881,0.4881,0.4881,0.4726,0.4345,0.3127,0.2671,0.2288,0.0991,-0.0076,-0.0609,0.0457,-0.0991,-0.2513,-0.2513,-0.2513,-0.2741,-0.3275,-0.3352,-0.358,-0.4189,-0.3732,-0.358,-0.4189,-0.2284,-0.1142,-0.1675,-0.0229,0.0686,0.0686,0.0686,0.0229,-0.0837,0.0152,0.0229,-0.0837,0.0152,0.0686,0.0686,0.0697,-0.0313,-0.2368,-0.3149,-0.4376,-0.6077,-0.724,-0.8787,0.029,0.1986,0.3563,0.3646,0.3969,0.4269,0.4269,0.4498,0.4802,0.4802,0.4802,0.4802,0.4802,0.4802,0.4802,0.4802,0.4881,0.4881,0.4881,0.4881,0.4881,0.4881,0.4881,0.4881,0.4881,0.4881,0.4881,0.4881,0.4881,0.4881,0.4881,0.6392,0.7218,0.7218,0.8665,0.9501,0.9501,0.9576,0.9576,0.9576,0.9496,0.8665,0.7218,0.7218,0.6392,0.4881,0.4881,0.4881,0.4881,0.4881,0.4881,0.4881,0.4881,0.4881,0.4881,0.4881,0.4881,0.4881,0.4881,0.4881,0.4881,0.4802,0.4802,0.4726,0.465,0.4652,0.4652,0.4652,0.4422,0.3658,0.1599,0.0837,0.0,-0.2132,-0.2589,-0.2513,-0.2665,-0.2741,-0.2817,-0.2817,-0.2817,-0.3275,-0.4726,-0.4954,-0.5563,-0.7162,-0.6019,-0.5563,-0.7162,-0.4645,-0.3199,-0.4726,-0.3428,-0.2513,-0.2513,-0.2513,-0.2589,-0.2665,-0.2589,-0.2589,-0.2665,-0.2589,-0.2513,-0.2513,-0.2665,-0.2695,-0.2599,-0.4595,-0.5772,-0.6236,-0.8188,-0.9662,-0.1013,0.1639,0.3638,0.3662,0.3742,0.3816,0.3816,0.3895,0.4045,0.4345,0.4422,0.4348,0.4047,0.4195,0.4422,0.4422,0.465,0.4881,0.4881,0.4881,0.4881,0.4881,0.4881,0.4881,0.4881,0.4881,0.4881,0.4881,0.4881,0.4881,0.4881,0.5259,0.5484,0.5484,0.5864,0.6092,0.6092,0.7374,0.7975,0.7979,0.6695,0.5864,0.5484,0.5484,0.5259,0.4881,0.4881,0.4881,0.4881,0.4881,0.4881,0.4881,0.4881,0.4881,0.4881,0.4881,0.4881,0.4881,0.4881,0.4881,0.4726,0.381,0.358,0.3353,0.2364,0.2136,0.2136,0.2136,0.2059,0.1602,0.0228,-0.0228,-0.099,-0.3658,-0.3352,-0.2819,-0.4039,-0.5256,-0.6171,-0.6171,-0.6171,-0.6247,-0.6706,-0.6782,-0.6858,-0.7314,-0.701,-0.6934,-0.7314,-0.5563,-0.4422,-0.4802,-0.3428,-0.2513,-0.2513,-0.2513,-0.3047,-0.4191,-0.3199,-0.3047,-0.4191,-0.3123,-0.2513,-0.2513,-0.4949,-0.6112,-0.6071,-0.6809,-0.745,-0.7905,-0.9062,-0.9917,-0.305,-0.0224,0.2212,0.2977,0.3284,0.3437,0.3437,0.3592,0.3742,0.3969,0.3277,0.2896,0.359,0.4045,0.4269,0.4269,0.4574,0.4881,0.4881,0.4881,0.4881,0.4881,0.4881,0.4881,0.4881,0.4881,0.4881,0.4881,0.4881,0.4881,0.4881,0.4881,0.4881,0.4881,0.4881,0.4881,0.4881,0.5788,0.624,0.624,0.5332,0.4881,0.4881,0.4881,0.4881,0.4881,0.4881,0.4881,0.4881,0.4881,0.4881,0.4881,0.4881,0.4881,0.4881,0.4881,0.4881,0.4802,0.4269,0.4115,0.3886,0.2668,0.2287,0.2134,0.1374,0.1145,0.1145,0.1145,0.1069,0.0534,-0.1219,-0.1828,-0.2665,-0.5332,-0.5332,-0.4876,-0.5791,-0.6706,-0.739,-0.739,-0.739,-0.739,-0.739,-0.739,-0.739,-0.739,-0.739,-0.739,-0.739,-0.6554,-0.5946,-0.5946,-0.518,-0.4645,-0.4645,-0.4645,-0.5028,-0.5946,-0.518,-0.5028,-0.5946,-0.5104,-0.4645,-0.4645,-0.6475,-0.7466,-0.7622,-0.7985,-0.8326,-0.8822,-0.9639,-1.0355,-0.5036,-0.2692,-0.0228,0.1449,0.2138,0.2367,0.2367,0.2596,0.2977,0.3208,0.1601,0.0762,0.2825,0.3586,0.3963,0.4193,0.4576,0.4881,0.4881,0.4881,0.4881,0.4881,0.4881,0.4881,0.4881,0.4881,0.4881,0.4881,0.4881,0.4881,0.4881,0.4881,0.4881,0.4881,0.4881,0.4881,0.4881,0.4881,0.4881,0.4881,0.4881,0.4881,0.4881,0.4881,0.4881,0.4881,0.4881,0.4881,0.4881,0.4881,0.4881,0.4881,0.4881,0.4726,0.465,0.465,0.4498,0.4193,0.3201,0.2819,0.2666,0.1374,0.0916,0.0916,0.0763,0.0687,0.0687,0.0687,0.0382,-0.0534,-0.2744,-0.3658,-0.4571,-0.6858,-0.739,-0.739,-0.739,-0.739,-0.739,-0.739,-0.739,-0.739,-0.739,-0.739,-0.739,-0.739,-0.739,-0.739,-0.739,-0.739,-0.739,-0.739,-0.739,-0.739,-0.739,-0.739,-0.739,-0.739,-0.739,-0.739,-0.739,-0.739,-0.7466,-0.7542,-0.7542,-0.7706,-0.8116,-0.8476,-0.8827,-0.9271,-1.0083,-1.0706,-0.5036,-0.434,-0.3658,-0.2056,-0.16,-0.1524,-0.1524,-0.1524,-0.099,0.0762,-0.0533,-0.1446,0.0305,0.1219,0.2133,0.3588,0.4426,0.4881,0.4881,0.4881,0.4881,0.4881,0.4881,0.4881,0.4881,0.4881,0.4881,0.4881,0.4881,0.4881,0.4881,0.4881,0.4881,0.4881,0.4881,0.4881,0.4881,0.4881,0.4881,0.4881,0.4881,0.4881,0.4881,0.4881,0.4881,0.4881,0.4881,0.4881,0.4881,0.4881,0.4881,0.4881,0.4881,0.4269,0.3428,0.3428,0.2746,0.1755,0.1603,0.1526,0.1297,0.0076,-0.0305,-0.0458,-0.1527,-0.1909,-0.1909,-0.1909,-0.2441,-0.3201,-0.4269,-0.5109,-0.5949,-0.709,-0.739,-0.739,-0.739,-0.739,-0.739,-0.739,-0.739,-0.739,-0.739,-0.739,-0.739,-0.739,-0.739,-0.739,-0.739,-0.739,-0.739,-0.739,-0.739,-0.739,-0.739,-0.739,-0.739,-0.739,-0.739,-0.739,-0.739,-0.739,-0.7693,-0.8371,-0.8371,-0.8453,-0.8782,-0.8942,-0.939,-0.9976,-1.0322,-1.0706,-0.6229,-0.5515,-0.465,-0.3963,-0.3123,-0.2513,-0.2513,-0.2513,-0.2437,-0.2284,-0.3047,-0.3275,-0.1599,-0.0761,-0.0076,0.0762,0.1676,0.2361,0.2361,0.2668,0.2898,0.2898,0.2898,0.3203,0.3886,0.3963,0.4191,0.4802,0.4881,0.4881,0.4881,0.4881,0.4881,0.4881,0.4881,0.4881,0.4881,0.4881,0.4881,0.4881,0.4881,0.4881,0.4881,0.4881,0.4881,0.4881,0.4881,0.4498,0.3963,0.4574,0.4117,0.2974,0.3658,0.3201,0.2134,0.2134,0.1678,0.1069,0.0458,0.0229,0.0076,-0.1221,-0.1604,-0.168,-0.2367,-0.252,-0.252,-0.252,-0.3127,-0.3886,-0.465,-0.5417,-0.6254,-0.7166,-0.739,-0.739,-0.739,-0.739,-0.739,-0.739,-0.739,-0.739,-0.739,-0.739,-0.739,-0.739,-0.739,-0.739,-0.739,-0.739,-0.739,-0.739,-0.739,-0.739,-0.739,-0.739,-0.739,-0.739,-0.7546,-0.7698,-0.7698,-0.7921,-0.8295,-0.883,-0.8674,-0.8778,-0.923,-0.9437,-0.9732,-1.0114,-1.0599,-1.0884,-0.7298,-0.6402,-0.5414,-0.5414,-0.4495,-0.3578,-0.3578,-0.3578,-0.3884,-0.5183,-0.5414,-0.4954,-0.3352,-0.2589,-0.2131,-0.1599,-0.0685,0.0076,0.0228,0.0763,0.1145,0.1145,0.1145,0.1603,0.2592,0.2666,0.3049,0.3965,0.4041,0.4041,0.4041,0.4041,0.4041,0.4041,0.4345,0.4498,0.4498,0.4726,0.4881,0.4881,0.4881,0.4881,0.4878,0.4269,0.4041,0.4041,0.4041,0.3506,0.2744,0.366,0.2898,0.1297,0.2287,0.1906,0.0763,0.0763,0.0611,0.0229,-0.0687,-0.0992,-0.1145,-0.2214,-0.252,-0.252,-0.252,-0.252,-0.252,-0.252,-0.3205,-0.4115,-0.4726,-0.5566,-0.6485,-0.7238,-0.739,-0.739,-0.739,-0.739,-0.739,-0.739,-0.739,-0.739,-0.739,-0.739,-0.739,-0.739,-0.739,-0.739,-0.739,-0.739,-0.739,-0.739,-0.739,-0.739,-0.739,-0.739,-0.739,-0.739,-0.7773,-0.8005,-0.8005,-0.8532,-0.8982,-0.9289,-0.9025,-0.9157,-0.9697,-0.999,-1.0131,-1.0357,-1.0882,-1.1057,-0.7298,-0.7238,-0.7162,-0.7162,-0.7086,-0.6934,-0.6934,-0.6934,-0.701,-0.7162,-0.7162,-0.663,-0.4954,-0.4338,-0.3346,-0.1066,-0.0304,0.0228,0.0992,0.1145,0.1145,0.1145,0.1145,0.1221,0.1297,0.1374,0.1374,0.1526,0.1526,0.1526,0.1526,0.1526,0.1526,0.1526,0.2668,0.3275,0.3275,0.4345,0.4881,0.4881,0.4881,0.4881,0.4802,0.2517,0.1526,0.1526,0.1526,0.145,0.1374,0.145,0.1374,0.1145,0.1297,0.0611,-0.0458,-0.0458,-0.1145,-0.2214,-0.2291,-0.2367,-0.2367,-0.252,-0.252,-0.252,-0.252,-0.252,-0.252,-0.252,-0.3586,-0.4802,-0.4802,-0.6019,-0.7314,-0.739,-0.739,-0.739,-0.739,-0.739,-0.739,-0.739,-0.739,-0.739,-0.739,-0.739,-0.739,-0.739,-0.739,-0.739,-0.739,-0.739,-0.739,-0.739,-0.739,-0.739,-0.739,-0.739,-0.739,-0.739,-0.7773,-0.8005,-0.8005,-0.8991,-0.9597,-0.9673,-0.9872,-1.0087,-1.0404,-1.0559,-1.071,-1.1026,-1.1047,-1.1057,-0.7298,-0.739,-0.739,-0.739,-0.739,-0.739,-0.739,-0.739,-0.739,-0.739,-0.739,-0.7162,-0.6475,-0.6244,-0.5633,-0.4115,-0.3352,-0.2666,-0.1906,-0.1373,-0.1069,-0.1069,-0.1069,-0.0763,0.0,0.0076,0.0382,0.1145,0.1145,0.1145,0.1145,0.1145,0.1145,0.1145,0.1678,0.1907,0.1907,0.2364,0.2669,0.2669,0.2669,0.2669,0.2593,0.1603,0.1145,0.1145,0.1145,0.1145,0.1145,0.1145,0.0305,-0.0992,-0.0229,-0.0687,-0.1756,-0.1756,-0.2062,-0.252,-0.252,-0.252,-0.252,-0.252,-0.252,-0.252,-0.252,-0.252,-0.252,-0.252,-0.3662,-0.4881,-0.4881,-0.6098,-0.7769,-0.9123,-0.9501,-0.9501,-0.9501,-0.9501,-0.9501,-0.9501,-0.9501,-0.9501,-0.9501,-0.8901,-0.8679,-0.9425,-0.8295,-0.739,-0.739,-0.739,-0.739,-0.739,-0.739,-0.739,-0.739,-0.7622,-0.7773,-0.7773,-0.8304,-0.8683,-0.8683,-0.937,-0.9754,-0.9754,-0.9971,-1.0198,-1.0516,-1.059,-1.0826,-1.1057,-1.1057,-1.1057,-0.7155,-0.735,-0.739,-0.739,-0.739,-0.739,-0.739,-0.739,-0.739,-0.739,-0.739,-0.739,-0.739,-0.739,-0.7086,-0.6181,-0.5341,-0.4574,-0.381,-0.3052,-0.252,-0.252,-0.252,-0.2138,-0.1221,-0.1145,-0.084,0.0,0.0076,0.0076,0.0076,0.0076,0.0076,0.0076,0.0458,0.0611,0.0611,0.0992,0.1145,0.1145,0.1145,0.0763,0.0076,0.0076,0.0076,0.0076,0.0076,0.0076,0.0076,0.0076,-0.0992,-0.2443,-0.1527,-0.1756,-0.252,-0.252,-0.252,-0.252,-0.252,-0.252,-0.252,-0.252,-0.252,-0.2596,-0.3054,-0.3206,-0.3357,-0.3812,-0.5028,-0.6168,-0.6168,-0.7306,-0.8825,-1.0476,-1.0853,-1.0853,-1.0853,-1.0853,-1.0853,-1.0853,-1.0853,-1.0853,-1.0853,-1.018,-0.9959,-1.0777,-0.9501,-0.8295,-0.7921,-0.8224,-0.8295,-0.7921,-0.7698,-0.7546,-0.7546,-0.7925,-0.8153,-0.8153,-0.8759,-0.9214,-0.9289,-0.9597,-0.978,-0.9849,-1.0071,-1.0303,-1.0541,-1.0695,-1.0894,-1.1057,-1.1057,-1.1057,-0.6932,-0.7179,-0.739,-0.739,-0.739,-0.739,-0.739,-0.739,-0.739,-0.739,-0.739,-0.739,-0.739,-0.739,-0.7086,-0.6181,-0.5341,-0.4574,-0.381,-0.3052,-0.252,-0.252,-0.252,-0.252,-0.252,-0.252,-0.252,-0.252,-0.252,-0.252,-0.252,-0.252,-0.252,-0.252,-0.1221,-0.0534,-0.0534,0.0611,0.1145,0.1145,0.1145,-0.0153,-0.252,-0.252,-0.252,-0.252,-0.252,-0.252,-0.252,-0.252,-0.252,-0.252,-0.252,-0.252,-0.252,-0.252,-0.252,-0.252,-0.252,-0.252,-0.252,-0.252,-0.252,-0.2825,-0.4348,-0.4802,-0.5183,-0.6843,-0.8202,-0.9108,-0.9108,-0.9943,-1.0853,-1.0853,-1.0853,-1.0853,-1.0853,-1.0853,-1.0853,-1.0853,-1.0853,-1.0853,-1.0853,-1.0853,-1.0853,-1.0853,-1.0853,-1.0406,-0.9284,-1.011,-1.0406,-0.9209,-0.8456,-0.7929,-0.7929,-0.83,-0.8523,-0.8523,-0.8906,-0.9289,-0.9678,-0.9754,-0.9854,-1.0071,-1.0389,-1.0552,-1.0701,-1.0936,-1.1057,-1.1057,-1.1057,-1.1057,-0.8234,-0.8296,-0.8376,-0.7617,-0.739,-0.739,-0.739,-0.739,-0.739,-0.739,-0.739,-0.739,-0.739,-0.739,-0.7086,-0.6181,-0.5797,-0.5185,-0.3886,-0.3506,-0.3127,-0.2596,-0.252,-0.252,-0.252,-0.252,-0.252,-0.252,-0.252,-0.252,-0.252,-0.252,-0.252,-0.252,-0.2138,-0.1909,-0.1909,-0.1527,-0.1375,-0.1375,-0.1375,-0.1756,-0.252,-0.252,-0.252,-0.252,-0.252,-0.252,-0.252,-0.252,-0.252,-0.252,-0.252,-0.252,-0.252,-0.252,-0.3206,-0.4119,-0.4119,-0.4876,-0.5857,-0.5857,-0.5857,-0.5933,-0.6464,-0.6616,-0.6692,-0.7218,-0.8202,-0.9641,-1.1912,-1.2962,-1.3411,-1.3411,-1.3411,-1.3411,-1.3411,-1.3411,-1.3411,-1.3411,-1.3411,-1.3411,-1.3411,-1.2744,-1.2519,-1.3262,-1.198,-1.1085,-1.1624,-1.1686,-1.1154,-0.9657,-0.8825,-0.8376,-0.8376,-0.8755,-0.8982,-0.8982,-0.9289,-0.9597,-0.9678,-0.9754,-0.9854,-1.0076,-1.0394,-1.0552,-1.0706,-1.0942,-1.1057,-1.1057,-1.1057,-1.1057,-0.926,-0.906,-0.8804,-0.8206,-0.8371,-0.8674,-0.8674,-0.8674,-0.8674,-0.8674,-0.8674,-0.8598,-0.8148,-0.8073,-0.7997,-0.7917,-0.7613,-0.6931,-0.5481,-0.5402,-0.487,-0.3205,-0.3889,-0.4269,-0.351,-0.3965,-0.4343,-0.4343,-0.4343,-0.4117,-0.3433,-0.3433,-0.313,-0.252,-0.252,-0.252,-0.252,-0.252,-0.2825,-0.3433,-0.2825,-0.252,-0.252,-0.252,-0.252,-0.252,-0.252,-0.252,-0.2596,-0.313,-0.3433,-0.351,-0.4117,-0.4343,-0.4343,-0.4343,-0.4952,-0.5785,-0.5785,-0.654,-0.737,-0.737,-0.737,-0.7521,-0.8055,-0.8282,-0.8433,-0.9189,-1.0094,-1.1229,-1.3426,-1.4257,-1.4548,-1.4548,-1.4548,-1.4548,-1.4548,-1.4548,-1.4548,-1.4548,-1.4548,-1.4548,-1.4548,-1.395,-1.3725,-1.4473,-1.3262,-1.2512,-1.3194,-1.3337,-1.2805,-1.1217,-1.047,-0.9722,-0.8825,-0.9138,-0.9365,-0.9365,-1.0121,-1.0348,-0.9754,-0.9833,-0.9981,-1.0214,-1.0451,-1.0689,-1.0837,-1.0989,-1.1057,-1.1057,-1.1057,-1.1489,-1.0154,-0.9561,-0.8851,-0.9154,-1.0105,-1.0853,-1.0853,-1.0853,-1.0853,-1.0853,-1.0853,-1.0557,-0.9436,-0.9289,-0.9582,-1.0702,-1.025,-0.942,-0.8211,-0.8353,-0.7441,-0.4341,-0.6316,-0.7226,-0.5335,-0.654,-0.7445,-0.7445,-0.737,-0.6692,-0.5107,-0.503,-0.4345,-0.2901,-0.2901,-0.2901,-0.2901,-0.2749,-0.351,-0.503,-0.3586,-0.2901,-0.2901,-0.2901,-0.2901,-0.2901,-0.2901,-0.2901,-0.2976,-0.4422,-0.503,-0.5183,-0.6768,-0.737,-0.737,-0.737,-0.7445,-0.7521,-0.7521,-0.7597,-0.7752,-0.7752,-0.7752,-0.7975,-0.9496,-0.9878,-1.0331,-1.2301,-1.3126,-1.3568,-1.3957,-1.4331,-1.4548,-1.4548,-1.4548,-1.4548,-1.4548,-1.4548,-1.4548,-1.4548,-1.4548,-1.4548,-1.4548,-1.4548,-1.4622,-1.4622,-1.4697,-1.454,-1.4226,-1.5211,-1.5285,-1.3599,-1.3158,-1.2049,-0.9733,-0.9895,-1.0051,-1.0051,-1.1461,-1.1536,-0.9976,-1.012,-1.0351,-1.0511,-1.0585,-1.0821,-1.1057,-1.123,-1.1316,-1.1316,-1.1398,-1.2341,-1.1485,-1.1349,-1.1258,-1.0644,-1.0702,-1.0853,-1.0853,-1.0853,-1.0853,-1.0853,-1.0853,-1.0777,-1.0557,-1.0482,-1.0557,-1.0853,-1.0702,-1.0175,-0.9038,-0.8957,-0.8504,-0.7147,-0.7529,-0.7904,-0.7672,-0.7752,-0.7828,-0.7828,-0.7525,-0.7218,-0.6843,-0.6768,-0.6616,-0.6237,-0.6237,-0.6237,-0.6237,-0.4952,-0.518,-0.6768,-0.6389,-0.6237,-0.6237,-0.6237,-0.6237,-0.6237,-0.6237,-0.6237,-0.6313,-0.6616,-0.6768,-0.6843,-0.7218,-0.737,-0.737,-0.737,-0.8131,-0.9194,-0.9194,-1.0029,-1.1103,-1.1103,-1.1103,-1.1172,-1.1555,-1.163,-1.1787,-1.2608,-1.3358,-1.3957,-1.4324,-1.4548,-1.4548,-1.4548,-1.4548,-1.4548,-1.4548,-1.4548,-1.4548,-1.4548,-1.4548,-1.4548,-1.4548,-1.4548,-1.4772,-1.5376,-1.5451,-1.5666,-1.6168,-1.7001,-1.6927,-1.5326,-1.5632,-1.5186,-1.3464,-1.339,-1.3472,-1.3472,-1.3763,-1.3247,-1.1611,-1.1728,-1.1457,-1.0511,-1.0585,-1.0821,-1.1057,-1.2514,-1.3196,-1.3196,-1.4557,-1.4735,-1.2623,-1.2244,-1.2047,-1.2478,-1.2587,-1.2587,-1.2587,-1.2587,-1.2587,-1.2587,-1.2587,-1.2437,-1.1912,-1.2212,-1.2437,-1.1837,-1.2212,-1.2212,-1.1003,-1.1304,-1.0922,-0.8967,-0.9949,-1.0476,-0.9712,-1.0169,-1.047,-1.047,-1.0094,-0.9566,-0.8806,-0.8584,-0.8131,-0.7445,-0.737,-0.737,-0.737,-0.7226,-0.7529,-0.8433,-0.7752,-0.737,-0.737,-0.737,-0.737,-0.737,-0.737,-0.737,-0.7445,-0.8131,-0.8433,-0.8509,-0.9345,-0.9652,-0.9652,-0.9652,-1.0186,-1.087,-1.087,-1.1479,-1.2245,-1.2245,-1.2245,-1.2245,-1.2245,-1.2396,-1.2615,-1.2976,-1.3508,-1.4107,-1.4473,-1.4548,-1.4548,-1.4548,-1.4548,-1.4548,-1.4548,-1.4548,-1.4548,-1.4548,-1.4548,-1.4548,-1.4548,-1.4548,-1.4846,-1.56,-1.5749,-1.6195,-1.7297,-1.7824,-1.7888,-1.7417,-1.7057,-1.6539,-1.5706,-1.5029,-1.4583,-1.4583,-1.5252,-1.4961,-1.3539,-1.3695,-1.3613,-1.3199,-1.3322,-1.3465,-1.362,-1.4564,-1.5071,-1.5071,-1.6096,-1.6437,-1.3393,-1.2857,-1.2407,-1.416,-1.4548,-1.4548,-1.4548,-1.4548,-1.4548,-1.4548,-1.4548,-1.4249,-1.3276,-1.3875,-1.4249,-1.3276,-1.395,-1.4249,-1.3133,-1.3875,-1.3494,-1.0708,-1.2519,-1.3351,-1.1605,-1.2662,-1.3494,-1.3419,-1.3051,-1.2144,-1.0696,-1.025,-0.9496,-0.8206,-0.8131,-0.8131,-0.8131,-0.942,-1.0105,-1.0105,-0.8736,-0.8131,-0.8131,-0.8131,-0.8131,-0.8131,-0.8131,-0.8131,-0.8206,-0.9576,-1.0105,-1.0261,-1.1705,-1.2245,-1.2245,-1.2245,-1.2245,-1.2245,-1.2245,-1.2245,-1.2245,-1.2245,-1.2245,-1.2245,-1.2321,-1.254,-1.3051,-1.3935,-1.4316,-1.4556,-1.4846,-1.4772,-1.4548,-1.4548,-1.4548,-1.4548,-1.4548,-1.4548,-1.4548,-1.4548,-1.4548,-1.4622,-1.4772,-1.4772,-1.507,-1.5972,-1.612,-1.664,-1.8046,-1.8267,-1.8488,-1.9213,-1.81,-1.7279,-1.7279,-1.6077,-1.5326,-1.5326,-1.653,-1.6868,-1.5953,-1.5863,-1.6054,-1.6327,-1.6426,-1.6523,-1.6523,-1.6778,-1.6949,-1.6949,-1.7204,-1.8054,-1.3393,-1.3594,-1.377,-1.4445,-1.4548,-1.4548,-1.4548,-1.4548,-1.4548,-1.4548,-1.4548,-1.4548,-1.4324,-1.4473,-1.4548,-1.4324,-1.4473,-1.4398,-1.3883,-1.3957,-1.3883,-1.3433,-1.3733,-1.4032,-1.4017,-1.395,-1.38,-1.3419,-1.3051,-1.2608,-1.2013,-1.1862,-1.1787,-1.1479,-1.1479,-1.1479,-1.1479,-1.1712,-1.1862,-1.1862,-1.1636,-1.1479,-1.1479,-1.1479,-1.1479,-1.1479,-1.1479,-1.1479,-1.1555,-1.1787,-1.1862,-1.1862,-1.217,-1.2245,-1.2245,-1.2245,-1.2245,-1.2245,-1.2245,-1.2245,-1.2245,-1.2245,-1.2245,-1.2321,-1.2608,-1.2758,-1.3568,-1.6891,-1.7195,-1.6474,-1.6548,-1.5583,-1.4548,-1.4548,-1.4548,-1.4548,-1.4548,-1.4548,-1.4548,-1.4548,-1.4548,-1.4772,-1.5451,-1.56,-1.6046,-1.7529,-1.775,-1.8046,-1.8919,-1.9066,-1.914,-1.9213,-1.9066,-1.8919,-1.8919,-1.8679,-1.8532,-1.8532,-1.8762,-1.8976,-1.9292,-1.8031,-1.7003,-1.6319,-1.6426,-1.6523,-1.6523,-1.8054,-1.8826,-1.8902,-2.0441,-2.0441,-1.344,-1.3774,-1.4121,-1.4461,-1.4548,-1.4548,-1.4548,-1.4548,-1.4548,-1.4548,-1.5285,-1.5806,-1.5806,-1.653,-1.7112,-1.7112,-1.7112,-1.6752,-1.5731,-1.5583,-1.5583,-1.5583,-1.5583,-1.5657,-1.5806,-1.4921,-1.4249,-1.4092,-1.3651,-1.3283,-1.2908,-1.2683,-1.2464,-1.2245,-1.2245,-1.3133,-1.5054,-1.4838,-1.4324,-1.3508,-1.3508,-1.3058,-1.2245,-1.2245,-1.2245,-1.2245,-1.2245,-1.2245,-1.2245,-1.2245,-1.2245,-1.2321,-1.3208,-1.2983,-1.2321,-1.3215,-1.3508,-1.3508,-1.3508,-1.4025,-1.4772,-1.4772,-1.4913,-1.5136,-1.5277,-1.5492,-1.6151,-1.8355,-1.8575,-1.8144,-1.8144,-1.7629,-1.7112,-1.7112,-1.7112,-1.7112,-1.7112,-1.7112,-1.6817,-1.602,-1.5806,-1.5806,-1.5749,-1.5749,-1.6269,-1.7824,-1.8046,-1.8341,-1.914,-1.9213,-1.9213,-1.9213,-1.9213,-1.9213,-1.9213,-1.9213,-1.9213,-1.9213,-1.9213,-1.9496,-1.9988,-1.9525,-1.9229,-1.9037,-1.929,-1.9503,-1.9503,-2.0272,-2.0704,-2.0704,-2.1556,-2.1556,-1.335,0.0,-1.4224,-1.4485,-1.4548,-1.4548,0.0,-1.4548,-1.4697,-1.5062,-1.6103,-1.7057,-1.7426,-1.8438,-1.9234,-1.9234,-1.9234,-1.8795,-1.7638,-1.7426,-1.7426,-1.7426,-1.7426,-1.7426,-1.7426,-1.6391,-1.5649,-1.5574,-1.5285,-1.4913,-1.4524,-1.4233,-1.3942,-1.3651,-1.3651,-1.4913,-1.7638,-1.7353,-1.6613,-1.5426,-1.5285,-1.4622,-1.3508,-1.3358,-1.3358,-1.3358,-1.3358,-1.3358,-1.3358,-1.3358,-1.3358,-1.3433,-1.4697,-1.4398,-1.3508,-1.4697,-1.5136,-1.5136,-1.5136,-1.588,-1.6918,-1.6918,-1.7131,-1.7417,-1.7712,-1.8511,-1.9464,-2.0111,-2.0111,-1.9819,-1.9819,-1.9527,-1.9234,-1.9234,-1.9234,-1.9234,-1.9234,-1.9234,-1.8941,-1.7786,-1.7564,-1.7426,-1.6779,-1.6705,-1.7076,-1.8193,-1.8341,-1.8562,-1.914,-1.9213,-1.9213,-1.9213,-1.9213,-1.9213,-1.9213,-1.9213,-1.9213,-1.9213,-1.9391,-1.9674,-2.0145,-2.0595,-2.1045,-2.1505,-2.1799,-2.1976,-2.1976,-2.1976,-2.1976,-2.1976,-2.1976,-2.1976,0.0,-1.3795,-1.4516,-1.454,-1.4548,-1.4548,-1.4548,-1.4548,0.0,-1.6474,-1.6844,-1.7343,-1.8795,-1.9161,-1.9234,-1.9234,-1.9234,-1.9234,-1.9088,-1.9088,-1.9088,-1.9088,-1.9088,-1.9088,-1.9088,-1.9015,-1.8795,-1.8438,-1.8365,-1.8144,-1.7776,-1.7702,-1.7702,-1.7638,-1.7638,-1.7776,-1.8007,-1.7997,-1.7923,-1.7859,-1.7491,-1.7205,-1.7122,-1.6761,-1.6539,-1.6539,-1.6539,-1.6539,-1.6539,-1.6539,-1.6539,-1.6622,-1.6696,-1.6696,-1.6622,-1.6696,-1.677,-1.677,-1.677,-1.6835,-1.6918,-1.6918,-1.6918,-1.7131,-1.8218,-2.0631,-2.3044,-2.3475,-2.2539,-2.1381,-2.1381,-2.034,-1.9234,-1.9234,-1.9234,-1.9234,-1.9234,-1.9234,-1.9307,-1.9589,-1.9589,-1.96,-1.9559,-1.9569,-1.9423,-1.9213,-1.9129,-1.9213,-1.9213,-1.9213,-1.9213,-1.9213,-1.9213,-1.9213,-1.9213,-1.9213,-1.9213,-1.9213,-1.9705,-2.0155,-2.0527,-2.1066,-2.1526,-2.1924,-2.1965,-2.1976,-2.1976,-2.1976,-2.1976,-2.1976,-2.1976,-2.1976,-1.3205,-1.3947,-1.4548,-1.4548,-1.4548,-1.4548,-1.4548,-1.536,-1.6177,-1.677,-1.8448,-1.9986,-2.0559,-2.1503,-2.2154,-2.2154,-2.2154,-2.1792,-2.085,-2.0704,-2.0704,-2.0704,-2.0704,-2.0704,-2.0704,-1.9819,-1.9161,-1.9015,-1.9015,-1.8868,-1.8438,-1.8438,-1.9454,-2.1648,-2.1503,-2.1358,-2.1358,-2.114,-2.0486,-1.9516,-1.938,-1.8795,-1.7859,-1.7712,-1.7638,-1.7638,-1.7353,-1.7417,0.0,-1.7131,-1.7057,-1.7353,-1.81,-1.7805,-1.7057,-1.8026,-1.8394,-1.8394,-1.8394,-1.8972,-1.984,-2.0132,-1.9986,-1.9986,-2.0922,-2.2166,-2.3403,-2.3762,-2.3475,-2.3044,-2.3044,-2.2599,-2.2154,-2.2154,-2.2154,-2.2154,-2.2154,-2.237,-2.2298,-2.143,-2.1503,-2.1514,-2.1018,-2.0945,-2.1018,-2.1381,-2.0799,-2.0362,-2.0362,-1.9716,-1.9213,-1.9213,-1.9213,-1.9213,-1.9213,-1.9213,-1.9213,-1.9213,-1.9737,-2.0207,-2.0579,-2.1107,-2.1578,-2.1965,-2.1976,-2.1976,-2.1976,-2.1976,-2.1976,-2.1976,-2.1976,-2.1976,-1.3438,-1.4098,-1.4548,-1.4548,-1.4548,-1.4689,-1.5211,-1.6177,-1.7205,-1.8164,-2.0059,-2.1744,-2.225,-2.3188,-2.3918,-2.3918,-2.3918,-2.3547,-2.2467,-2.2322,-2.2322,-2.2322,-2.2322,-2.2322,-2.2322,-2.1358,-2.0693,-2.0693,-2.0693,-2.062,-2.0329,-2.0329,-2.143,-2.3834,-2.3619,-2.3475,-2.3475,-2.3259,-2.2599,-2.1491,-2.1419,-2.0766,-1.9757,-1.961,-1.9537,-1.9537,-1.9245,-1.9318,-1.9537,-1.8962,-1.8889,-1.9255,-1.9924,-1.9485,-1.8668,-1.9642,-2.0008,-2.0008,-2.0008,-2.0654,-2.1599,-2.1888,-2.1888,-2.1888,-2.2395,-2.29,-2.3403,-2.3619,-2.3847,-2.3918,-2.3918,-2.3918,-2.3977,-2.4062,-2.4062,-2.4133,-2.4276,-2.4491,-2.4419,-2.3475,-2.3475,-2.3403,-2.2611,-2.2467,-2.2539,-2.2755,-2.2033,-2.1454,-2.1018,-2.03,-1.9642,-1.9276,-1.9213,-1.9213,-1.9213,-1.9213,-1.9349,-1.9496,-1.9956,-2.0417,-2.0867,-2.1327,-2.1725,-2.1976,-2.1976,-2.1976,-2.1976,-2.1976,-2.1976,-2.1976,-2.1976,-2.2059,-1.351,-1.4059,-1.4548,-1.4548,-1.4548,-1.4987,-1.6548,-1.6918,-1.7795,-2.0945,-2.1599,-2.2106,-2.3619,-2.3918,-2.3918,-2.3918,-2.3918,-2.3918,-2.3918,-2.3918,-2.3918,-2.3918,-2.3918,-2.3918,-2.3918,-2.3918,-2.3918,-2.3918,-2.3918,-2.3918,-2.3918,-2.3977,-2.3977,-2.3977,-2.3977,-2.3977,-2.3977,-2.3977,-2.3977,-2.3977,-2.3547,-2.3403,-2.3331,-2.2972,-2.2755,-2.2755,-2.2755,-2.2755,-2.2755,-2.2755,-2.2755,-2.2683,-2.2322,-2.2178,-2.2106,-2.1744,-2.1599,-2.1599,-2.1599,-2.1599,-2.1599,-2.1599,-2.1816,-2.2178,-2.2178,-2.2683,-2.3331,-2.3331,-2.3619,-2.3918,-2.3918,-2.3918,-2.399,-2.4419,-2.4491,-2.4634,-2.499,-2.5075,-2.5218,-2.5573,-2.5658,-2.5431,-2.4634,-2.4491,-2.4133,-2.2972,-2.2755,-2.2322,-2.1163,-2.1018,-2.0519,-1.936,-1.9213,-1.9213,-1.9213,-1.9213,-1.9485,-1.9977,-2.0349,-2.0877,-2.1338,-2.1726,-2.1976,-2.1976,-2.1976,-2.1976,-2.1976,-2.1976,-2.1976,-2.1976,-2.1976,-2.2226,-1.3733,-1.4214,-1.4548,-1.4548,-1.4548,-1.4987,-1.6548,-1.7786,-1.9098,-2.1163,-2.2467,-2.3331,-2.3834,-2.3918,-2.3918,-2.3918,-2.4133,-2.4348,-2.4348,-2.4348,-2.4348,-2.4348,-2.4062,-2.3918,-2.3918,-2.3918,-2.3918,-2.3918,-2.3918,-2.3918,-2.3918,-2.5943,-2.7055,-2.7055,-2.7055,-2.7055,-2.7055,-2.7055,-2.7055,-2.7055,-2.6915,-2.6915,-2.6845,-2.573,-2.5248,-2.5092,-2.3762,-2.3331,-2.3547,-2.2972,-2.29,-2.3116,-2.2755,-2.2539,-2.2539,-2.2178,-2.2178,-2.2322,-2.2106,-2.2178,-2.2467,-2.2755,-2.2683,-2.2611,-2.29,-2.3116,-2.3403,-2.3619,-2.3847,-2.3918,-2.3918,-2.4133,-2.4348,-2.4491,-2.4705,-2.4919,-2.5075,-2.5289,-2.5502,-2.5644,-2.5871,-2.6013,-2.5729,-2.5729,-2.5573,-2.5218,-2.4491,-2.3547,-2.2395,-2.1526,-2.0519,-1.936,-1.9213,-1.9213,-1.9213,-1.9213,-1.9485,-1.9977,-2.0349,-2.0877,-2.1338,-2.1726,-2.1976,-2.1976,-2.1976,-2.1976,-2.1976,-2.1976,-2.1976,-2.1976,-2.1976,-2.2049,-1.4973,-1.534,-1.5649,-1.6308,-1.5946,-1.6094,-1.8301,-1.9475,-2.0631,-2.2178,-2.3762,-2.4892,-2.4963,-2.5532,-2.5943,-2.614,-2.6366,-2.6507,-2.6507,-2.6507,-2.6507,-2.6507,-2.6281,-2.614,-2.614,-2.6013,-2.5957,-2.5957,-2.5801,-2.5801,-2.614,-2.788,-2.8799,-2.8606,-2.8606,-2.8521,-2.8382,-2.8382,-2.8382,-2.8382,-2.8382,-2.8382,-2.8313,-2.7491,-2.707,-2.7,-2.5872,-2.5163,-2.4834,-2.495,-2.438,-2.3547,-2.3821,-2.3892,-2.3749,-2.2755,-2.2959,-2.3677,-2.3378,-2.3103,-2.29,-2.3749,-2.4451,-2.4936,-2.4607,-2.4464,-2.4393,-2.4049,-2.3918,-2.3918,-2.3918,-2.4062,-2.4295,-2.434,-2.5045,-2.5604,-2.5213,-2.5548,-2.5871,-2.5871,-2.6084,-2.6226,-2.6226,-2.6226,-2.6226,-2.6226,-2.5644,-2.4777,-2.3619,-2.2395,-2.1236,-2.0081,-1.9935,-1.9935,-1.9935,-1.9496,-1.9569,-2.0228,-2.0443,-2.0961,-2.1856,-2.1913,-2.2144,-2.2479,-2.2322,-2.2322,-2.2479,-2.2479,-2.2479,-2.2479,-2.2479,-2.267,-1.6926,-1.7131,-1.75,-1.8941,-1.8291,-1.8007,-2.0934,-2.1671,-2.2178,-2.3834,-2.5319,-2.6437,-2.6845,-2.805,-2.9161,-2.9475,-2.9612,-2.9612,-2.9612,-2.9612,-2.9612,-2.9612,-2.9544,-2.9544,-2.9544,-2.9214,-2.9038,-2.9038,-2.8676,-2.8938,-2.9888,-2.9956,-2.9766,-2.9454,-2.9454,-2.923,-2.8868,-2.8868,-2.8868,-2.8868,-2.8799,-2.8799,-2.8799,-2.866,-2.8591,-2.8606,-2.8452,-2.7615,-2.6507,-2.784,-2.6774,-2.4406,-2.5518,-2.5928,-2.573,-2.3879,-2.4094,-2.5362,-2.5362,-2.4451,-2.3534,-2.4936,-2.6774,-2.8119,-2.6859,-2.6437,-2.6169,-2.475,-2.4335,-2.4335,-2.4335,-2.4295,-2.4265,-2.4493,-2.5663,-2.6511,-2.5667,-2.5936,-2.6296,-2.6296,-2.6226,-2.6226,-2.6226,-2.6226,-2.6226,-2.6226,-2.6226,-2.58,-2.4634,-2.3547,-2.2539,-2.1526,-2.1297,-2.1308,-2.1381,-2.048,-2.0229,-2.1153,-2.125,-2.184,-2.3199,-2.2646,-2.273,-2.3566,-2.3232,-2.3148,-2.3327,-2.3482,-2.3566,-2.3566,-2.3566,-2.3823,-1.8652,-1.8941,-1.9297,-1.9589,-1.9662,-2.0111,-2.1659,-2.225,-2.3175,-2.5589,-2.6592,-2.7421,-2.8714,-2.9199,-2.9475,-2.9544,-2.9766,-2.9989,-2.9989,-2.9989,-2.9989,-2.9989,-2.9766,-2.9544,-2.9544,-2.9491,-2.9422,-2.9422,-2.9353,-3.0384,-3.2899,-3.3033,-3.3051,-3.2917,-3.2917,-3.2899,-3.2831,-3.2476,-3.2324,-3.2324,-3.2003,-3.1885,-3.1885,-3.0708,-3.0212,-3.0143,-2.8884,-2.8174,-2.7965,-2.8243,-2.8034,-2.7476,-2.7685,-2.7825,-2.7685,-2.697,-2.7111,-2.7615,-2.7321,-2.7181,-2.7266,-2.7546,-2.7965,-2.8313,-2.805,-2.7895,-2.7825,-2.7546,-2.7406,-2.7476,-2.777,-2.7324,-2.6955,-2.7611,-2.785,-2.7676,-2.6951,-2.691,-2.6839,-2.6338,-2.6226,-2.6226,-2.6226,-2.6226,-2.6226,-2.6226,-2.6226,-2.58,-2.4634,-2.4276,-2.4263,-2.4594,-2.3866,-2.3508,-2.4152,-2.4461,-2.4876,-2.5452,-2.597,-2.6608,-2.7256,-2.5899,-2.5252,-2.5499,-2.5417,-2.4696,-2.3327,-2.4779,-2.5499,-2.5499,-2.5499,-2.5695,-2.0858,-2.1056,-2.143,-2.2142,-2.1925,-2.1865,-2.3259,-2.425,-2.5234,-2.6648,-2.8243,-2.9697,-3.0693,-3.1544,-3.2239,-3.2424,-3.2558,-3.2711,-3.2711,-3.2594,-3.2459,-3.2459,-3.2324,-3.2171,-3.2171,-3.2018,-3.1866,-3.1866,-3.1765,-3.2796,-3.5296,-3.4787,-3.4407,-3.4189,-3.4189,-3.4141,-3.4026,-3.3807,-3.3722,-3.3722,-3.3539,-3.3338,-3.3118,-3.2341,-3.1953,-3.1681,-3.0897,-3.0126,-2.9576,-3.028,-2.9714,-2.8452,-2.923,-2.9507,-2.9369,-2.8452,-2.866,-2.9438,-2.9299,-2.8868,-2.866,-3.0247,-3.0795,-3.0658,-3.011,-2.9973,-2.9835,-2.9145,-2.8938,-2.9007,-2.9214,-2.857,-2.8086,-2.9059,-2.8299,-2.7508,-2.7995,-2.8162,-2.8123,-2.7805,-2.752,-2.724,-2.724,-2.6706,-2.6226,-2.6226,-2.6226,-2.6013,-2.5431,-2.563,-2.6183,-2.6874,-2.5928,-2.5362,-2.5787,-2.5959,-2.6258,-2.6749,-2.7398,-2.8077,-2.8802,-2.7853,-2.7445,-2.7866,-2.7703,-2.7213,-2.6513,-2.7471,-2.7948,-2.7948,-2.8227,-2.8653,-2.3062,-2.3188,-2.3547,-2.4861,-2.4276,-2.3762,-2.5204,-2.6536,-2.7561,-2.798,-3.011,-3.2036,-3.2626,-3.4019,-3.5203,-3.5513,-3.5579,-3.5644,-3.5644,-3.5334,-3.5136,-3.5136,-3.54,-3.5513,-3.5447,-3.5145,-3.4947,-3.4881,-3.4966,-3.5737,-3.7385,-3.639,-3.5606,-3.5304,-3.5258,-3.5079,-3.4919,-3.4853,-3.4787,-3.4787,-3.454,-3.4189,-3.3886,-3.3655,-3.3387,-3.3069,-3.3069,-3.2377,-3.1391,-3.2579,-3.1596,-2.9507,-3.0777,-3.1255,-3.1119,-2.9851,-3.0126,-3.1187,-3.1187,-3.028,-2.9645,-3.2611,-3.3503,-3.3369,-3.2391,-3.2121,-3.1833,-3.0658,-3.0316,-3.0283,-3.0219,-2.9507,-2.9027,-2.9827,-2.8585,-2.7552,-2.8832,-2.9198,-2.9291,-2.9359,-2.8929,-2.8589,-2.8714,-2.7591,-2.6636,-2.6777,-2.6509,-2.6367,-2.6579,-2.7325,-2.8095,-2.8529,-2.7731,-2.721,-2.735,-2.73,-2.742,-2.7824,-2.8594,-2.9391,-3.0094,-2.9558,-2.9639,-3.0408,-2.9976,-2.9814,-2.9923,-3.0246,-3.0408,-3.0408,-3.1029,-3.165,-2.4692,-2.5004,-2.536,-2.5502,-2.5658,-2.607,-2.7184,-2.7855,-2.8853,-3.1102,-3.2221,-3.3065,-3.4389,-3.5117,-3.5513,-3.5579,-3.5795,-3.5926,-3.5926,-3.5861,-3.5795,-3.5795,-3.6909,-3.7514,-3.7212,-3.7127,-3.6934,-3.663,-3.826,-3.9336,-3.9587,-3.9147,-3.8831,-3.8831,-3.8536,-3.8429,-3.845,-3.8069,-3.79,-3.7857,-3.6415,-3.5652,-3.5586,-3.4455,-3.3959,-3.3892,-3.3892,-3.3759,-3.3606,-3.3759,-3.3606,-3.3338,-3.3472,-3.3539,-3.3539,-3.3338,-3.3168,-3.3083,-3.3083,-3.2697,-3.2444,-3.3606,-3.3941,-3.3959,-3.374,-3.3673,-3.3673,-3.3454,-3.3387,-3.3291,-3.2909,-3.2039,-3.1339,-3.115,-3.0249,-2.9536,-2.9784,-2.9379,-2.9053,-2.9292,-2.9276,-2.9406,-3.008,-2.9007,-2.8328,-2.8985,-2.748,-2.6721,-2.7901,-2.9054,-2.9661,-2.9416,-2.9262,-2.9416,-3.0139,-3.1294,-3.1945,-3.2043,-3.3293,-3.4072,-3.4248,-3.2792,-3.1981,-3.2141,-3.2061,-3.1342,-2.9923,-3.1422,-3.2141,-3.2156,-3.2941,-3.3532,-2.6959,-2.7365,-2.7731,-2.8815,-2.9161,-2.9438,-2.9851,-3.0727,-3.1781,-3.2877,-3.3915,-3.4768,-3.54,-3.5841,-3.6103,-3.6103,-3.68,-3.7361,-3.7361,-3.7855,-3.8238,-3.8238,-3.8789,-3.9147,-3.8958,-3.8958,-3.8831,-3.8705,-3.9524,-4.0336,-4.1078,-4.0274,-4.0149,-4.0831,-4.0046,-3.9546,-3.9294,-3.8979,-3.8831,-3.8789,-3.809,-3.7578,-3.7344,-3.6784,-3.6415,-3.622,-3.622,-3.622,-3.622,-3.622,-3.622,-3.609,-3.5409,-3.5098,-3.5032,-3.4274,-3.3874,-3.374,-3.374,-3.3673,-3.3606,-3.4056,-3.4256,-3.4256,-3.4474,-3.454,-3.454,-3.454,-3.454,-3.4419,-3.3722,-3.2893,-3.2027,-3.1417,-3.0774,-3.0276,-3.0276,-3.0163,-3.0222,-3.0782,-3.1013,-3.1169,-3.1568,-3.0848,-3.0316,-3.0675,-2.992,-2.9799,-3.1255,-3.0982,-3.076,-3.105,-3.0536,-3.0346,-3.0654,-3.2054,-3.2813,-3.2813,-3.4175,-3.4988,-3.4988,-3.4248,-3.3838,-3.3838,-3.3838,-3.3522,-3.2808,-3.3522,-3.3838,-3.387,-3.5159,-3.5853,-2.9092,-2.9507,-2.9851,-3.134,-3.1697,-3.1765,-3.2154,-3.3029,-3.3897,-3.4314,-3.523,-3.6123,-3.654,-3.6929,-3.7317,-3.7619,-3.8557,-3.9253,-3.9127,-3.9796,-4.0274,-4.0274,-4.0584,-4.0769,-4.0708,-4.0708,-4.0893,-4.1385,-4.1446,-4.1813,-4.2707,-4.1774,-4.1652,-4.2587,-4.1591,-4.0915,-4.0646,-4.0442,-4.038,-4.038,-4.0006,-3.965,-3.9356,-3.9041,-3.8747,-3.8409,-3.8409,-3.8409,-3.8282,-3.8282,-3.824,-3.8112,-3.7127,-3.676,-3.663,-3.5691,-3.5051,-3.4787,-3.5362,-3.554,-3.5606,-3.5763,-3.5632,-3.5389,-3.5691,-3.5513,-3.5269,-3.5269,-3.5269,-3.5039,-3.3987,-3.3241,-3.2434,-3.1405,-3.0927,-3.0633,-3.0633,-3.0765,-3.1073,-3.1698,-3.2123,-3.2385,-3.2385,-3.2076,-3.1941,-3.2159,-3.1914,-3.2306,-3.4037,-3.3083,-3.2341,-3.2611,-3.1698,-3.1101,-3.1101,-3.2181,-3.2813,-3.2813,-3.4175,-3.4988,-3.4988,-3.4988,-3.4988,-3.4988,-3.4988,-3.4988,-3.4988,-3.4988,-3.4988,-3.5022,-3.6581,-3.7347,-3.0778,-3.0966,-3.1119,-3.1544,-3.1697,-3.2018,-3.3363,-3.3764,-3.4181,-3.5579,-3.5926,-3.641,-3.8048,-3.8662,-3.9357,-4.0624,-4.1162,-4.1329,-4.0937,-4.0937,-4.0937,-4.0937,-4.2079,-4.2684,-4.2466,-4.2405,-4.3211,-4.5035,-4.5234,-4.5059,-4.4776,-4.4448,-4.4354,-4.4354,-4.4058,-4.3903,-4.3903,-4.3903,-4.3903,-4.3844,-4.2489,-4.1835,-4.1774,-4.0522,-3.9962,-3.99,-3.99,-3.9712,-3.9399,-3.9399,-3.921,-3.9,-3.8937,-3.8937,-3.8874,-3.881,-3.777,-3.674,-3.8937,-3.9712,-3.9712,-3.9775,-3.8895,-3.7898,-3.7898,-3.6974,-3.5926,-3.5926,-3.5926,-3.5536,-3.3861,-3.3413,-3.2945,-3.1346,-3.0917,-3.0878,-3.0878,-3.0878,-3.0954,-3.0936,-3.1543,-3.2087,-3.2087,-3.228,-3.2689,-3.3406,-3.2447,-3.2576,-3.5183,-3.5381,-3.4919,-3.3856,-3.2831,-3.2224,-3.2224,-3.2593,-3.2813,-3.2813,-3.4175,-3.4988,-3.4988,-3.4988,-3.4988,-3.4988,-3.4988,-3.4988,-3.4988,-3.4988,-3.4988,-3.5022,-3.6581,-3.7347,-3.3394,-3.3546,-3.3764,-3.592,-3.6135,-3.62,-3.7836,-3.8219,-3.8536,-3.9587,-3.9859,-4.0025,-4.0624,-4.0871,-4.1117,-4.1568,-4.2419,-4.3045,-4.2901,-4.3606,-4.4164,-4.4164,-4.4576,-4.4835,-4.4718,-4.4718,-4.4952,-4.5699,-4.5757,-4.5699,-4.5583,-4.5467,-4.5293,-4.5118,-4.5025,-4.4791,-4.4378,-4.4378,-4.4319,-4.4165,-4.3581,-4.3378,-4.3318,-4.2874,-4.2693,-4.2693,-4.2693,-4.2572,-4.2428,-4.2428,-4.2391,-4.2208,-4.1307,-4.0915,-4.0853,-3.9984,-3.9336,-3.9,-4.0708,-4.0708,-4.0025,-4.0025,-3.9712,-3.9336,-3.9336,-3.8958,-3.8599,-3.8599,-3.8599,-3.8179,-3.6311,-3.577,-3.5309,-3.3465,-3.3242,-3.3209,-3.241,-3.241,-3.23,-3.1661,-3.1753,-3.2131,-3.263,-3.2793,-3.3315,-3.4739,-3.4743,-3.5157,-3.6762,-3.6257,-3.5885,-3.6181,-3.5239,-3.4645,-3.4674,-3.5303,-3.5759,-3.5759,-3.6327,-3.6592,-3.6592,-3.6161,-3.5866,-3.5866,-3.5615,-3.5537,-3.5537,-3.5145,-3.4988,-3.5005,-3.6082,-3.6798,-3.6181,-3.6635,-3.7196,-3.9105,-3.9504,-3.9693,-4.0853,-4.1078,-4.124,-4.1896,-4.1957,-4.214,-4.2661,-4.2735,-4.2938,-4.3427,-4.4199,-4.4728,-4.4611,-4.5302,-4.5872,-4.5872,-4.5872,-4.5872,-4.5872,-4.6421,-4.6763,-4.6624,-4.6938,-4.7164,-4.7051,-4.7051,-4.6938,-4.6794,-4.6794,-4.6598,-4.6117,-4.574,-4.5476,-4.5326,-4.4884,-4.4732,-4.4732,-4.4614,-4.4496,-4.4378,-4.4378,-4.4319,-4.426,-4.426,-4.42,-4.4022,-4.3055,-4.273,-4.261,-4.1736,-4.1652,-4.2117,-4.2888,-4.2563,-4.1873,-4.1691,-4.1385,-4.0994,-4.0994,-4.0708,-4.0358,-4.0358,-4.0358,-3.9897,-3.7944,-3.7461,-3.6956,-3.5003,-3.4724,-3.4724,-3.3944,-3.389,-3.3836,-3.3142,-3.2978,-3.3022,-3.3175,-3.337,-3.3905,-3.4986,-3.5495,-3.5916,-3.6669,-3.6324,-3.6415,-3.7509,-3.6576,-3.6098,-3.6466,-3.6872,-3.7334,-3.7672,-3.8027,-3.8338,-3.8671,-3.7655,-3.7151,-3.7151,-3.6394,-3.5927,-3.5927,-3.5615,-3.5458,-3.5475,-3.6039,-3.6659,-3.9168,-4.0065,-4.1317,-4.0831,-4.1407,-4.2018,-4.2079,-4.2094,-4.2131,-4.22,-4.22,-4.2661,-4.4186,-4.4421,-4.4879,-4.6242,-4.6497,-4.6325,-4.593,-4.593,-4.593,-4.593,-4.593,-4.593,-4.5962,-4.7608,-4.8524,-4.8141,-4.9153,-4.9638,-4.9423,-4.9423,-4.9369,-4.9369,-4.9369,-4.9369,-4.9369,-4.8252,-4.7698,-4.7642,-4.651,-4.5987,-4.5987,-4.5699,-4.5409,-4.501,-4.501,-4.4859,-4.459,-4.459,-4.4437,-4.4165,-4.4165,-4.4165,-4.4165,-4.4165,-4.4908,-4.5814,-4.5608,-4.5492,-4.5433,-4.5035,-4.4105,-4.3021,-4.3021,-4.214,-4.1122,-4.1122,-4.1122,-4.0675,-3.8789,-3.8252,-3.7737,-3.579,-3.5297,-3.5275,-3.5275,-3.5275,-3.5222,-3.5222,-3.5222,-3.4852,-3.3707,-3.4051,-3.4343,-3.4097,-3.4506,-3.4902,-3.4846,-3.5672,-3.6605,-3.7599,-3.6744,-3.6452,-3.7435,-3.7241,-3.7504,-3.8484,-3.9283,-4.0144,-4.1039,-3.9638,-3.8842,-3.8842,-3.7228,-3.6429,-3.6429,-3.6351,-3.6351,-3.6368,-3.6615,-3.6714,-3.9958,-4.1138,-4.2048,-4.2818,-4.2841,-4.3141,-4.4738,-4.5063,-4.541,-4.6548,-4.6774,-4.6913,-4.7307,-4.7,-4.6831,-4.722,-4.6958,-4.6725,-4.6586,-4.6586,-4.6586,-4.6586,-4.6586,-4.7215,-4.8828,-4.945,-4.9745,-4.9851,-5.0011,-5.0117,-5.0222,-5.0037,-4.9852,-4.9638,-4.9638,-4.9584,-4.9369,-4.9045,-4.8882,-4.8882,-4.8555,-4.8417,-4.8417,-4.8362,-4.8226,-4.8115,-4.7251,-4.68,-4.6712,-4.5847,-4.5467,-4.5409,-4.5409,-4.5409,-4.5409,-4.5409,-4.5583,-4.5872,-4.5814,-4.5757,-4.5757,-4.5641,-4.5384,-4.5069,-4.4859,-4.4541,-4.4188,-4.3891,-4.3808,-4.3558,-4.2223,-4.1374,-4.0522,-3.9366,-3.8482,-3.7702,-3.7145,-3.6991,-3.6786,-3.5905,-3.5748,-3.5643,-3.5305,-3.5433,-3.5334,-3.4679,-3.5883,-3.67,-3.6141,-3.6891,-3.7603,-3.8075,-3.7812,-3.7803,-3.8065,-3.8782,-3.9591,-4.0519,-4.1092,-4.1796,-4.2805,-4.192,-4.14,-4.14,-3.9449,-3.8461,-3.8461,-3.7074,-3.6351,-3.6351,-3.6401,-3.6699,-4.1829,-4.3349,-4.4187,-4.4732,-4.5087,-4.5608,-4.6605,-4.7026,-4.7475,-4.8414,-4.8606,-4.8606,-4.8606,-4.8304,-4.8002,-4.8002,-4.7776,-4.769,-4.8028,-4.8083,-4.8138,-4.8362,-4.8472,-4.9045,-5.0354,-5.0958,-5.127,-5.142,-5.1732,-5.2016,-5.214,-5.1987,-5.1863,-5.1709,-5.1681,-5.1658,-5.1476,-5.101,-5.0722,-5.0722,-5.0249,-4.9984,-4.9878,-4.9771,-4.9611,-4.9477,-4.8664,-4.8362,-4.8252,-4.7108,-4.6624,-4.6567,-4.6077,-4.5872,-4.593,-4.616,-4.6275,-4.6275,-4.6185,-4.6127,-4.607,-4.593,-4.5872,-4.5872,-4.5699,-4.5641,-4.5583,-4.5384,-4.5326,-4.508,-4.3998,-4.3316,-4.2508,-4.1111,-4.0245,-3.9526,-3.8582,-3.8335,-3.8184,-3.7451,-3.735,-3.7196,-3.6786,-3.6889,-3.7043,-3.7122,-3.8109,-3.8559,-3.7804,-3.797,-3.8059,-3.79,-3.8026,-3.8176,-3.8306,-3.8943,-3.9677,-4.0621,-4.1676,-4.273,-4.3711,-4.3546,-4.3359,-4.3359,-4.1529,-4.054,-4.054,-3.9392,-3.8516,-3.7845,-3.7673,-3.7828,-4.4138,-4.5755,-4.6468,-4.6347,-4.7376,-4.8338,0.0,-4.8304,-4.8715,-4.877,-4.877,-4.877,-4.877,-4.8715,-4.8742,-4.8742,-4.8661,-4.8853,-4.9665,-4.9745,-5.009,-5.0927,-5.1214,-5.1368,-5.1317,-5.2291,-5.2871,-5.2921,-5.3845,-5.4466,-5.4436,-5.4466,-5.4418,-5.4418,-5.4418,-5.4418,-5.4418,-5.3375,-5.2871,-5.2821,-5.1806,-5.1214,-5.0955,-5.0719,-5.0485,-5.0276,-5.0011,-4.9852,-4.9638,-4.85,-4.8031,-4.7865,-4.6681,-4.625,-4.6364,-4.6958,-4.7128,-4.6984,-4.67,-4.6611,-4.6529,-4.6102,-4.5987,-4.5987,-4.593,-4.593,-4.593,-4.5872,-4.5872,-4.5648,-4.4734,-4.4386,-4.3843,-4.19,-4.1226,-4.0801,-3.9778,-3.9478,-3.9379,-3.9379,-3.9379,-3.9107,-3.8234,-3.8435,-3.9181,-4.0375,-4.0593,-4.0279,-3.9475,-3.9008,-3.8385,-3.7628,-3.7836,-3.815,-3.8391,-3.8368,-3.8712,-3.967,-4.1418,-4.2935,-4.4117,-4.4502,-4.4743,-4.4778,-4.3267,-4.2483,-4.2605,-4.2437,-4.1623,-4.0147,-3.9581,-3.9581,0.0,0.0,0.0,0.0,0.0,0.0,0.0,-4.9286,-4.9476,-4.9907,-5.0013,-5.0013,-5.0013,-4.9692,-4.9395,-4.9395,-4.8961,-4.8853,-4.9665,-4.9745,-5.0826,-5.366,-5.4029,-5.3962,-5.3796,-5.3972,-5.4166,-5.4377,-5.4407,-5.4532,-5.4771,-5.4532,-5.4418,-5.4418,-5.4418,-5.4418,-5.4418,-5.4195,-5.4069,-5.4069,-5.3845,-5.3748,-5.3699,-5.3601,-5.3601,-5.3502,-5.3502,-5.29,-5.1936,-5.0747,-5.0274,-5.0169,-4.8882,-4.861,-4.9045,-4.9126,-4.8772,-4.8165,-4.7582,-4.7389,-4.7302,-4.6845,-4.6643,-4.6586,-4.6382,-4.6325,-4.63,-4.5987,-4.5872,-4.5822,-4.5598,-4.4933,-4.4242,-4.4066,-4.2611,-4.1307,-4.1334,-4.0625,-4.0041,-4.0041,-4.0041,-4.009,-4.021,-4.0281,-4.0571,-4.1239,-4.1381,-4.1097,-4.0327,-4.0134,-3.9745,-3.8983,-3.8982,-3.9028,-3.9046,-3.8777,-3.8981,-3.9876,-4.1092,-4.2515,-4.4072,-4.4408,-4.4785,-4.5353,-4.3803,-4.3385,-4.4255,-4.2972,-4.2216,-4.1866,-4.0428,-4.0503,0.0,0.0,0.0,0.0,0.0,0.0,0.0,0.0,0.0,0.0,0.0,-5.0333,-5.0333,0.0,-4.9961,-4.9961,-5.0013,-5.0331,-5.1114,-5.1579,-5.27,-5.4742,-5.5009,-5.4961,-5.4849,-5.4849,-5.4961,-5.5278,-5.5185,-5.5278,-5.5651,-5.5325,-5.512,-5.512,-5.4914,-5.5026,-5.5481,-5.5481,-5.5481,-5.5481,-5.5481,-5.5185,-5.4628,-5.4628,-5.4532,-5.4418,-5.4418,-5.4069,-5.3522,-5.295,-5.2342,-5.1755,-5.1214,-5.1162,-5.1317,-5.0617,-4.9852,-4.9153,-4.88,-4.8417,-4.8083,-4.7776,-4.7746,-4.769,-4.7578,-4.7522,-4.7466,-4.7271,-4.6964,-4.6851,-4.7159,-4.6612,-4.5914,-4.5844,-4.4946,-4.3862,-4.2878,-4.2228,-4.1706,-4.1062,-4.0884,-4.098,-4.117,-4.1407,-4.1784,-4.227,-4.2363,-4.2224,-4.1825,-4.1543,-4.1118,-4.0301,-4.0011,-3.9696,-3.9279,-3.9126,-3.9193,-3.9606,-4.1026,-4.228,-4.3111,-4.4189,-4.4959,-4.5279,-4.4361,-4.4174,-4.4885,-4.4249,-4.359,-4.2976,-4.1665,-4.1777,0.0,0.0,0.0,0.0,0.0,0.0,0.0,0.0,0.0,0.0,0.0,0.0,0.0,0.0,0.0,-5.0597,-5.1093,-5.1789,-5.2571,-5.3572,-5.4444,-5.4775,-5.5142,-5.5338,-5.5338,-5.5432,-5.5588,-5.5927,-5.6079,-5.6321,-5.6711,-5.6456,-5.6291,-5.6291,-5.5988,-5.6185,-5.6929,-5.6929,-5.6929,-5.6929,-5.6929,0.0,-5.5342,-5.5248,-5.4996,-5.4676,-5.458,-5.461,-5.461,-5.461,-5.3991,-5.3169,-5.3386,-5.3484,-5.3337,-5.201,-5.0931,-5.0064,-4.9958,-4.9423,-4.8797,-4.8661,-4.8606,-4.8606,-4.8606,-4.8606,0.0,-4.8606,-4.8194,-4.7946,-4.8441,-4.8194,-4.7712,-4.7313,-4.6997,-4.6337,-4.4592,-4.4037,-4.3587,-4.2513,-4.2144,-4.1986,-4.2054,-4.2712,-4.3353,-4.3688,-4.3588,-4.346,-4.3349,-4.2868,-4.227,-4.1658,-4.1187,-4.0711,-4.006,-3.9817,-3.9802,-3.9973,-4.1487,-4.2502,-4.2837,-4.4457,-4.5284,-4.5194,-4.487,-4.4832,-4.5103,-4.528,-4.4894,-4.3985,-4.3156,-4.3132,0.0,0.0,0.0,0.0,0.0,0.0,0.0,0.0,0.0,0.0,0.0,0.0,0.0,0.0,0.0,0.0,-5.148,-5.1789,-5.2571,-5.4088,-5.4685,-5.3612,-5.4819,-5.5743,-5.5743,-5.6155,-5.6458,-5.6473,-5.7004,-5.7379,-5.7422,-5.7904,0.0,0.0,0.0,-5.8168,-5.8325,-5.8325,-5.8325,-5.8325,-5.8325,-5.7947,-5.7205,-5.6752,-5.62,-5.5604,-5.5291,-5.5103,-5.5103,-5.5103,-5.5009,-5.4914,-5.4932,-5.4961,-5.4837,-5.3991,-5.265,-5.1246,-5.0777,0.0,0.0,-4.8797,-4.8606,-4.8606,-4.8606,-4.8606,-4.8606,-4.8606,-4.8551,-4.8496,-4.8551,-4.8551,-4.8469,-4.8447,-4.7631,-4.676,-4.6522,-4.5755,-4.5041,-4.4909,-4.4037,-4.342,-4.3776,-4.5249,-4.6184,-4.5787,-4.5175,-4.453,-4.4032,-4.3457,-4.3032,-4.2913,-4.2868,0.0,-4.2731,-4.1851,-4.1662,-4.2511,-4.2722,-4.3623,-4.522,-4.5856,-4.5946,-4.5422,-4.5383,-4.5292,-4.5103,-4.5151,-4.5088,-4.4934,-4.4821,-4.4624,0.0,0.0,0.0,0.0,0.0,0.0,0.0,0.0,0.0,0.0,0.0,0.0,0.0,0.0,0.0,0.0,-5.265,-5.3078,-5.3424,-5.3805,-5.3943,-5.3614,-5.3551,-5.3621,-5.3853,-5.5061,-5.6042,-5.6297,-5.7736,-5.8647,-5.8893,-5.8934,-5.8934,-5.8934,-5.8656,-5.878,-5.9298,-5.9298,-5.9298,-5.9298,-5.9298,-5.8861,-5.8073,-5.7477,-5.7074,-5.6752,-5.6246,-5.6003,-5.5957,-5.5681,-5.5511,-5.5511,0.0,0.0,0.0,0.0,-5.4107,-5.3337,-5.3406,-5.2543,-5.1325,-5.1038,-5.0437,-4.9853,-4.9853,-4.9746,-4.9638,-4.9638,-4.9395,-4.926,-4.9531,-4.9395,-4.926,-4.9531,-4.9234,-4.8669,-4.8047,-4.7535,-4.6996,-4.6295,-4.5783,0.0,-4.6544,-4.6793,-4.6738,-4.6555,-4.6232,-4.5944,-4.5755,-4.5463,-4.5301,-4.5301,-4.5301,-4.5301,-4.5301,-4.4891,0.0,0.0,0.0,-4.5447,-4.622,-4.6409,0.0,0.0,0.0,-4.5603,-4.4971,-4.5238,0.0,0.0,-4.5154,-4.4955,0.0,0.0,0.0,0.0,0.0,0.0,0.0,0.0,0.0,0.0,0.0,0.0,0.0,0.0,0.0,0.0,-5.3048,-5.3442,-5.3468,-5.3634,-5.3765,-5.3774,-5.3078,-5.273,-5.3089,-5.4357,-5.5409,-5.5991,-5.7549,-5.8598,-5.8866,-5.879,-5.8784,-5.8784,-5.841,-5.8689,-5.9825,-5.9825,-5.9989,-6.0383,-6.0383,-5.9964,-5.9145,-5.8501,-5.8073,-5.7723,-5.7123,-5.6742,-5.6518,-5.6155,-5.5988,-5.5927,-5.5198,-5.4894,-5.4849,-5.4548,-5.426,-5.4063,-5.42,-5.3215,-5.1925,-5.1925,-5.1317,-5.0547,-5.0547,-5.022,-4.9997,-5.0301,-5.0075,-4.9898,-5.062,-5.0597,-5.0519,-5.0885,-5.0989,-5.0688,-4.9626,-4.9382,-4.9083,-4.8003,-4.7989,-4.8464,-4.9522,-4.8818,-4.8199,-4.8425,-4.8272,-4.8063,-4.7777,-4.7605,-4.7391,-4.7077,-4.7077,-4.7077,-4.7077,-4.7077,-4.7147,-4.7389,-4.7391,-4.7527,-4.7897,-4.7868,-4.7894,-4.7783,-4.7169,-4.6377,0.0,0.0,0.0,0.0,0.0,0.0,0.0,0.0,0.0,0.0,0.0,0.0,0.0,0.0,0.0,0.0,0.0,0.0,0.0,0.0,0.0,0.0,0.0,0.0,-5.1967,-5.3795,-5.4699,-5.3585,-5.3986,-5.4423,-5.471,-5.4684,-5.49,-5.5562,-5.6111,-5.6466,-5.6466,-5.7085,-5.7423,-5.7423,-5.7389,-5.8126,-5.9667,-5.9667,-6.0371,-6.1778,-6.1778,-6.1385,-6.0758,-6.0208,-5.9346,-5.8253,-5.7723,-5.7136,-5.6563,-5.6518,-5.6548,-5.6272,-5.3635,-5.2592,-5.2592,-5.255,-5.255,-5.2466,-5.1725,-5.0852,-5.0052,-5.0052,-5.0007,-4.9962,-4.9962,-4.9458,-4.9077,-5.0218,-5.0353,-5.0397,-5.1558,-5.2219,-5.2571,-5.2621,-5.2621,-5.242,-5.1579,-5.1424,-5.1166,-5.0382,-5.0878,-5.1625,-5.2414,-5.188,-5.1658,-5.2367,-5.1958,0.0,-5.0151,-4.9475,-4.8717,-4.7709,-4.764,-4.764,-4.764,-4.764,-4.8091,-4.9213,-4.9296,-4.9822,-5.0909,-5.0992,-5.0887,-5.0597,-4.926,-4.7891,-4.6579,0.0,0.0,0.0,0.0,0.0,0.0,0.0,0.0,0.0,0.0,0.0,0.0,0.0,0.0,0.0,0.0,0.0,0.0,0.0,0.0,0.0,0.0,0.0,0.0,-5.2766,-5.3874,-5.5135,-5.4695,-5.4705,-5.5761,-5.5905,-5.612,-5.6576,-5.6884,-5.702,-5.702,-5.7222,-5.7356,-5.7356,-5.7356,-5.7624,-5.8127,-5.8127,-5.8361,-5.8864,-5.8864,-5.8761,-5.8521,-5.7532,-5.6903,-5.6479,-5.5498,-5.4993,-5.4705,-5.4486,-5.4527,-5.4642,-5.3462,-5.3028,-5.2956,-5.2625,-5.2709,-5.2956,-5.2678,-5.2575,-5.24,-5.1697,-5.0966,-5.0335,-5.0335,-4.9993,-4.9645,-5.0052,-4.9933,-4.9731,-5.0162,-5.0181,-5.0362,-5.1192,-5.1392,-5.1543,-5.2149,-5.2269,-5.2219,-5.1914,-5.1122,-5.0847,-5.2078,-5.2109,-5.2302,-5.3551,-5.3515,-5.3244,-5.2879,-5.2679,-5.2109,-5.1097,-5.0949,-5.0679,-5.0002,-4.9928,-5.0095,-5.0511,-5.0539,-5.0733,-5.1121,-5.1149,-5.1097,-5.0992,-5.0333,-4.988,-4.9611,0.0,0.0,0.0,0.0,0.0,0.0,0.0,0.0,0.0,0.0,0.0,0.0,0.0,0.0,0.0,0.0,0.0,0.0,0.0,0.0,0.0,0.0,0.0,0.0,0.0,0.0,-5.469,-5.4483,0.0,-5.6228,-5.661,-5.6986,-5.7388,-5.7652,-5.7514,-5.6974,-5.6845,-5.6511,-5.5975,-5.5878,-5.6048,-5.6585,-5.6585,-5.6853,-5.7356,-5.7356,-5.7356,-5.7322,-5.6541,-5.6084,-5.5801,-5.5067,-5.4493,-5.4034,-5.2984,-5.2763,-5.3138,-5.2876,-5.2794,-5.2687,-5.2157,-5.2072,-5.2251,-5.2087,-5.2205,-5.2258,-5.16,-5.0886,-5.0268,-5.0268,-4.9844,-4.9493,-4.9927,-4.9802,-4.9598,-4.9919,-4.9975,-5.0073,-5.078,-5.0936,-5.1093,-5.1589,-5.1811,-5.2003,-5.2319,-5.1333,-5.0838,-5.1997,-5.2012,-5.2309,-5.3674,-5.4306,-5.4531,-5.4346,-5.4765,-5.4658,-5.3631,-5.3533,-5.3239,-5.2571,-5.2145,-5.197,-5.197,-5.1639,-5.1461,-5.1461,-5.1461,-5.1381,-5.1277,-5.1121,-5.1069,0.0,0.0,0.0,0.0,0.0,0.0,0.0,0.0,0.0,0.0,0.0,0.0,0.0,0.0,0.0,0.0,0.0,0.0,0.0,0.0,0.0,0.0,0.0,0.0,0.0,0.0,0.0,-5.2452,-5.3492,0.0,0.0,0.0,0.0,-5.8045,-5.8328,-5.7866,-5.6363,-5.6058,-5.5231,-5.3748,-5.338,-5.3867,-5.5242,-5.5143,-5.578,-5.7154,-5.7154,-5.7154,-5.7154,-5.7088,-5.6753,-5.6171,-5.6136,-5.5464,-5.4306,-5.2379,-5.1816,-5.2114,-5.2114,-5.2114,-5.2015,-5.1381,-5.097,-5.0617,-5.0075,-4.9861,-4.9762,-4.9699,-4.9631,-4.9631,-4.9568,-4.8926,0.0,0.0,-4.9929,-4.9867,-5.0792,-5.1385,-5.166,-5.1289,-5.1232,-5.1057,-5.023,-5.0305,-5.0836,-5.1587,-5.1453,-5.1509,-5.2305,0.0,-5.177,-5.312,-5.4373,-5.4982,-5.4451,-5.562,-5.6031,-5.5041,-5.4872,-5.4902,-5.4855,-5.3909,-5.3378,-5.3378,-5.2557,-5.206,-5.206,-5.2117,-5.1965,-5.1574,-5.163,0.0,0.0,0.0,0.0,0.0,0.0,0.0,0.0,0.0,0.0,0.0,0.0,0.0,0.0,0.0,0.0,0.0,0.0,0.0,0.0,0.0,0.0,0.0,0.0,0.0,0.0,-4.7352,-4.9379,-5.2573,-5.3434,-5.5153,0.0,0.0,0.0,0.0,0.0,0.0,-5.7935,-5.7873,-5.7641,-5.7232,-5.5837,-5.5247,-5.5618,-5.4294,-5.3802,-5.4137,-5.4137,-5.4137,-5.4137,-5.3657,-5.3332,-5.3167,-5.2767,-5.2427,-5.2349,-5.4376,-5.5036,-5.4788,-5.4788,-5.4788,-5.4788,-5.4613,-5.382,-5.2768,-5.2165,-5.124,-5.0082,-4.8645,-4.8157,-4.7968,-4.7027,0.0,0.0,0.0,0.0,-4.8049,-4.9361,-4.9574,-4.9572,-5.0159,-5.0306,-5.0421,-5.0864,-5.1292,-5.1206,-5.0122,-5.0041,-5.0544,-5.183,-5.1907,0.0,-5.3791,-5.412,-5.4237,-5.4406,-5.4663,-5.4485,-5.3498,-5.3425,-5.3158,-5.2497,-5.2159,-5.2012,-5.2012,-5.1789,-5.1594,-5.1397,-5.2588,-5.3046,-5.255,0.0,0.0,0.0,0.0,0.0,0.0,0.0,0.0,0.0,0.0,0.0,0.0,0.0,0.0,0.0,0.0,0.0,0.0,0.0,0.0,0.0,0.0,0.0,0.0,0.0,0.0,0.0,-4.6063,-4.8403,-5.0732,-5.2199,-5.4157,0.0,0.0,0.0,0.0,0.0,0.0,0.0,0.0,0.0,-5.6742,-5.6205,-5.5952,-5.5952,-5.5449,-5.5161,-5.5161,-5.5037,-5.4942,-5.4942,-5.4586,-5.439,-5.439,-5.4093,-5.3299,-5.2404,-5.4257,-5.4988,-5.4921,0.0,0.0,0.0,0.0,-5.3395,-5.1947,-5.1373,-5.0197,-4.8808,-4.7575,0.0,0.0,0.0,0.0,0.0,0.0,0.0,-4.6577,-4.7003,-4.7506,-4.7967,-4.8116,-4.8754,-4.9513,-5.0029,-4.9473,-4.8514,-4.7499,-4.8122,-4.9069,-4.9888,-5.0591,0.0,0.0,0.0,-5.3219,-5.3486,-5.3982,-5.4129,-5.3609,-5.3569,-5.3338,-5.2812,-5.2369,-5.2119,-5.2119,-5.1727,-5.1428,-5.1329,-5.2812,-5.3507,0.0,0.0,0.0,0.0,0.0,0.0,0.0,0.0,0.0,0.0,0.0,0.0,0.0,0.0,0.0,0.0,0.0,0.0,0.0,0.0,0.0,0.0,0.0,0.0,0.0,0.0,0.0,0.0,0.0,-4.7146,-4.8311,0.0,0.0,0.0,0.0,0.0,0.0,0.0,0.0,0.0,0.0,0.0,0.0,0.0,-5.632,-5.6525,-5.7112,-5.7397,-5.7397,-5.7046,-5.6883,-5.6883,-5.6883,-5.6851,-5.6851,-5.6786,0.0,-5.3358,-5.3154,0.0,0.0,0.0,0.0,0.0,0.0,0.0,0.0,0.0,0.0,0.0,0.0,0.0,0.0,0.0,0.0,0.0,0.0,0.0,0.0,0.0,0.0,-4.6589,-4.5931,-4.6929,-4.8083,-4.8197,-4.6533,-4.4998,-4.4998,-4.6279,-4.7436,0.0,0.0,0.0,0.0,0.0,0.0,-5.2096,-5.318,-5.3944,-5.3982,-5.3982,-5.3982,-5.3982,-5.3153,-5.2616,-5.2616,-5.1888,-5.1524,-5.1665,-5.3103,0.0,0.0,0.0,0.0,0.0,0.0,0.0,0.0,0.0,0.0,0.0,0.0,0.0,0.0,0.0,0.0,0.0,0.0,0.0,0.0,0.0,0.0,0.0,0.0,0.0,0.0,0.0,0.0,0.0,0.0,0.0,0.0,0.0,0.0,0.0,0.0,0.0,0.0,0.0,0.0,0.0,0.0,0.0,0.0,0.0,0.0,0.0,0.0,0.0,0.0,-5.4485,-5.4456,-5.4456,-5.4456,-5.4337,-5.4135,-5.3893,-5.3532,-5.3123,-5.3096,0.0,0.0,0.0,0.0,0.0,0.0,0.0,0.0,0.0,0.0,0.0,0.0,0.0,0.0,0.0,0.0,0.0,0.0,0.0,0.0,0.0,0.0,-4.5371,-4.513,-4.5139,-4.5395,-4.6057,0.0,0.0,0.0,0.0,0.0,0.0,0.0,0.0,0.0,0.0,0.0,-5.1114,-5.1203,-5.1292,-5.1534,-5.1502,-5.1502,-5.1502,-5.136,-5.1256,-5.1256,-5.1228,-5.1564,0.0,0.0,0.0,0.0,0.0,0.0,0.0,0.0,0.0,0.0,0.0,0.0,0.0,0.0,0.0,0.0,0.0,0.0,0.0,0.0,0.0,0.0,0.0,0.0,0.0,0.0,0.0,0.0,0.0,0.0,0.0,0.0,0.0,0.0,0.0,0.0,0.0,0.0,0.0,0.0,0.0,0.0,0.0,0.0,0.0,0.0,0.0,0.0,0.0,0.0,0.0,0.0,0.0,0.0,0.0,0.0,0.0,0.0,-5.1958,-5.0947,0.0,0.0,0.0,0.0,0.0,0.0,0.0,0.0,0.0,0.0,0.0,0.0,0.0,0.0,0.0,0.0,0.0,0.0,0.0,0.0,0.0,0.0,0.0,0.0,0.0,0.0,0.0,0.0,0.0,0.0,0.0,0.0,0.0,0.0,0.0,0.0,0.0,0.0,0.0,0.0,-5.135,-5.1318,-5.1318,-5.1418,-5.1752,-5.1982,-5.2046,-5.2046,-5.2078,-5.211,-5.2173,0.0,0.0,0.0,0.0,0.0,0.0,0.0,0.0,0.0,0.0,0.0,0.0,0.0,0.0,0.0,0.0,0.0,0.0,0.0,0.0,0.0,0.0,0.0,0.0,0.0,0.0,0.0,0.0,0.0,0.0,0.0,0.0,0.0,0.0,0.0,0.0,0.0,0.0,0.0,0.0,0.0,0.0,0.0,0.0,0.0,0.0,0.0,0.0,0.0,0.0,0.0,0.0,0.0,0.0,0.0,0.0,0.0,0.0,0.0,-4.9414,-4.8009,0.0,0.0,0.0,0.0,0.0,0.0,0.0,0.0,0.0,0.0,0.0,0.0,0.0,0.0,0.0,0.0,0.0,0.0,0.0,0.0,0.0,0.0,0.0,0.0,0.0,0.0,0.0,0.0,0.0,0.0,0.0,0.0,0.0,0.0,0.0,0.0,0.0,0.0,0.0,0.0,-5.1981,-5.2111,-5.2111,-5.2111,-5.2556,-5.2928,-5.3013,-5.3073,-5.31,-5.3223,-5.3279,0.0,0.0,0.0,0.0,0.0,0.0,0.0,0.0,0.0,0.0,0.0,0.0,0.0,0.0,0.0,0.0,0.0,0.0,0.0,0.0,0.0,0.0,0.0,0.0,0.0,0.0,0.0,0.0,0.0,0.0,0.0,0.0,0.0,0.0,0.0,0.0,0.0,0.0,0.0,0.0,0.0,0.0,0.0,0.0,0.0,0.0,0.0,0.0,0.0,0.0,0.0,0.0,0.0,0.0,0.0,0.0,0.0,0.0,0.0,0.0,0.0,0.0,0.0,0.0,0.0,0.0,0.0,0.0,0.0,0.0,0.0,0.0,0.0,0.0,0.0,0.0,0.0,0.0,0.0,0.0,0.0,0.0,0.0,0.0,0.0,0.0,0.0,0.0,0.0,0.0,0.0,0.0,0.0,0.0,0.0,0.0,0.0,0.0,0.0,0.0,0.0,-5.2514,-5.2774,-5.2774,-5.2774,-5.2836,-5.2866,-5.2897,-5.3016,-5.307,-5.3103,0.0,0.0,0.0,0.0,0.0,0.0,0.0,0.0,0.0,0.0,0.0,0.0,0.0,0.0,0.0,0.0,0.0,0.0,0.0,0.0,0.0,0.0,0.0,0.0,0.0,0.0,0.0,0.0,0.0,0.0,0.0,0.0,0.0,0.0,0.0,0.0,0.0,0.0,0.0,0.0,0.0,0.0,0.0,0.0,0.0,0.0,0.0,0.0,0.0,0.0,0.0,0.0,0.0,0.0,0.0,0.0,0.0,0.0,0.0,0.0,0.0,0.0,0.0,0.0,0.0,0.0,0.0,0.0,0.0,0.0,0.0,0.0,0.0,0.0,0.0,0.0,0.0,0.0,0.0,0.0,0.0,0.0,0.0,0.0,0.0,0.0,0.0,0.0,0.0,0.0,0.0,0.0,0.0,0.0,0.0,0.0,0.0,0.0,0.0,0.0,0.0,0.0,-5.3147,-5.3469,-5.3498,-5.3586,-5.3932,-5.4214,-5.4372,-5.4454,-5.45,-5.4589,0.0,0.0,0.0,0.0,0.0,0.0,0.0,0.0,0.0,0.0,0.0,0.0,0.0,0.0,0.0,0.0,0.0,0.0,0.0,0.0,0.0,0.0,0.0,0.0,0.0,0.0,0.0,0.0,0.0,0.0,0.0,0.0,0.0,0.0,0.0,0.0,0.0,0.0,0.0,0.0,0.0,0.0,0.0,0.0,0.0,0.0,0.0,0.0,0.0,0.0,0.0,0.0,0.0,0.0,0.0,0.0,0.0,0.0,0.0,0.0,0.0,0.0,0.0,0.0,0.0,0.0,0.0,0.0,0.0,0.0,0.0,0.0,0.0,0.0,0.0,0.0,0.0,0.0,0.0,0.0,0.0,0.0,0.0,0.0,0.0,0.0,0.0,0.0,0.0,0.0,0.0,0.0,0.0,0.0,0.0,0.0,0.0,0.0,0.0,0.0,0.0,0.0,-5.3099,-5.3883,-5.4214,-5.4297,-5.4765,-5.514,-5.5344,-5.5359,-5.5469,-5.5569,0.0,0.0,0.0,0.0,0.0,0.0,0.0,0.0,0.0,0.0,0.0,0.0,0.0,0.0,0.0,0.0,0.0,0.0,0.0,0.0,0.0,0.0,0.0,0.0,0.0,0.0,0.0,0.0,0.0,0.0,0.0,0.0,0.0,0.0,0.0,0.0,0.0,0.0,0.0,0.0,0.0,0.0,0.0,0.0,0.0,0.0,0.0,0.0,0.0,0.0,0.0,0.0,0.0,0.0,0.0,0.0,0.0,0.0,0.0,0.0,0.0,0.0,0.0,0.0,0.0,0.0,0.0,0.0,0.0,0.0,0.0,0.0,0.0,0.0,0.0,0.0,0.0,0.0,0.0,0.0,0.0,0.0,0.0,0.0,0.0,0.0,0.0,0.0,0.0,0.0,0.0,0.0,0.0,0.0,0.0,0.0,0.0,0.0,0.0,0.0,0.0,0.0,-5.2166,-5.3958,-5.501,-5.501,-5.5114,-5.5226,-5.5226,-5.5344,-5.5469,0.0,0.0,0.0,0.0,0.0,0.0,0.0,0.0,0.0,0.0,0.0,0.0,0.0,0.0,0.0,0.0,0.0,0.0,0.0,0.0,0.0,0.0,0.0,0.0,0.0,0.0,0.0,0.0,0.0,0.0,0.0,0.0,0.0,0.0,0.0,0.0,0.0,0.0,0.0,0.0,0.0,0.0,0.0,0.0,0.0,0.0,0.0,0.0,0.0,0.0,0.0,0.0,0.0,0.0,0.0,0.0,0.0,0.0,0.0,0.0,0.0,0.0,0.0,0.0,0.0,0.0,0.0,0.0,0.0,0.0,0.0,0.0,0.0,0.0,0.0,0.0,0.0,0.0,0.0,0.0,0.0,0.0,0.0,0.0,0.0,0.0,0.0,0.0,0.0,0.0,0.0,0.0,0.0,0.0,0.0,0.0,0.0,0.0,0.0,0.0,0.0,0.0,0.0,-5.2217,-5.3958,-5.5037,-5.5114,-5.5268,-5.5369,-5.5445,-5.5519,-5.5087,-5.408,0.0,0.0,0.0,0.0,0.0,0.0,0.0,0.0,0.0,0.0,0.0,0.0,0.0,0.0,0.0,0.0,0.0,0.0,0.0,0.0,0.0,0.0,0.0,0.0,0.0,0.0,0.0,0.0,0.0,0.0,0.0,0.0,0.0,0.0,0.0,0.0,0.0,0.0,0.0,0.0,0.0,0.0,0.0,0.0,0.0,0.0,0.0,0.0,0.0,0.0,0.0,0.0,0.0,0.0,0.0,0.0,0.0,0.0,0.0,0.0,0.0,0.0,0.0,0.0,0.0,0.0,0.0,0.0,0.0,0.0,0.0,0.0,0.0,0.0,0.0,0.0,0.0,0.0,0.0,0.0,0.0,0.0,0.0,0.0,0.0,0.0,0.0,0.0,0.0,0.0,0.0,0.0,0.0,0.0,0.0,0.0,0.0,0.0,0.0,0.0,0.0,0.0,0.0,-5.314,-5.4477,-5.5122,-5.5533,-5.58,-5.5907,-5.5907,-5.5269,-5.384,0.0,0.0,0.0,0.0,0.0,0.0,0.0,0.0,0.0,0.0,0.0,0.0,0.0,0.0,0.0,0.0,0.0,0.0,0.0,0.0,0.0,0.0,0.0,0.0,0.0,0.0,0.0,0.0,0.0,0.0,0.0,0.0,0.0,0.0,0.0,0.0,0.0,0.0,0.0,0.0,0.0,0.0,0.0,0.0,0.0,0.0,0.0,0.0,0.0,0.0,0.0,0.0,0.0,0.0,0.0,0.0,0.0,0.0,0.0,0.0,0.0,0.0,0.0,0.0,0.0,0.0,0.0,0.0,0.0,0.0,0.0,0.0,0.0,0.0,0.0,0.0,0.0,0.0,0.0,0.0,0.0,0.0,0.0,0.0,0.0,0.0,0.0,0.0,0.0,0.0,0.0,0.0,0.0,0.0,0.0,0.0,0.0,0.0,0.0,0.0,0.0,0.0,0.0,-5.1682,-5.3425,-5.4928,-5.5848,-5.6341,-5.6221,-5.6221,-5.5664,-5.438,-5.209,0.0,0.0,0.0,0.0,0.0,0.0,0.0,0.0,0.0,0.0,0.0,0.0,0.0,0.0,0.0,0.0,0.0,0.0,0.0,0.0,0.0,0.0,0.0,0.0,0.0,0.0,0.0,0.0,0.0,0.0,0.0,0.0,0.0,0.0,0.0,0.0,0.0,0.0,0.0,0.0,0.0,0.0,0.0,0.0,0.0,0.0,0.0,0.0,0.0,0.0,0.0,0.0,0.0,0.0,0.0,0.0,0.0,0.0,0.0,0.0,0.0,0.0,0.0,0.0,0.0,0.0,0.0,0.0,0.0,0.0,0.0,0.0,0.0,0.0,0.0,0.0,0.0,0.0,0.0,0.0,0.0,0.0,0.0,0.0,0.0,0.0,0.0,0.0,0.0,0.0,0.0,0.0,0.0,0.0,0.0,0.0,0.0,0.0,0.0,0.0,0.0,0.0,-5.0958,-5.3175,-5.394,-5.544,-5.5951,-5.4953,-5.4901,-5.3737,-5.1074,-5.0081,0.0,0.0,0.0,0.0,0.0,0.0,0.0,0.0,0.0,0.0,0.0,0.0,0.0,0.0,0.0,0.0,0.0,0.0,0.0,0.0,0.0,0.0,0.0,0.0,0.0,0.0,0.0,0.0,0.0,0.0,0.0,0.0,0.0,0.0,0.0,0.0,0.0,0.0,0.0,0.0,0.0,0.0,0.0,0.0,0.0,0.0,0.0,0.0,0.0,0.0,0.0,0.0,0.0,0.0,0.0,0.0,0.0,0.0,0.0,0.0,0.0,0.0,0.0,0.0,0.0,0.0,0.0,0.0,0.0,0.0,0.0,0.0,0.0,0.0,0.0,0.0,0.0,0.0,0.0,0.0,0.0,0.0,0.0,0.0,0.0,0.0,0.0,0.0,0.0,0.0,0.0,0.0,0.0,0.0,0.0,0.0,0.0,0.0,0.0,0.0,0.0,0.0,-4.877,-5.1,-5.2355,-5.3642,-5.4178,-5.3679,-5.3644,-5.2681,-5.0445,-4.9263,0.0,0.0,0.0,0.0,0.0,0.0,0.0,0.0,0.0,0.0,0.0,0.0,0.0,0.0,0.0,0.0,0.0,0.0,0.0,0.0,0.0,0.0,0.0,0.0,0.0,0.0,0.0,0.0,0.0,0.0,0.0,0.0,0.0,0.0,0.0,0.0,0.0,0.0,0.0,0.0,0.0,0.0,0.0,0.0,0.0,0.0,0.0,0.0,0.0,0.0,0.0,0.0,0.0,0.0,0.0,0.0,0.0,0.0,0.0,0.0,0.0,0.0,0.0,0.0,0.0,0.0,0.0,0.0,0.0,0.0,0.0,0.0,0.0,0.0,0.0,0.0,0.0,0.0,0.0,0.0,0.0,0.0,0.0,0.0,0.0,0.0,0.0,0.0,0.0,0.0,0.0,0.0,0.0,0.0,0.0,0.0,0.0,0.0,0.0,0.0,0.0,0.0,0.0,-4.8094,-5.0491,-5.159,-5.2231,-5.239,-5.2387,-5.1872,-5.0652,0.0,0.0,0.0,0.0,0.0,0.0,0.0,0.0,0.0,0.0,0.0,0.0,0.0,0.0,0.0,0.0,0.0,0.0,0.0,0.0,0.0,0.0,0.0,0.0,0.0,0.0,0.0,0.0,0.0,0.0,0.0,0.0,0.0,0.0,0.0,0.0,0.0,0.0,0.0,0.0,0.0,0.0,0.0,0.0,0.0,0.0,0.0,0.0,0.0,0.0,0.0,0.0,0.0,0.0,0.0,0.0,0.0,0.0,0.0,0.0,0.0,0.0,0.0,0.0,0.0,0.0,0.0,0.0,0.0,0.0,0.0,0.0,0.0,0.0,0.0,0.0,0.0,0.0,0.0,0.0,0.0,0.0,0.0,0.0,0.0,0.0,0.0,0.0,0.0,0.0,0.0,0.0,0.0,0.0,0.0,0.0,0.0,0.0,0.0,0.0,0.0,0.0,0.0,0.0,-4.6281,-4.8746,-5.1063,-5.2092,-5.1238,-5.1208,-5.0574,-4.9045,0.0,0.0,0.0,0.0,0.0,0.0,0.0,0.0,0.0,0.0,0.0,0.0,0.0,0.0]}],[{"header":{"parameterUnit":"kt","parameterCategory":2,"dx":1,"dy":1,"la1":29.285339999999998,"la2":30.599998999999997,"lo1":-89.70041500000002,"lo2":-87.6738589999976,"nx":112,"ny":82,"refTime":"2022-09-19T18:00:00:Z","depth":0,"parameterNumber":2,"parameterNumberName":"V-component_of_WINDS"},"data":[6.1108,6.0332,5.9592,5.8995,5.8916,5.8623,5.7054,5.6023,5.4936,5.3318,5.1771,5.0736,5.0832,5.0378,4.9936,4.9766,4.9775,4.9657,0.0,4.9917,5.0879,5.2449,5.5457,5.8076,5.9768,6.2459,6.459,6.5792,6.6946,6.7847,6.8404,6.8442,6.8442,6.8442,6.8442,6.8442,6.8442,6.8442,6.8442,6.8442,6.8442,6.8442,6.8442,6.8442,6.8442,6.8442,6.8442,6.8442,6.8442,6.8442,6.8442,6.8442,6.8442,6.8442,6.8442,6.8442,6.8442,6.8452,6.8701,6.8809,6.8886,6.9231,6.9335,6.937,6.9577,6.9655,6.9667,6.9752,6.98,6.98,6.98,6.98,6.98,6.98,6.9778,6.9788,6.9788,6.9845,6.9905,6.9966,6.9973,6.9983,6.996,6.9963,6.9963,6.9963,6.9963,6.9963,6.9963,6.9963,6.9963,6.9963,6.9963,6.9963,6.9963,7.1522,7.3229,7.4901,7.6492,7.8124,7.9796,7.991,7.991,7.991,7.991,7.991,7.991,7.9883,7.9897,7.9905,7.9874,7.9954,6.0423,5.9652,5.8918,5.8965,5.8612,5.7909,5.6372,5.4856,5.3305,5.1716,5.0626,4.9963,4.9961,5.0436,5.0775,5.0644,5.1033,5.1262,0.0,5.1622,5.2819,5.4909,5.8063,6.0664,6.2327,6.4563,6.6125,6.6718,6.78,6.8442,6.8442,6.8442,6.8442,6.8442,6.8442,6.8442,6.8442,6.8442,6.8442,6.8442,6.8442,6.8442,6.8442,6.8442,6.8442,6.8442,6.8442,6.8442,6.8442,6.8442,6.8442,6.8442,6.8442,6.8442,6.8442,6.8442,6.8467,6.8567,6.8742,6.8886,6.9059,6.9428,6.9512,6.9533,6.974,6.98,6.98,6.98,6.98,6.9768,6.9773,6.9773,6.9768,6.9773,6.9788,6.9802,6.9802,6.9862,6.9962,6.9977,6.9983,6.999,6.996,6.9963,6.9963,6.9963,6.9963,6.9963,6.9963,6.9963,6.9963,6.9963,6.9963,6.9963,6.9963,7.1026,7.2356,7.4067,7.5695,7.7289,7.8958,7.9568,7.991,7.991,7.991,7.991,7.991,7.9883,7.9897,7.9905,7.9874,7.9954,5.9134,5.8809,5.8954,5.9066,5.7974,5.6461,5.5014,5.3439,5.1874,5.0413,5.0114,5.0103,5.0114,5.1468,5.2504,5.2369,5.3546,0.0,0.0,5.4065,5.5099,5.8284,6.1423,6.3976,6.5551,6.5855,6.666,6.8312,6.8431,6.8442,6.8442,6.8442,6.8442,6.8442,6.8442,6.8442,6.8442,6.8442,6.8442,6.8442,6.8442,6.8442,6.8442,6.8442,6.8442,6.8442,6.8442,6.8442,6.8442,6.8442,6.8442,6.8442,6.8442,6.8442,6.8442,6.8404,6.8581,6.8809,6.8822,6.907,6.9414,6.9723,6.98,6.98,6.98,6.98,6.98,6.98,6.98,6.9768,6.9793,6.9783,6.9773,6.9798,6.9764,6.9764,6.9764,6.9875,6.998,6.998,6.9993,6.9963,6.9963,6.9963,6.9963,6.9963,6.9963,6.9963,6.9963,6.9963,6.9963,6.9963,6.9963,6.9963,6.9963,6.9963,7.0684,7.2318,7.4067,7.5736,7.7289,7.8996,7.991,7.991,7.991,7.991,7.991,7.9883,7.9897,7.9905,7.9874,7.9954,5.8983,5.9066,5.9327,5.9355,5.9132,5.8475,5.6952,5.6247,5.5449,5.3834,5.3474,0.0,0.0,0.0,5.415,5.3997,0.0,5.4359,5.4112,5.5008,5.7266,6.1529,6.2848,6.4018,6.5686,6.6989,6.7927,6.841,6.8426,6.8442,6.8442,6.8442,6.8442,6.8442,6.8442,6.8442,6.8442,6.8442,6.8442,6.8442,6.8442,6.8442,6.8442,6.8442,6.8442,6.8442,6.8442,6.8442,6.8442,6.8442,6.8442,6.8442,6.8442,6.8442,6.8436,6.8639,6.8742,6.8835,6.902,6.9231,6.9414,6.9723,6.98,6.98,6.98,6.98,6.98,6.98,6.98,6.9768,6.9773,6.9783,6.9793,6.9802,6.9867,6.9924,6.9924,6.9942,6.9996,6.9996,6.996,6.9963,6.9963,6.9963,6.9963,6.9963,6.9963,6.9963,6.9963,6.9963,6.9963,6.9963,6.9963,6.9963,6.9963,6.9963,7.0191,7.0646,7.3419,7.5736,7.7289,7.8996,7.991,7.991,7.991,7.991,7.991,7.9883,7.9897,7.9905,7.9874,7.9954,5.8996,5.9214,5.9463,5.9464,5.9103,5.8449,5.7561,5.6792,5.5997,5.503,0.0,0.0,0.0,0.0,0.0,0.0,5.7111,5.7609,5.8106,5.8845,6.0629,6.4074,6.4519,6.515,6.6766,6.7853,6.8442,6.8442,6.8442,6.8442,6.8442,6.8442,6.8442,6.8442,6.8442,6.8442,6.8442,6.8442,6.8442,6.8442,6.8442,6.8442,6.8442,6.8442,6.8442,6.8442,6.8442,6.8442,6.8442,6.8442,6.8442,6.8442,6.8442,6.8483,6.8596,6.8742,6.8911,6.907,6.9231,6.9395,6.9584,6.974,6.98,6.98,6.98,6.98,6.98,6.98,6.9773,6.9778,6.9778,6.9835,6.9854,6.9854,6.9917,6.9977,6.9977,6.999,6.9963,6.9963,6.9963,6.9963,6.9963,6.9963,6.9963,6.9963,6.9963,6.9963,6.9963,6.9963,6.9963,6.9963,6.9963,6.9963,6.9963,6.9963,6.9963,6.9963,7.1825,7.3646,7.5278,7.7592,7.9189,7.9872,7.991,7.991,7.991,7.9883,7.9897,7.9905,7.991,7.9953,5.9147,5.9313,5.9492,5.9501,5.8559,5.7617,5.7631,0.0,5.5447,5.5631,0.0,5.5689,5.5879,0.0,0.0,5.9781,6.1065,6.2364,6.3698,6.3939,6.4541,6.6176,6.6377,6.6919,6.8293,6.8442,6.8442,6.8442,6.8442,6.8442,6.8442,6.8442,6.8442,6.8442,6.8442,6.8442,6.8442,6.8442,6.8442,6.8442,6.8442,6.8442,6.8442,6.8442,6.8442,6.8442,6.8442,6.8442,6.8442,6.8442,6.8442,6.8442,6.8473,6.8625,6.8861,6.8886,6.9091,6.9391,6.9452,6.9591,6.98,6.98,6.98,6.98,6.98,6.98,6.98,6.98,6.9783,6.9802,6.9802,6.9896,6.9992,6.9992,6.9966,6.998,6.998,6.9993,6.9963,6.9963,6.9963,6.9963,6.9963,6.9963,6.9963,6.9963,6.9963,6.9963,6.9963,6.9963,6.9963,6.9963,6.9963,6.9963,6.9963,6.9963,6.9963,6.9963,6.9963,7.0722,7.2432,7.5468,7.7972,7.9872,7.991,7.991,7.991,7.9883,7.9895,7.9905,7.9907,7.9951,5.9409,5.9523,5.965,5.9768,5.956,5.9368,0.0,0.0,0.0,6.0628,6.0752,6.103,6.2435,6.2775,6.2861,6.3065,6.3322,6.3536,6.3604,6.5857,6.7609,6.7959,6.7996,6.8107,6.8404,6.8442,6.8442,6.8442,6.8442,6.8442,6.8442,6.8442,6.8442,6.8442,6.8442,6.8442,6.8442,6.8442,6.8442,6.8442,6.8442,6.8442,6.8442,6.8442,6.8442,6.8442,6.8442,6.8442,6.8442,6.8442,6.8442,6.842,6.8668,6.8886,6.9134,6.9232,6.9332,6.9444,6.9617,6.9746,6.98,6.98,6.98,6.98,6.98,6.98,6.98,6.98,6.9783,6.9802,6.9802,6.9871,6.9973,6.9973,6.9986,6.9996,6.9996,6.996,6.9963,6.9963,6.9963,6.9963,6.9963,6.9963,6.9963,6.9963,6.9963,6.9963,6.9963,6.9963,6.9963,6.9963,6.9963,6.9963,6.9963,6.9963,6.9963,6.9963,6.9963,7.0722,7.2432,7.4446,7.6874,7.9834,7.991,7.991,7.991,7.9875,7.9888,7.9905,7.9873,7.9953,5.9595,5.9682,5.9786,5.9866,6.0513,0.0,0.0,6.1781,6.2598,6.333,6.3355,6.3493,6.4194,6.4243,6.4364,6.5019,6.5118,6.5325,6.591,6.7386,6.8442,6.8442,6.8442,6.8442,6.8442,6.8442,6.8442,6.8442,6.8442,6.8442,6.8442,6.8442,6.8442,6.8442,6.8442,6.8442,6.8442,6.8442,6.8442,6.8442,6.8442,6.8442,6.8442,6.8442,6.8442,6.8442,6.8442,6.8442,6.8442,6.8442,6.8498,6.8639,6.8899,6.9107,6.9308,6.9358,6.9483,6.9598,6.974,6.98,6.98,6.98,6.98,6.98,6.98,6.98,6.98,6.98,6.9831,6.9854,6.9807,6.9879,6.9986,6.998,6.999,6.9963,6.9963,6.9963,6.9963,6.9963,6.9963,6.9963,6.9963,6.9963,6.9963,6.9963,6.9963,6.9963,6.9963,6.9963,6.9963,6.9963,6.9963,6.9963,6.9963,6.9963,6.9963,6.9963,6.9963,7.0343,7.1215,7.2888,7.4939,7.7406,7.9075,7.991,7.991,7.9878,7.989,7.9905,7.9874,7.9954,5.973,6.0021,6.035,6.0359,6.1648,0.0,6.2875,6.3937,6.4959,6.5033,6.4973,6.4965,6.5055,6.5007,6.5353,6.6522,6.6681,6.7083,6.8287,6.8442,6.8442,6.8442,6.8442,6.8442,6.8442,6.8442,6.8442,6.8442,6.8442,6.8442,6.8442,6.8442,6.8442,6.8442,6.8442,6.8442,6.8442,6.8442,6.8442,6.8442,6.8442,6.8442,6.8442,6.8442,6.8442,6.8442,6.8442,6.8442,6.8442,6.8467,6.8682,6.8947,6.9177,6.9326,6.9475,6.9475,6.9598,6.98,6.98,6.98,6.98,6.98,6.98,6.98,6.98,6.98,6.98,6.98,6.9878,6.9947,6.9854,6.989,6.996,6.9986,6.9993,6.9963,6.9963,6.9963,6.9963,6.9963,6.9963,6.9963,6.9963,6.9963,6.9963,6.9963,6.9963,6.9963,6.9963,6.9963,6.9963,6.9963,6.9963,6.9963,6.9963,6.9963,6.9963,6.9963,6.9963,6.9963,6.9963,7.1597,7.3153,7.4522,7.7747,7.9568,7.991,7.988,7.9895,7.9905,7.9873,7.9953,5.9818,6.095,6.2106,6.2128,6.3389,0.0,6.464,6.4773,6.5262,6.6514,6.6614,6.6794,6.8062,6.8094,6.7999,6.8154,6.8192,6.825,6.8404,6.8442,6.8442,6.8442,6.8442,6.8442,6.8442,6.8442,6.8442,6.8442,6.8442,6.8442,6.8442,6.8442,6.8442,6.8442,6.8442,6.8442,6.8442,6.8442,6.8442,6.8442,6.8442,6.8442,6.8442,6.8442,6.8442,6.8442,6.8442,6.8442,6.8457,6.8682,6.8969,6.9332,6.9349,6.9542,6.9746,6.9746,6.9752,6.98,6.98,6.98,6.98,6.98,6.98,6.98,6.98,6.98,6.98,6.98,6.9878,6.9988,6.9947,6.9977,6.9963,6.996,6.9963,6.9963,6.9963,6.9963,6.9963,6.9963,6.9963,6.9963,6.9963,6.9963,6.9963,6.9963,6.9963,6.9963,6.9963,6.9963,6.9963,6.9963,6.9963,6.9963,6.9963,6.9963,6.9963,6.9963,6.9963,6.9963,6.9963,7.1597,7.2584,7.2774,7.5999,7.8389,7.991,7.991,7.9888,7.9905,7.9907,7.9951,6.1062,6.1845,6.263,6.3619,0.0,0.0,6.6288,6.6943,6.7669,6.8215,6.8082,6.805,6.8513,6.8498,6.8442,6.8442,6.8442,6.8442,6.8442,6.8442,6.8442,6.8442,6.8442,6.8442,6.8442,6.8442,6.8442,6.8442,6.8442,6.8442,6.8442,6.8442,6.8442,6.8442,6.8442,6.8442,6.8442,6.8442,6.8442,6.8442,6.8442,6.8442,6.8442,6.8442,6.8442,6.8442,6.8442,6.8514,6.8696,6.9003,6.9251,6.9399,6.9571,6.9679,6.98,6.98,6.98,6.98,6.98,6.98,6.98,6.98,6.98,6.98,6.98,6.98,6.98,6.98,6.9816,6.9878,6.9942,6.9977,6.9963,6.9963,6.9963,6.9963,6.9963,6.9963,6.9963,6.9963,6.9963,6.9963,6.9963,6.9963,6.9963,6.9963,6.9963,6.9963,6.9963,6.9963,6.9963,6.9963,6.9963,6.9963,6.9963,6.9963,6.9963,6.9963,6.9963,6.9963,6.9963,7.0646,7.1484,7.247,7.4823,7.6796,7.8427,7.8427,7.8874,7.9765,7.9781,7.9825,6.192,0.0,0.0,0.0,0.0,0.0,6.7944,6.8747,6.9452,6.9308,6.9107,6.8899,6.8682,6.8567,6.8574,6.8611,6.8625,6.8625,6.8625,6.8625,6.8625,6.8625,6.8625,6.8625,6.8625,6.8625,6.8625,6.8625,6.8625,6.8625,6.8625,6.8589,6.8498,6.8442,6.8442,6.8442,6.8442,6.8442,6.8442,6.8442,6.8442,6.8452,6.8544,6.8544,6.8589,6.8625,6.8625,6.8769,6.8969,6.9279,6.9414,6.9512,6.9691,6.98,6.98,6.98,6.98,6.98,6.98,6.98,6.98,6.98,6.98,6.98,6.98,6.98,6.98,6.98,6.98,6.9816,6.9938,6.9977,6.9963,6.9963,6.9963,6.9963,6.9963,6.9963,6.9963,6.9963,6.9963,6.9969,6.9945,6.9909,6.9913,6.9922,6.9916,6.9913,6.9922,6.9943,6.9969,6.9907,6.9974,6.9963,6.9963,6.9963,6.9963,6.9963,6.9963,6.9963,6.9963,6.9963,7.057,7.1787,7.3495,7.5129,7.672,7.7153,7.8166,7.9759,7.9716,7.9709,0.0,0.0,0.0,6.6795,6.848,6.9687,6.9687,6.9762,6.9723,6.9414,6.9374,6.9324,6.9198,6.8973,6.8886,6.916,6.9193,6.9193,6.9193,6.9193,6.9193,6.9193,6.9193,6.9193,6.9193,6.9193,6.9193,6.9193,6.9193,6.9193,6.9193,6.8936,6.8659,6.8404,6.8442,6.8442,6.8442,6.8442,6.8442,6.8442,6.8442,6.8574,6.8795,6.8795,6.8936,6.9193,6.9193,6.9279,6.9374,6.9382,6.9564,6.9757,6.98,6.98,6.98,6.98,6.98,6.98,6.98,6.98,6.98,6.98,6.98,6.98,6.98,6.98,6.98,6.98,6.98,6.9816,6.9938,6.9977,6.9963,6.9963,6.9963,6.9963,6.9963,6.9963,6.9963,6.9963,6.9963,6.9943,6.9818,6.9781,6.9779,6.9786,6.9774,6.9779,6.9786,6.9893,6.9945,6.9818,6.9916,6.9963,6.9963,6.9963,6.9963,6.9963,6.9963,6.9963,6.9963,6.9963,7.0001,7.0039,7.1711,7.3419,7.5091,7.6609,7.8247,7.988,7.9767,7.9703,6.3617,6.5239,6.688,6.8523,6.9346,6.98,6.98,6.9661,6.9497,6.9399,6.9335,6.9259,6.9187,6.9201,6.9223,6.9326,6.9269,6.9215,6.9215,6.9215,6.9215,6.9215,6.9215,6.9215,6.9215,6.9215,6.9215,6.9215,6.9215,6.9215,6.9215,6.9101,6.902,6.8936,6.8961,6.8848,6.8659,6.8848,6.8835,6.8659,6.8848,6.8973,6.9067,6.9067,6.9112,6.9215,6.9215,6.9373,6.9661,6.9661,6.9685,6.98,6.98,6.98,6.98,6.98,6.98,6.98,6.98,6.98,6.98,6.98,6.98,6.98,6.98,6.98,6.98,6.98,6.98,6.9816,6.9938,6.9996,6.9973,6.9996,6.9913,6.9885,6.9971,6.9929,6.9852,6.9852,6.9852,6.985,6.98,6.9799,6.9793,6.9776,6.9789,6.9793,6.9776,6.9817,6.9816,6.9781,6.9916,6.9963,6.9963,6.9963,6.994,6.9851,6.9945,6.9943,6.9851,6.9945,6.9963,6.9963,7.1635,7.2728,7.3232,7.4893,7.6498,7.8106,7.9097,7.9515,6.5143,6.6502,6.7747,6.9452,6.9821,6.9778,6.9778,6.9629,6.9519,6.9519,6.9474,6.9399,6.9399,6.949,6.9519,6.9519,6.9474,6.9399,6.9399,6.9399,6.9399,6.9399,6.9399,6.9399,6.9399,6.9399,6.9399,6.9399,6.9399,6.9399,6.9399,6.9327,6.9289,6.9289,6.9219,6.9112,6.8948,6.9101,6.9101,6.8948,6.9112,6.9219,6.9289,6.9289,6.9327,6.9399,6.9399,6.9566,6.98,6.98,6.98,6.98,6.98,6.98,6.98,6.98,6.98,6.98,6.98,6.98,6.98,6.98,6.98,6.98,6.98,6.98,6.98,6.98,6.9773,6.9798,6.9863,6.992,6.9895,6.9888,6.9857,6.9816,6.9893,6.985,6.9774,6.9774,6.9774,6.9765,6.978,6.9776,6.9765,6.9731,6.9757,6.9765,6.9731,6.9781,6.9771,6.9799,6.9856,6.9891,6.9891,6.9891,6.9894,6.9776,6.9857,6.9856,6.9776,6.9857,6.9891,6.9891,7.0954,7.1792,7.2324,7.3966,7.5615,7.7211,7.8788,7.9433,6.6363,6.7398,6.7979,6.9571,6.9896,6.9802,6.9802,6.9788,6.9768,6.9768,6.9768,6.9768,6.9768,6.9768,6.9768,6.9768,6.98,6.98,6.98,6.98,6.98,6.98,6.98,6.98,6.98,6.98,6.98,6.98,6.98,6.98,6.98,6.9564,6.9406,6.9406,6.9317,6.9246,6.9246,6.9236,6.9236,6.9236,6.9208,6.9317,6.9406,6.9406,6.9564,6.98,6.98,6.98,6.98,6.98,6.98,6.98,6.98,6.98,6.98,6.98,6.98,6.98,6.98,6.98,6.98,6.9768,6.9768,6.9773,6.9778,6.9816,6.9816,6.9816,6.9793,6.9799,6.98,6.9776,6.9781,6.9786,6.9771,6.9774,6.9768,6.9765,6.9762,6.9762,6.9762,6.978,6.9773,6.9757,6.9711,6.9603,6.9673,6.9711,6.9603,6.9702,6.9783,6.9773,6.9773,6.9774,6.9774,6.9774,6.9771,6.9768,6.9771,6.9771,6.9768,6.9771,6.9774,6.9774,6.9768,7.0565,7.2164,7.3814,7.5445,7.7084,7.8734,7.9408,6.6356,6.828,6.942,6.9875,6.9947,6.9905,6.9905,6.9938,6.9892,6.9798,6.9793,6.9835,6.993,6.9845,6.9793,6.9793,6.9778,6.98,6.98,6.98,6.98,6.98,6.98,6.98,6.98,6.98,6.98,6.98,6.98,6.98,6.98,6.9735,6.9679,6.9679,6.9648,6.9629,6.9629,6.9428,6.9324,6.9361,6.9535,6.9648,6.9679,6.9679,6.9735,6.98,6.98,6.98,6.98,6.98,6.98,6.98,6.98,6.98,6.98,6.98,6.98,6.98,6.98,6.98,6.9773,6.9791,6.9765,6.9814,6.9893,6.99,6.99,6.99,6.9902,6.9914,6.9818,6.978,6.9774,6.9799,6.9776,6.98,6.9778,6.9697,6.966,6.966,6.966,6.9653,6.9649,6.9641,6.9634,6.9587,6.9619,6.9626,6.9587,6.9711,6.9793,6.9768,6.9773,6.9774,6.9774,6.9774,6.979,6.9769,6.9783,6.979,6.9769,6.9787,6.9774,6.9774,6.9681,6.9856,7.0278,7.3224,7.4802,7.5213,7.8026,7.9338,6.6522,6.8528,6.9898,6.9945,6.997,6.9962,6.9962,6.9992,6.9947,6.9896,6.9818,6.9835,6.9955,6.9892,6.9802,6.9802,6.9783,6.98,6.98,6.98,6.98,6.98,6.98,6.98,6.98,6.98,6.98,6.98,6.98,6.98,6.98,6.98,6.98,6.98,6.98,6.98,6.98,6.9655,6.9577,6.9577,6.9691,6.98,6.98,6.98,6.98,6.98,6.98,6.98,6.98,6.98,6.98,6.98,6.98,6.98,6.98,6.98,6.98,6.9768,6.9802,6.9773,6.9787,6.9844,6.9857,6.9862,6.9957,6.9961,6.9961,6.9961,6.9962,6.9931,6.9808,6.9795,6.9768,6.9691,6.9691,6.9724,6.9692,6.9649,6.9579,6.9579,6.9579,6.9579,6.9579,6.9579,6.9579,6.9579,6.9579,6.9579,6.9579,6.9663,6.9718,6.9718,6.9703,6.9702,6.9702,6.9702,6.9714,6.9718,6.9703,6.9714,6.9718,6.9708,6.9702,6.9702,6.9632,6.9571,6.9593,7.2914,7.4518,7.4538,7.7804,7.9321,6.6782,6.8513,6.9818,6.9918,6.9976,6.9969,6.9969,6.996,6.9945,6.9973,6.9876,6.9815,6.9952,6.9879,6.9782,6.9807,6.9821,6.98,6.98,6.98,6.98,6.98,6.98,6.98,6.98,6.98,6.98,6.98,6.98,6.98,6.98,6.98,6.98,6.98,6.98,6.98,6.98,6.98,6.98,6.98,6.98,6.98,6.98,6.98,6.98,6.98,6.98,6.98,6.98,6.98,6.98,6.98,6.98,6.9773,6.9778,6.9778,6.9788,6.9807,6.9821,6.98,6.9806,6.9957,6.9965,6.9965,6.9966,6.9967,6.9967,6.9967,6.997,6.9931,6.9841,6.9799,6.9745,6.9634,6.9579,6.9579,6.9579,6.9579,6.9579,6.9579,6.9579,6.9579,6.9579,6.9579,6.9579,6.9579,6.9579,6.9579,6.9579,6.9579,6.9579,6.9579,6.9579,6.9579,6.9579,6.9579,6.9579,6.9579,6.9579,6.9579,6.9579,6.9579,6.9571,6.9563,6.9563,6.966,6.9881,7.2973,7.4575,7.4828,7.7901,7.9312,6.6782,6.8505,6.9799,6.9789,6.9838,6.984,6.984,6.984,6.9812,6.9815,6.9817,6.9766,6.9818,6.9808,6.9824,6.9917,6.9869,6.98,6.98,6.98,6.98,6.98,6.98,6.98,6.98,6.98,6.98,6.98,6.98,6.98,6.98,6.98,6.98,6.98,6.98,6.98,6.98,6.98,6.98,6.98,6.98,6.98,6.98,6.98,6.98,6.98,6.98,6.98,6.98,6.98,6.98,6.98,6.98,6.9802,6.9773,6.9773,6.9879,6.9949,6.9952,6.9954,6.9921,6.9971,6.997,6.9969,6.9992,6.9983,6.9983,6.9983,6.989,6.9821,6.9802,6.9784,6.9755,6.9649,6.9579,6.9579,6.9579,6.9579,6.9579,6.9579,6.9579,6.9579,6.9579,6.9579,6.9579,6.9579,6.9579,6.9579,6.9579,6.9579,6.9579,6.9579,6.9579,6.9579,6.9579,6.9579,6.9579,6.9579,6.9579,6.9579,6.9579,6.9579,6.9546,6.943,6.943,7.0108,7.1522,7.3491,7.5119,7.6422,7.8406,7.9312,6.7787,6.9106,6.9778,6.9782,6.9787,6.9774,6.9774,6.9774,6.9776,6.9781,6.979,6.978,6.98,6.9777,6.9819,6.9853,6.9837,6.9779,6.9779,6.9844,6.9873,6.9873,6.9873,6.9859,6.9787,6.9782,6.9769,6.9768,6.98,6.98,6.98,6.98,6.98,6.98,6.98,6.98,6.98,6.98,6.98,6.98,6.98,6.98,6.98,6.98,6.98,6.98,6.98,6.9788,6.9782,6.9783,6.9811,6.9869,6.9799,6.9821,6.9862,6.9862,6.9913,6.9962,6.9969,6.997,6.9971,6.996,6.999,6.9988,6.9969,6.9963,6.9963,6.9963,6.9863,6.9787,6.9778,6.9799,6.9729,6.9641,6.9579,6.9579,6.9579,6.9579,6.9579,6.9579,6.9579,6.9579,6.9579,6.9579,6.9579,6.9579,6.9579,6.9579,6.9579,6.9579,6.9579,6.9579,6.9579,6.9579,6.9579,6.9579,6.9579,6.9579,6.9601,6.9584,6.9584,6.9521,6.9439,6.9411,6.9393,7.0221,7.1925,7.3544,7.519,7.6825,7.8522,7.9326,6.8711,6.9677,6.9761,6.9761,6.975,6.9727,6.9727,6.9727,6.9749,6.974,6.9761,6.9757,6.9776,6.9771,6.9748,6.98,6.9777,6.9819,6.9818,6.9929,6.9961,6.9961,6.9961,6.9952,6.9847,6.9806,6.9828,6.982,6.9816,6.9816,6.9816,6.9816,6.9816,6.9816,6.9798,6.9788,6.9788,6.9773,6.98,6.98,6.98,6.98,6.9762,6.9802,6.9816,6.9816,6.9816,6.9807,6.9841,6.9837,6.9873,6.9959,6.9857,6.9869,6.9966,6.9966,6.9968,6.997,6.9967,6.9964,6.9961,6.9974,6.9963,6.9963,6.9963,6.9963,6.9963,6.9963,6.9897,6.9773,6.9773,6.9749,6.9746,6.9595,6.9579,6.9579,6.9579,6.9579,6.9579,6.9579,6.9579,6.9579,6.9579,6.9579,6.9579,6.9579,6.9579,6.9579,6.9579,6.9579,6.9579,6.9579,6.9579,6.9579,6.9579,6.9579,6.9579,6.9579,6.9576,6.9588,6.9588,6.9487,6.9392,6.939,6.9731,7.0747,7.2438,7.4007,7.5674,7.7367,7.8675,7.9302,6.8711,6.9595,6.9603,6.9603,6.9611,6.9626,6.9626,6.9626,6.9619,6.9603,6.9603,6.9656,6.9757,6.9684,6.9663,6.9773,6.978,6.9818,6.9926,6.9961,6.9961,6.9961,6.9961,6.996,6.9959,6.9957,6.9957,6.9954,6.9954,6.9954,6.9954,6.9954,6.9954,6.9954,6.9844,6.978,6.978,6.9798,6.98,6.98,6.98,6.98,6.9768,6.9887,6.9954,6.9954,6.9954,6.9956,6.9957,6.9956,6.9957,6.9961,6.9959,6.9968,6.9969,6.9969,6.9961,6.9974,6.9971,6.9969,6.9969,6.9963,6.9963,6.9963,6.9963,6.9963,6.9963,6.9963,6.9879,6.9768,6.9768,6.9673,6.9587,6.9579,6.9579,6.9579,6.9579,6.9579,6.9579,6.9579,6.9579,6.9579,6.9579,6.9579,6.9579,6.9579,6.9579,6.9579,6.9579,6.9579,6.9579,6.9579,6.9579,6.9579,6.9579,6.9579,6.9579,6.9579,6.9576,6.9588,6.9588,6.9467,6.9386,6.9375,7.0804,7.2346,7.4027,7.573,7.7434,7.9077,7.9227,7.9302,6.8711,6.9579,6.9579,6.9579,6.9579,6.9579,6.9579,6.9579,6.9579,6.9579,6.9579,6.9603,6.9632,6.9615,6.9629,6.9773,6.9776,6.9806,6.9869,6.9919,6.9962,6.9962,6.9962,6.9966,6.9971,6.9971,6.997,6.9961,6.9961,6.9961,6.9961,6.9961,6.9961,6.9961,6.9913,6.9907,6.9907,6.9893,6.9882,6.9882,6.9882,6.9882,6.9885,6.9952,6.9961,6.9961,6.9961,6.9961,6.9961,6.9961,6.997,6.9964,6.997,6.9967,6.9987,6.9987,6.9978,6.9963,6.9963,6.9963,6.9963,6.9963,6.9963,6.9963,6.9963,6.9963,6.9963,6.9963,6.9875,6.98,6.98,6.9704,6.9538,6.9297,6.9246,6.9246,6.9246,6.9246,6.9246,6.9246,6.9246,6.9246,6.9246,6.9364,6.943,6.9256,6.9439,6.9579,6.9579,6.9579,6.9579,6.9579,6.9579,6.9579,6.9579,6.9593,6.9576,6.9576,6.9514,6.9468,6.9468,6.9417,6.9402,6.9402,7.0944,7.2561,7.4241,7.5956,7.7648,7.9302,7.9302,7.9302,6.8077,6.9202,6.9579,6.9579,6.9579,6.9579,6.9579,6.9579,6.9579,6.9579,6.9579,6.9579,6.9579,6.9579,6.9611,6.9773,6.9805,6.9783,6.9791,6.9904,6.9963,6.9963,6.9963,6.9976,6.996,6.9961,6.9966,6.9971,6.9971,6.9971,6.9971,6.9971,6.9971,6.9971,6.9969,6.9968,6.9968,6.9964,6.9961,6.9961,6.9961,6.9966,6.9971,6.9971,6.9971,6.9971,6.9971,6.9971,6.9971,6.9971,6.9964,6.9966,6.9992,6.9987,6.9963,6.9963,6.9963,6.9963,6.9963,6.9963,6.9963,6.9963,6.9963,6.996,6.9942,6.9935,6.989,6.9829,6.9714,6.9622,6.9622,6.9512,6.9374,6.9067,6.9009,6.9009,6.9009,6.9009,6.9009,6.9009,6.9009,6.9009,6.9009,6.9149,6.922,6.902,6.9246,6.9439,6.9521,6.9486,6.9439,6.9521,6.9584,6.9601,6.9601,6.9559,6.9532,6.9532,6.9458,6.94,6.939,6.9386,6.959,7.0079,7.1658,7.3312,7.5004,7.6708,7.8137,7.9302,7.9302,7.9302,6.665,6.8304,6.9579,6.9579,6.9579,6.9579,6.9579,6.9579,6.9579,6.9579,6.9579,6.9579,6.9579,6.9579,6.9611,6.9773,6.9805,6.9783,6.9791,6.9904,6.9963,6.9963,6.9963,6.9963,6.9963,6.9963,6.9963,6.9963,6.9963,6.9963,6.9963,6.9963,6.9963,6.9963,6.996,6.9969,6.9969,6.9968,6.9961,6.9961,6.9961,6.997,6.9963,6.9963,6.9963,6.9963,6.9963,6.9963,6.9963,6.9963,6.9963,6.9963,6.9963,6.9963,6.9963,6.9963,6.9963,6.9963,6.9963,6.9963,6.9963,6.9963,6.9963,6.9952,6.9835,6.9768,6.974,6.9483,6.9297,6.9184,6.9184,6.9107,6.9009,6.9009,6.9009,6.9009,6.9009,6.9009,6.9009,6.9009,6.9009,6.9009,6.9009,6.9009,6.9009,6.9009,6.9009,6.9116,6.9352,6.9198,6.9116,6.9362,6.9496,6.9596,6.9596,6.9477,6.9411,6.9411,6.9402,6.939,6.9413,6.9402,7.0117,7.1658,7.3339,7.508,7.6745,7.8438,7.9302,7.9302,7.9302,7.9302,6.6463,6.8177,6.9468,6.9555,6.9579,6.9579,6.9579,6.9579,6.9579,6.9579,6.9579,6.9579,6.9579,6.9579,6.9611,6.9773,6.9768,6.9778,6.9787,6.9807,6.9863,6.996,6.9963,6.9963,6.9963,6.9963,6.9963,6.9963,6.9963,6.9963,6.9963,6.9963,6.9963,6.9963,6.9976,6.9983,6.9983,6.9992,6.9995,6.9995,6.9995,6.9987,6.9963,6.9963,6.9963,6.9963,6.9963,6.9963,6.9963,6.9963,6.9963,6.9963,6.9963,6.9963,6.9963,6.9963,6.9935,6.9849,6.9849,6.9724,6.9573,6.9573,6.9573,6.9566,6.9519,6.9505,6.9497,6.9406,6.9297,6.915,6.8872,6.8682,6.8596,6.8596,6.8596,6.8596,6.8596,6.8596,6.8596,6.8596,6.8596,6.8596,6.8596,6.8762,6.8803,6.8625,6.8822,6.901,6.8998,6.8911,6.8961,6.9263,6.9374,6.9468,6.9468,6.9421,6.9392,6.9392,6.939,6.9386,6.9413,6.9402,7.0117,7.1696,7.3376,7.508,7.6783,7.8475,7.9302,7.9302,7.9302,7.9302,6.537,6.7122,6.8611,6.9335,6.943,6.9393,6.9393,6.9393,6.9393,6.9393,6.9393,6.9402,6.9495,6.9503,6.9512,6.9483,6.9517,6.9588,6.9641,6.9609,6.9649,6.9897,6.9824,6.9802,6.9883,6.982,6.976,6.976,6.976,6.9811,6.9886,6.9886,6.9939,6.9963,6.9963,6.9963,6.9963,6.9963,6.9952,6.9886,6.9952,6.9963,6.9963,6.9963,6.9963,6.9963,6.9963,6.9963,6.996,6.9939,6.9886,6.9883,6.9811,6.976,6.976,6.976,6.9719,6.9617,6.9617,6.9512,6.9391,6.9391,6.9391,6.9374,6.9353,6.9326,6.9308,6.9211,6.9085,6.8948,6.867,6.8542,6.8442,6.8442,6.8442,6.8442,6.8442,6.8442,6.8442,6.8442,6.8442,6.8442,6.8442,6.8566,6.8611,6.8457,6.8625,6.8766,6.8677,6.8611,6.8673,6.8873,6.9029,6.9177,6.9374,6.941,6.9379,6.9379,6.9273,6.924,6.9402,6.9966,7.1019,7.2673,7.4365,7.6057,7.7723,7.8814,7.9302,7.9302,7.9302,7.9241,6.3661,6.5441,6.7227,6.8948,6.916,6.9009,6.9009,6.9009,6.9009,6.9009,6.9009,6.9093,6.9332,6.939,6.9273,6.9032,6.9101,6.9219,6.9373,6.9279,6.9345,6.9722,6.9571,6.9482,6.9729,6.9512,6.9382,6.9382,6.9391,6.9497,6.9746,6.9752,6.9798,6.9948,6.9948,6.9948,6.9948,6.9955,6.9883,6.9752,6.9879,6.9948,6.9948,6.9948,6.9948,6.9948,6.9948,6.9948,6.9907,6.9793,6.9752,6.974,6.949,6.9391,6.9391,6.9391,6.9382,6.9374,6.9374,6.9366,6.9387,6.9387,6.9387,6.9324,6.9208,6.9193,6.9127,6.8881,6.8728,6.8604,6.8603,6.8526,6.8442,6.8442,6.8442,6.8442,6.8442,6.8442,6.8442,6.8442,6.8442,6.8442,6.8442,6.8442,6.8426,6.8426,6.841,6.8404,6.8393,6.8258,6.8242,6.8366,6.849,6.8771,6.9252,6.9306,6.9322,6.9322,6.8949,6.8936,6.9333,7.0884,7.2501,7.4203,7.5918,7.761,7.9302,7.9278,7.9266,7.9266,7.9216,7.9036,6.3512,6.5194,6.6827,6.8657,6.9032,6.9009,6.9009,6.9009,6.9009,6.9009,6.9009,6.902,6.9093,6.9104,6.9093,6.9009,6.9032,6.9112,6.9231,6.9204,6.9261,6.9452,6.945,6.937,6.9358,6.9387,6.9379,6.9379,6.9412,6.9406,6.9483,6.949,6.9505,6.954,6.954,6.954,6.954,6.9719,6.9703,6.949,6.9526,6.954,6.954,6.954,6.954,6.954,6.954,6.954,6.9533,6.9505,6.949,6.9483,6.9406,6.9391,6.9391,6.9391,6.9344,6.9249,6.9249,6.9171,6.9123,6.9123,6.9123,6.9073,6.9048,6.9036,6.9048,6.8864,6.8722,6.8603,6.8489,6.8442,6.8442,6.8442,6.8442,6.8442,6.8442,6.8442,6.8442,6.8442,6.8442,6.8442,6.8442,6.8442,6.8394,6.8299,6.8282,6.8194,6.7999,6.7874,6.7892,6.8077,6.8046,6.8147,6.847,6.8484,6.8507,6.8507,6.841,6.8551,6.8924,7.0559,7.2334,7.4203,7.5918,7.761,7.9302,7.9009,7.8859,7.8859,7.8542,7.8547,6.3102,6.4491,6.5802,6.8154,6.8752,6.8752,6.8752,6.8752,6.8752,6.8752,6.8752,6.8779,6.8872,6.882,6.8779,6.8885,6.882,6.882,6.8985,6.8936,6.8959,6.9279,6.9145,6.9067,6.9102,6.9074,6.9029,6.9029,6.9085,6.916,6.9223,6.9289,6.9344,6.9382,6.9391,6.9391,6.9391,6.9482,6.945,6.9308,6.9387,6.9391,6.9391,6.9391,6.9391,6.9391,6.9391,6.9391,6.9382,6.9344,6.9308,6.9298,6.9229,6.9225,6.9225,6.9225,6.9187,6.9121,6.9121,6.9061,6.9006,6.9006,6.9006,6.9006,6.9006,6.898,6.8901,6.8757,6.8693,6.8573,6.8457,6.8442,6.8442,6.8442,6.8442,6.8442,6.8442,6.8442,6.8442,6.8442,6.8442,6.8442,6.8442,6.8442,6.8377,6.8248,6.8214,6.811,6.7799,6.7702,6.7645,6.7651,6.7781,6.791,6.8029,6.8143,6.824,6.824,6.8094,6.8547,6.9654,7.1287,7.3002,7.4852,7.6527,7.7851,7.8749,7.8579,7.8445,7.8445,7.8241,7.817,6.2671,6.3907,6.4962,6.7708,6.8442,6.8442,6.8442,6.8442,6.8442,6.8442,6.8442,6.8504,6.87,6.8581,6.8504,6.87,6.8566,6.8504,6.8766,6.8581,6.8619,6.907,6.8803,6.8685,6.8886,6.8738,6.8619,6.8633,6.8743,6.887,6.8995,6.9101,6.9208,6.9335,6.9344,6.9344,6.9344,6.9219,6.916,6.916,6.927,6.9344,6.9344,6.9344,6.9344,6.9344,6.9344,6.9344,6.9335,6.9236,6.916,6.9176,6.9023,6.9006,6.9006,6.9006,6.9006,6.9006,6.9006,6.9006,6.9006,6.9006,6.9006,6.9006,6.8993,6.8915,6.8743,6.8492,6.8452,6.8479,6.8377,6.8394,6.8442,6.8442,6.8442,6.8442,6.8442,6.8442,6.8442,6.8442,6.8442,6.8426,6.8394,6.8394,6.8329,6.8162,6.8127,6.8002,6.7643,6.7583,6.7523,6.7281,6.755,6.7725,6.7725,6.7943,6.8077,6.8077,6.7873,6.8611,7.0504,7.1925,7.3554,7.5593,7.728,7.8152,7.8152,7.8098,7.8061,7.8061,7.8005,7.7813,6.2671,6.4646,6.62,6.7959,6.8442,6.8442,6.8442,6.8442,6.8442,6.8442,6.8442,6.8442,6.8489,6.8457,6.8442,6.8489,6.8457,6.8473,6.8618,6.8603,6.8618,6.8708,6.8648,6.8588,6.8514,6.8566,6.8596,6.8633,6.8743,6.8864,6.9009,6.9035,6.9048,6.9061,6.9061,6.9061,6.9061,6.9061,6.9035,6.9035,6.9073,6.9061,6.9061,6.9061,6.9061,6.9061,6.9061,6.9061,6.9048,6.9048,6.9035,6.9035,6.902,6.9006,6.9006,6.9006,6.9006,6.9006,6.9006,6.9006,6.9006,6.9006,6.9006,6.8993,6.8864,6.8836,6.8604,6.7745,6.7707,6.7965,6.7947,6.8174,6.8442,6.8442,6.8442,6.8442,6.8442,6.8442,6.8442,6.8442,6.8442,6.8394,6.8282,6.8248,6.8145,6.7779,6.7721,6.7643,6.7364,6.7323,6.7302,6.7281,6.7323,6.7364,6.7364,6.7353,6.7393,6.7393,6.7369,6.8137,6.9862,7.0354,7.221,7.5556,7.728,7.8152,7.8152,7.7813,7.7669,7.7611,7.7298,7.7298,6.2894,6.4802,6.6436,6.8033,6.8442,6.8442,6.8442,6.8442,6.8442,6.8442,6.8242,6.8123,6.8123,6.7873,6.7689,6.7689,6.7689,6.7818,6.814,6.8174,6.8174,6.8174,6.8174,6.8157,6.8123,6.8361,6.8504,6.8498,6.8626,6.8737,6.8808,6.885,6.8929,6.9006,6.9006,6.8766,6.8254,6.834,6.8489,6.8693,6.8693,6.878,6.9006,6.9006,6.9006,6.9006,6.9006,6.9006,6.9006,6.9006,6.9006,6.8993,6.8751,6.8794,6.8993,6.8789,6.8693,6.8693,6.8693,6.8551,6.8394,6.8394,6.8324,6.8275,6.8205,6.8117,6.7925,6.7324,6.7263,6.742,6.742,6.7557,6.7689,6.7689,6.7689,6.7689,6.7689,6.7689,6.7763,6.8034,6.8123,6.8123,6.8214,6.8214,6.8092,6.7702,6.7643,6.7563,6.7302,6.7281,6.7281,6.7281,6.7281,6.7281,6.7281,6.7281,6.7281,6.7281,6.7281,6.799,6.9705,7.0703,7.2396,7.4956,7.6655,7.7501,7.7501,7.7343,7.7268,7.7268,7.7074,7.7074,6.3146,0.0,6.6919,6.8145,6.8442,6.8442,0.0,6.8442,6.841,6.8291,6.8053,6.7781,6.7687,6.734,6.7078,6.7078,6.7078,6.7202,6.7593,6.7687,6.7687,6.7687,6.7687,6.7687,6.7687,6.7946,6.812,6.8137,6.8242,6.8324,6.833,6.843,6.8529,6.8626,6.8626,6.8324,6.7593,6.7706,6.7892,6.8171,6.8242,6.8426,6.8693,6.8722,6.8722,6.8722,6.8722,6.8722,6.8722,6.8722,6.8722,6.8708,6.841,6.8473,6.8693,6.841,6.8275,6.8275,6.8275,6.8106,6.7855,6.7855,6.7763,6.7651,6.7574,6.732,6.7051,6.682,6.682,6.6907,6.6907,6.6993,6.7078,6.7078,6.7078,6.7078,6.7078,6.7078,6.7161,6.7555,6.7613,6.7687,6.7929,6.7947,6.7855,6.7603,6.7563,6.7503,6.7302,6.7281,6.7281,6.7281,6.7281,6.7281,6.7281,6.7281,6.7281,6.7281,6.7625,6.861,7.0253,7.1822,7.3391,7.4997,7.6335,7.6955,7.6955,7.6955,7.6955,7.6955,7.6955,7.6955,0.0,6.5962,6.8293,6.8404,6.8442,6.8442,6.8442,6.8442,0.0,6.7965,6.7874,6.767,6.7202,6.7099,6.7078,6.7078,6.7078,6.7078,6.7119,6.7119,6.7119,6.7119,6.7119,6.7119,6.7119,6.714,6.7202,6.734,6.736,6.742,6.7518,6.7537,6.7537,6.7593,6.7593,6.7518,6.7496,6.7459,6.7479,6.7535,6.7632,6.7744,6.7726,6.7855,6.791,6.791,6.791,6.791,6.791,6.791,6.791,6.7929,6.791,6.791,6.7929,6.791,6.7892,6.7892,6.7892,6.7837,6.7855,6.7855,6.7855,6.7763,6.74,6.6701,6.5987,6.5835,6.6161,6.6544,6.6544,6.679,6.7078,6.7078,6.7078,6.7078,6.7078,6.7078,6.7057,6.6935,6.6935,6.6972,6.7102,6.7139,6.7181,6.7281,6.7266,6.7281,6.7281,6.7281,6.7281,6.7281,6.7281,6.7281,6.7281,6.7281,6.7281,6.7281,6.872,7.0289,7.1881,7.3464,7.507,7.6773,7.6919,7.6955,7.6955,7.6955,7.6955,7.6955,7.6955,7.6955,6.3486,6.5969,6.8442,6.8442,6.8442,6.8442,6.8442,6.8225,6.8036,6.7892,6.7377,6.6937,6.6723,6.6425,6.6211,6.6211,6.6211,6.6331,6.6633,6.6678,6.6678,6.6678,6.6678,6.6678,6.6678,6.6907,6.7099,6.714,6.714,6.7182,6.734,6.734,6.7014,6.6378,6.6425,6.6472,6.6472,6.6541,6.6746,6.6957,6.7036,6.7202,6.7535,6.7574,6.7593,6.7593,6.7706,6.7651,0.0,6.7763,6.7781,6.7706,6.755,6.7628,6.7781,6.7569,6.747,6.747,6.747,6.7271,6.698,6.6893,6.6937,6.6937,6.661,6.6247,6.586,6.5732,6.5835,6.5987,6.5987,6.61,6.6211,6.6211,6.6211,6.6211,6.6211,6.6138,6.6162,6.6449,6.6425,6.6461,6.666,6.6683,6.666,6.6544,6.6728,6.6863,6.6863,6.7096,6.7281,6.7281,6.7281,6.7281,6.7281,6.7281,6.7281,6.7281,6.8829,7.0472,7.2063,7.361,7.5252,7.6919,7.6955,7.6955,7.6955,7.6955,7.6955,7.6955,7.6955,7.6955,6.4252,6.6325,6.8442,6.8442,6.8442,6.8373,6.8258,6.8036,6.7744,6.7493,6.6915,6.6427,6.6259,6.5936,6.5715,6.5715,6.5715,6.5809,6.6185,6.6234,6.6234,6.6234,6.6234,6.6234,6.6234,6.6472,6.6642,6.6642,6.6642,6.6665,6.6754,6.6754,6.6449,6.5706,6.5783,6.5835,6.5835,6.5911,6.61,6.6389,6.6412,6.6619,6.6965,6.7008,6.703,6.703,6.7114,6.7093,6.703,6.7234,6.7255,6.7151,6.6995,6.7124,6.7316,6.7117,6.7009,6.7009,6.7009,6.6773,6.6474,6.6379,6.6379,6.6379,6.621,6.6037,6.586,6.5783,6.5741,6.5715,6.5715,6.5715,6.5653,6.5663,6.5663,6.5637,6.5584,6.5504,6.5531,6.5835,6.5835,6.586,6.6136,6.6185,6.6161,6.6087,6.6331,6.6521,6.666,6.6921,6.7117,6.7224,6.7281,6.7281,6.7281,6.7281,6.7479,6.799,6.9596,7.1202,7.2771,7.4377,7.5763,7.6955,7.6955,7.6955,7.6955,7.6955,7.6955,7.6955,7.6955,7.7247,6.5672,6.7225,6.8442,6.8442,6.8442,6.8308,6.7947,6.7855,6.7591,6.6683,6.6474,6.6307,6.5783,6.5715,6.5715,6.5715,6.5715,6.5715,6.5715,6.5715,6.5715,6.5715,6.5715,6.5715,6.5715,6.5715,6.5715,6.5715,6.5715,6.5715,6.5715,6.5653,6.5653,6.5653,6.5653,6.5653,6.5653,6.5653,6.5653,6.5653,6.5809,6.586,6.5886,6.6012,6.6087,6.6087,6.6087,6.6087,6.6087,6.6087,6.6087,6.6112,6.6234,6.6283,6.6307,6.6427,6.6474,6.6474,6.6474,6.6474,6.6474,6.6474,6.6403,6.6283,6.6283,6.6112,6.5886,6.5886,6.5783,6.5715,6.5715,6.5715,6.5689,6.5531,6.5504,6.545,6.5315,6.5323,6.5268,6.513,6.5137,6.5185,6.545,6.5504,6.5637,6.6012,6.6087,6.6234,6.6614,6.666,6.6855,6.7239,6.7281,6.7281,6.7281,6.7281,6.7954,6.9669,7.126,7.2807,7.4413,7.6079,7.6955,7.6955,7.6955,7.6955,7.6955,7.6955,7.6955,7.6955,7.6955,7.7831,6.5665,6.7232,6.8442,6.8442,6.8442,6.8308,6.7947,6.7555,6.7156,6.6614,6.6185,6.5886,6.5706,6.5715,6.5715,6.5715,6.5637,6.5557,6.5557,6.5557,6.5557,6.5557,6.5663,6.5715,6.5715,6.5715,6.5715,6.5715,6.5715,6.5715,6.5715,6.482,6.4322,6.4322,6.4322,6.4322,6.4322,6.4322,6.4322,6.4322,6.4381,6.4381,6.4411,6.4905,6.5135,6.5154,6.5732,6.5886,6.5809,6.6012,6.6037,6.5962,6.6087,6.6161,6.6161,6.6283,6.6283,6.6234,6.6307,6.6283,6.6185,6.6087,6.6112,6.6136,6.6037,6.5962,6.586,6.5783,6.5741,6.5715,6.5715,6.5637,6.5557,6.5504,6.5423,6.5342,6.5323,6.5241,6.5158,6.5102,6.5053,6.4996,6.5109,6.5109,6.513,6.5268,6.5504,6.5809,6.621,6.6497,6.6855,6.7239,6.7281,6.7281,6.7281,6.7281,6.7954,6.9669,7.126,7.2807,7.4413,7.6079,7.6955,7.6955,7.6955,7.6955,7.6955,7.6955,7.6955,7.6955,7.6955,7.7211,6.6172,6.7451,6.812,6.7927,6.8052,6.8017,6.7417,6.7087,6.6701,6.6283,6.5732,6.5271,6.5244,6.5024,6.482,6.47,6.4649,6.4591,6.4591,6.4591,6.4591,6.4591,6.4642,6.47,6.47,6.4792,6.4855,6.4855,6.4877,6.4877,6.47,6.3928,6.3561,6.3689,6.3689,6.3686,6.3748,6.3748,6.3748,6.3748,6.3748,6.3748,6.3779,6.4179,6.4357,6.4387,6.4848,6.5127,6.5334,6.5209,6.5424,6.5809,6.567,6.5644,6.5696,6.6087,6.5976,6.5722,6.5789,6.5926,6.6037,6.5696,6.5397,6.5173,6.5379,6.5433,6.546,6.5627,6.5715,6.5715,6.5715,6.5663,6.5415,6.4669,6.4195,6.3974,6.4211,6.465,6.5053,6.5053,6.4968,6.4911,6.4911,6.4911,6.4911,6.4911,6.5102,6.5397,6.5783,6.621,6.6591,6.6987,6.7031,6.7031,6.7031,6.716,6.8245,7.0545,7.1589,7.3099,7.5291,7.642,7.6907,7.681,7.6895,7.6895,7.681,7.681,7.681,7.681,7.681,7.7149,6.6953,6.7763,6.7668,6.7161,6.738,6.7496,6.6646,6.645,6.6283,6.5706,6.5107,6.462,6.4411,6.3937,6.3437,6.3208,6.3144,6.3144,6.3144,6.3144,6.3144,6.3144,6.3176,6.3176,6.3176,6.3371,6.3535,6.3535,6.3658,6.3498,6.3014,6.2982,6.3114,6.3344,6.3344,6.3405,6.3529,6.3529,6.3529,6.3529,6.3561,6.3561,6.3561,6.3623,6.3655,6.3689,6.3717,6.4084,6.4591,6.4028,6.444,6.5495,6.4988,6.4785,6.4905,6.5608,6.553,6.5009,6.5009,6.5397,6.5773,6.5173,6.444,6.3906,6.4446,6.462,6.477,6.5326,6.5522,6.5522,6.5522,6.5415,6.4899,6.3188,6.2147,6.1707,6.2351,6.3594,6.4678,6.4882,6.4911,6.4911,6.4911,6.4911,6.4911,6.4911,6.4911,6.5081,6.545,6.5809,6.6161,6.6497,6.6531,6.6567,6.6544,6.6986,6.8567,7.1699,7.2027,7.3436,7.6476,7.6761,7.6736,7.6483,7.6585,7.6611,7.6596,7.6509,7.6483,7.6483,7.6483,7.7318,6.669,6.7161,6.702,6.6935,6.6914,6.682,6.6414,6.6259,6.5901,6.4961,6.4597,6.4209,6.3558,6.3336,6.3208,6.3176,6.3114,6.305,6.305,6.305,6.305,6.305,6.3114,6.3176,6.3176,6.3243,6.3275,6.3275,6.3307,6.2818,6.1711,6.1639,6.1673,6.1745,6.1745,6.1711,6.1747,6.1891,6.1928,6.1928,6.2138,6.2241,6.2241,6.2787,6.2986,6.3019,6.3564,6.384,6.3932,6.381,6.3902,6.4144,6.4054,6.3993,6.4054,6.4317,6.4258,6.4084,6.4169,6.4228,6.4234,6.4114,6.3932,6.3779,6.3937,6.3963,6.3993,6.4114,6.4174,6.4144,6.4058,6.3217,6.2177,6.1473,6.0238,5.9691,6.1433,6.2073,6.2847,6.4579,6.4911,6.4911,6.4911,6.4911,6.4911,6.4911,6.4911,6.5081,6.545,6.5584,6.5548,6.5344,6.5573,6.5702,6.5468,6.6527,6.8114,7.0167,7.1352,7.2857,7.4884,7.5484,7.5743,7.566,7.5688,7.6006,7.6596,7.5979,7.566,7.566,7.566,7.6516,6.6153,6.6528,6.6449,6.6175,6.6247,6.6307,6.5911,6.5513,6.5099,6.4533,6.381,6.3146,6.2584,6.2244,6.193,6.1791,6.172,6.1682,6.1682,6.1787,6.1858,6.1858,6.1928,6.1965,6.1965,6.2001,6.2037,6.2037,6.2174,6.168,6.0372,6.0711,6.097,6.1049,6.1049,6.112,6.1227,6.1305,6.1308,6.1308,6.1452,6.1561,6.1636,6.1962,6.2206,6.2345,6.2653,6.2985,6.3245,6.2953,6.318,6.3717,6.3405,6.3277,6.3342,6.3717,6.3623,6.3309,6.3374,6.3529,6.3623,6.2884,6.2618,6.2685,6.295,6.3016,6.3081,6.3403,6.3498,6.3466,6.3371,6.233,6.0923,5.9579,5.8344,5.7672,5.8365,5.9882,6.1533,6.2634,6.367,6.4368,6.4368,6.4674,6.4911,6.4911,6.4911,6.4996,6.5185,6.5067,6.4805,6.4481,6.4785,6.5009,6.4841,6.6324,6.796,6.9683,7.1142,7.267,7.4303,7.4745,7.4896,7.478,7.4841,7.5021,7.5392,7.4967,7.475,7.475,7.5497,7.6635,6.5578,6.5936,6.5809,6.5405,6.5584,6.5732,6.5233,6.4661,6.4149,6.3967,6.295,6.2035,6.1684,6.1057,6.0514,6.0289,6.025,6.0211,6.0211,6.0437,6.0553,6.0553,6.0399,6.0289,6.0327,6.0416,6.0531,6.0569,6.0563,6.0068,5.8966,5.9675,6.0146,6.0235,6.0306,6.0454,6.0634,6.0673,6.0711,6.0711,6.0895,6.1049,6.1131,6.1345,6.1491,6.1706,6.1706,6.2029,6.2449,6.1923,6.2346,6.3277,6.2754,6.2517,6.2585,6.3115,6.2985,6.2551,6.2551,6.2953,6.3213,6.182,6.1385,6.1458,6.1893,6.2034,6.214,6.2685,6.2851,6.2783,6.2477,6.1345,5.9679,5.745,5.6253,5.5412,5.48,5.7304,5.9889,6.0531,6.2039,6.3281,6.3558,6.4219,6.4703,6.4644,6.4796,6.4853,6.4767,6.4373,6.4041,6.389,6.4158,6.4298,6.4239,6.6112,6.7868,6.9301,7.0997,7.2517,7.3789,7.4087,7.4055,7.3866,7.396,7.4025,7.4063,7.3932,7.3866,7.3866,7.5375,7.6885,6.5388,6.5351,6.5213,6.5158,6.5137,6.4933,6.4433,6.4063,6.3495,6.2381,6.1896,6.1536,6.0937,6.052,6.0289,6.025,6.0166,6.0088,6.0088,6.0127,6.0166,6.0166,5.9355,5.8885,5.912,5.9129,5.925,5.9483,5.8357,5.7637,5.7465,5.7766,5.7978,5.7978,5.8221,5.8337,5.8368,5.8482,5.8501,5.8574,5.957,6.0074,6.0113,6.0899,6.1264,6.1301,6.1301,6.1375,6.1415,6.1375,6.1415,6.1561,6.1488,6.1452,6.1452,6.1561,6.1567,6.157,6.157,6.1818,6.1994,6.1415,6.1231,6.1264,6.1342,6.1378,6.1378,6.1455,6.1491,6.1155,5.9676,5.8248,5.6683,5.4918,5.3465,5.2472,5.2375,5.425,5.6866,6.0057,6.0866,6.1478,6.2712,6.3466,6.3814,6.3601,6.4349,6.4709,6.4167,6.357,6.3247,6.3445,6.3474,6.3445,6.3189,6.5793,6.7543,6.7749,7.0391,7.2039,7.2207,7.2797,7.3115,7.3045,7.308,7.3392,7.4063,7.3357,7.3045,7.308,7.4643,7.6208,6.4486,6.4274,6.4158,6.3595,6.3437,6.3309,6.3115,6.2652,6.2038,6.1508,6.1028,6.0678,6.0399,6.0094,5.9937,5.9937,5.9467,5.9071,5.9071,5.8711,5.8462,5.8462,5.8052,5.7766,5.7893,5.7893,5.7978,5.8063,5.7508,5.6942,5.6409,5.6986,5.7074,5.6588,5.7192,5.7539,5.7711,5.7925,5.7978,5.8052,5.8513,5.8844,5.8902,5.9298,5.957,5.9689,5.9689,5.9689,5.9689,5.9689,5.9689,5.9768,6.0262,6.0487,6.0525,6.1045,6.1268,6.1342,6.1342,6.1378,6.1415,6.1124,6.1012,6.1012,6.0932,6.0895,6.0895,6.0895,6.0895,6.0527,5.9001,5.7551,5.6035,5.4415,5.2901,5.1785,5.1785,5.2508,5.3828,5.6253,5.8328,5.9876,6.0481,6.1872,6.2851,6.2719,6.3083,6.3182,6.2517,6.2653,6.272,6.2619,6.2956,6.309,6.3025,6.5721,6.7463,6.7463,7.0263,7.1936,7.1936,7.2207,7.2359,7.2359,7.2359,7.2506,7.2831,7.2506,7.2359,7.2427,7.4758,7.6236,6.3469,6.3277,6.3115,6.2347,6.2209,6.2174,6.1931,6.1469,6.0995,6.0805,6.041,5.997,5.9627,5.9387,5.9144,5.8908,5.8253,5.7786,5.7871,5.7366,5.6986,5.6986,5.6765,5.6632,5.6677,5.6677,5.6543,5.6184,5.6139,5.5867,5.5282,5.5943,5.6034,5.5375,5.6079,5.6574,5.6721,5.696,5.7004,5.7004,5.7267,5.7422,5.7532,5.7745,5.7989,5.8168,5.8168,5.8168,5.8252,5.8252,5.8325,5.8408,5.9129,5.9403,5.9483,6.014,6.0558,6.0711,6.0333,6.0185,6.0146,5.9964,6.0042,6.0229,6.014,6.0289,6.0476,6.0476,6.0476,6.0082,5.8279,5.7,5.5756,5.3851,5.2503,5.1618,5.1618,5.1584,5.1842,5.2884,5.5498,5.7534,5.7534,5.9697,6.1358,6.1286,6.1799,6.1895,6.109,6.157,6.1962,6.182,6.2379,6.2721,6.2721,6.5617,6.7463,6.7463,7.0263,7.1936,7.1936,7.1936,7.1936,7.1936,7.1936,7.1936,7.1936,7.1936,7.1936,7.2004,7.5003,7.6361,6.2584,6.2449,6.2415,6.2244,6.2209,6.2001,6.1288,6.1069,6.0879,6.025,6.0088,5.9707,5.845,5.8137,5.7669,5.669,5.6395,5.6366,5.6605,5.6605,5.6605,5.6605,5.5714,5.5252,5.5467,5.5514,5.4937,5.3552,5.3433,5.3581,5.3718,5.404,5.4166,5.4166,5.4407,5.458,5.458,5.458,5.458,5.4628,5.5498,5.5897,5.5943,5.681,5.7205,5.7248,5.7248,5.7379,5.7594,5.7594,5.7723,5.7956,5.7999,5.7999,5.8041,5.8084,5.872,5.9371,5.7862,5.7379,5.7379,5.7335,5.7936,5.8638,5.8638,5.9314,6.0088,6.0088,6.0088,5.9436,5.6634,5.5884,5.5102,5.2298,5.1582,5.1517,5.1517,5.1517,5.1515,5.1614,5.2888,5.3934,5.3934,5.6765,5.8973,5.8745,6.0704,6.1753,6.0482,6.0366,6.0634,6.1235,6.1747,6.2066,6.2066,6.5371,6.7463,6.7463,7.0263,7.1936,7.1936,7.1936,7.1936,7.1936,7.1936,7.1936,7.1936,7.1936,7.1936,7.2004,7.5003,7.6361,6.1185,6.1145,6.1069,5.9781,5.9696,5.9656,5.8542,5.8293,5.8084,5.7465,5.7323,5.7161,5.669,5.6512,5.6334,5.6048,5.5407,5.4971,5.5035,5.4575,5.4174,5.4174,5.3835,5.3669,5.3767,5.3767,5.3572,5.3036,5.2986,5.3036,5.3136,5.3235,5.3383,5.3531,5.3659,5.3855,5.4195,5.4195,5.4244,5.4418,5.4789,5.4902,5.4949,5.5248,5.5388,5.5388,5.5388,5.5481,5.5544,5.5544,5.562,5.5759,5.6336,5.6574,5.6619,5.7236,5.7637,5.7819,5.6677,5.6677,5.7161,5.7161,5.7379,5.7637,5.7637,5.7893,5.8179,5.8179,5.8179,5.7546,5.473,5.4042,5.3345,5.0559,4.975,4.9818,5.0386,5.0386,5.0457,5.1039,5.1563,5.2177,5.3118,5.4308,5.5721,5.739,5.7255,5.7091,5.7428,5.7882,5.8559,5.9624,6.0274,6.0617,6.0513,6.3688,6.569,6.569,6.9046,7.1048,7.1048,7.1354,7.1545,7.1545,7.1628,7.1667,7.1667,7.1859,7.1936,7.197,7.3979,7.5447,5.9624,5.9346,5.8951,5.784,5.7614,5.7484,5.6619,5.6409,5.6244,5.5851,5.5806,5.5668,5.5222,5.5068,5.4958,5.4718,5.4097,5.366,5.3757,5.3276,5.2886,5.2886,5.2886,5.2886,5.2886,5.2354,5.2049,5.2123,5.1789,5.1583,5.1686,5.1686,5.1789,5.197,5.197,5.2095,5.2471,5.285,5.3128,5.3305,5.3728,5.3904,5.3904,5.4001,5.4098,5.4195,5.4195,5.4244,5.4292,5.4292,5.434,5.4484,5.5108,5.5312,5.5405,5.6019,5.6034,5.5638,5.5142,5.5345,5.5821,5.5958,5.6184,5.6423,5.6423,5.6677,5.6973,5.6973,5.6973,5.6322,5.3565,5.2884,5.2171,4.9414,4.8681,4.8681,4.9274,4.9311,4.9348,4.9953,5.0062,5.0487,5.17,5.1755,5.2585,5.5183,5.4268,5.3625,5.4492,5.5404,5.6477,5.7759,5.8534,5.9052,5.9361,6.2131,6.4018,6.4436,6.7384,6.9342,6.9765,7.0448,7.08,7.08,7.1235,7.1472,7.1472,7.1628,7.1705,7.1739,7.3282,7.4542,5.7797,5.7086,5.6093,5.6588,5.6215,5.576,5.5714,5.5607,5.5531,5.5622,5.5622,5.5222,5.396,5.3767,5.3484,5.2613,5.244,5.2591,5.2836,5.2836,5.2836,5.2836,5.2836,5.2836,5.2757,5.1277,5.0358,5.062,4.9584,4.9099,4.9315,4.9315,4.9369,4.9369,4.9369,4.9369,4.9369,5.0515,5.1038,5.109,5.2225,5.2786,5.2786,5.3036,5.3285,5.3522,5.3522,5.3699,5.3972,5.3972,5.4147,5.4418,5.4418,5.4418,5.4418,5.4418,5.3757,5.2936,5.3164,5.3264,5.3313,5.3552,5.4222,5.4941,5.4941,5.5668,5.647,5.647,5.647,5.5857,5.3144,5.2408,5.1703,4.9035,4.836,4.833,4.833,4.833,4.8368,4.8368,4.8368,4.8636,4.939,4.9199,4.9736,5.2007,5.201,5.1745,5.1783,5.3011,5.4397,5.5742,5.6445,5.7355,5.862,6.0623,6.2417,6.3733,6.5379,6.6811,6.8133,6.9176,6.9713,6.9713,7.076,7.1303,7.1303,7.1342,7.1342,7.1376,7.3038,7.3838,5.4123,5.5091,5.5547,5.5052,5.5082,5.4847,5.3553,5.323,5.2934,5.2038,5.1834,5.176,5.1401,5.163,5.1783,5.1532,5.1924,5.2236,5.231,5.231,5.231,5.231,5.231,5.1639,4.9905,4.9342,4.8991,4.8775,4.8719,4.861,4.8393,4.8638,4.8882,4.9099,4.9099,4.9153,4.9369,4.9691,4.9852,4.9852,5.017,5.0356,5.0356,5.0409,5.0487,5.0592,5.1452,5.1863,5.1993,5.2858,5.3235,5.3285,5.3285,5.3285,5.3285,5.3285,5.3136,5.2886,5.2936,5.2986,5.2986,5.3086,5.3256,5.3473,5.3699,5.3913,5.4204,5.4444,5.4462,5.403,5.2375,5.1207,5.004,4.8289,4.7099,4.6559,4.6908,4.7029,4.719,4.7864,4.7981,4.8059,4.8261,4.8214,4.8522,4.9642,4.8826,4.8262,4.873,4.9969,5.1519,5.3379,5.3751,5.3989,5.4362,5.6958,5.9252,6.0641,6.358,6.5924,6.7353,6.7907,6.8225,6.8225,6.9372,6.9924,6.9924,7.0841,7.1342,7.1342,7.1828,7.2613,5.0294,5.1547,5.2776,5.331,5.3259,5.2814,5.1987,5.1658,5.1246,5.0464,5.0333,5.0333,5.0333,5.057,5.0805,5.0805,5.1121,5.1253,5.0832,5.078,5.0727,5.0409,5.0304,4.9691,4.8309,4.7728,4.7393,4.7118,4.6887,4.663,4.6434,4.6605,4.68,4.6969,4.6944,4.7026,4.7169,4.7672,4.7923,4.7923,4.8419,4.8692,4.8801,4.891,4.9073,4.9262,5.0064,5.0409,5.0515,5.1635,5.2123,5.2174,5.2657,5.2886,5.2836,5.2635,5.2534,5.2534,5.2664,5.2714,5.2764,5.2836,5.2886,5.2886,5.3036,5.3086,5.3136,5.3256,5.3305,5.3016,5.1743,5.0828,4.9771,4.7818,4.681,4.6177,4.5981,4.599,4.6115,4.6663,4.6745,4.6867,4.719,4.7109,4.6989,4.6878,4.6128,4.5852,4.6476,4.7416,4.8604,5.0068,5.0923,5.171,5.2603,5.4345,5.6013,5.7345,6.0498,6.2905,6.4349,6.6104,6.7087,6.7087,6.8102,6.8652,6.8652,6.9448,7.0024,7.0432,7.0481,7.0958,4.6411,4.7174,4.8753,5.1248,5.1027,5.0274,0.0,5.057,5.0227,5.0173,5.0173,5.0173,5.0173,5.0227,5.0254,5.0254,5.028,5.004,4.9126,4.8991,4.8583,4.7594,4.7341,4.7174,4.723,4.6263,4.5657,4.56,4.4683,4.4106,4.4082,4.4106,4.4165,4.4165,4.4165,4.4165,4.4165,4.5185,4.5657,4.5715,4.6749,4.7341,4.762,4.7816,4.8118,4.8445,4.8719,4.8882,4.9099,5.0223,5.0725,5.0882,5.2072,5.2506,5.2405,5.1924,5.177,5.1952,5.2208,5.2338,5.236,5.2686,5.2786,5.2786,5.2836,5.2836,5.2836,5.2886,5.2886,5.2628,5.1461,5.106,5.0324,4.7988,4.7216,4.673,4.5658,4.5315,4.52,4.52,4.52,4.5386,4.6074,4.5906,4.5271,4.4158,4.401,4.4246,4.4914,4.5371,4.5948,4.657,4.8103,4.983,5.1646,5.2088,5.2918,5.4476,5.7007,5.9095,6.0583,6.3851,6.5714,6.592,6.6785,6.7332,6.7524,6.7585,6.8089,6.9014,6.9253,6.9253,0.0,0.0,0.0,0.0,0.0,0.0,0.0,4.9827,4.9584,4.9043,4.8934,4.8934,4.8934,4.9368,4.9719,4.9719,5.0041,5.004,4.9126,4.8991,4.7813,4.4728,4.4341,4.4483,4.4742,4.459,4.4354,4.4034,4.4058,4.3963,4.3665,4.3963,4.4165,4.4165,4.4165,4.4165,4.4165,4.4378,4.4472,4.4472,4.4683,4.4801,4.4859,4.4976,4.4976,4.5093,4.5093,4.5682,4.6661,4.7842,4.8338,4.8447,4.9852,5.0117,4.9691,4.9665,5.0066,5.0755,5.1249,5.1377,5.1508,5.2027,5.2259,5.231,5.2541,5.2591,5.2563,5.2786,5.2886,5.2829,5.2571,5.169,5.0782,5.0027,4.8375,4.6792,4.6311,4.5417,4.4666,4.4666,4.4666,4.4622,4.4462,4.4346,4.4082,4.3457,4.3322,4.3592,4.4202,4.4378,4.4726,4.5342,4.5743,4.6102,4.6533,4.8423,5.0915,5.4136,5.5787,5.7851,6.0522,6.1123,6.2068,6.3436,6.4333,6.5392,6.6546,6.7291,6.7724,6.7985,6.8805,6.8761,0.0,0.0,0.0,0.0,0.0,0.0,0.0,0.0,0.0,0.0,0.0,4.8606,4.8606,0.0,4.9096,4.9096,4.8934,4.8498,4.7561,4.7056,4.5913,4.3641,4.3365,4.3425,4.3629,4.3629,4.3425,4.2898,4.3018,4.2898,4.2414,4.2837,4.3162,4.3162,4.3485,4.3282,4.2572,4.2572,4.2572,4.2572,4.2572,4.3018,4.3844,4.3844,4.3963,4.4165,4.4165,4.4472,4.501,4.5624,4.6206,4.6806,4.7341,4.7397,4.723,4.8034,4.8882,4.9692,4.9985,5.0356,5.078,5.1121,5.1201,5.1253,5.1357,5.1409,5.1461,5.1588,5.1817,5.1919,5.1691,5.1316,5.077,4.9703,4.8516,4.7243,4.5981,4.5185,4.453,4.3937,4.3843,4.3754,4.3574,4.3349,4.2986,4.2455,4.2363,4.2501,4.2841,4.3114,4.3519,4.4174,4.4437,4.477,4.5086,4.6218,4.8185,5.1152,5.432,5.6749,5.8261,5.9446,6.0482,6.1331,6.1906,6.2505,6.3071,6.4534,6.5392,6.5706,6.5558,6.5577,0.0,0.0,0.0,0.0,0.0,0.0,0.0,0.0,0.0,0.0,0.0,0.0,0.0,0.0,0.0,4.833,4.775,4.6938,4.6002,4.4952,4.3891,4.2987,4.2888,4.2944,4.2944,4.2823,4.2558,4.2048,4.1781,4.1391,4.092,4.1206,4.1368,4.1368,4.1904,4.1575,4.042,4.042,4.042,4.042,4.042,0.0,4.2754,4.2874,4.3258,4.3784,4.3903,4.3927,4.3927,4.3927,4.4507,4.531,4.4995,4.4879,4.5053,4.6523,4.7702,4.8664,4.8773,4.9423,5.0201,5.028,5.0333,5.0333,5.0333,5.0333,0.0,5.0333,5.0675,5.0857,5.0491,5.0675,5.0608,4.9101,4.8561,4.7879,4.5975,4.5403,4.494,4.4024,4.3642,4.3478,4.3359,4.3086,4.2603,4.1822,4.1817,4.1786,4.1407,4.1851,4.2455,4.295,4.3402,4.3849,4.4393,4.4611,4.5586,4.7639,5.204,5.4768,5.5325,5.7288,5.8617,5.9164,5.941,5.9629,5.9853,6.1472,6.2505,6.2963,6.192,6.203,0.0,0.0,0.0,0.0,0.0,0.0,0.0,0.0,0.0,0.0,0.0,0.0,0.0,0.0,0.0,0.0,4.7276,4.6938,4.6002,4.4389,4.2917,4.1886,4.2064,4.2292,4.2292,4.1743,4.1397,4.1313,4.038,3.9712,3.965,3.8873,0.0,0.0,0.0,3.8409,3.824,3.824,3.824,3.824,3.824,3.881,3.9962,4.0668,4.1491,4.2474,4.3004,4.3245,4.3245,4.3245,4.3365,4.3485,4.3402,4.3425,4.3522,4.4507,4.597,4.7475,4.7976,0.0,0.0,5.0201,5.0333,5.0333,5.0333,5.0333,5.0333,5.0333,5.0386,5.0439,5.0386,5.0386,5.0411,5.0169,4.9216,4.8315,4.807,4.7174,4.6438,4.6302,4.5403,4.4572,4.4063,4.4466,4.4211,4.2418,4.2683,4.2535,4.0792,4.1239,4.1737,4.1804,4.1851,0.0,4.1991,4.2868,4.3998,4.5389,4.7972,5.0515,5.2946,5.3101,5.4273,5.6721,5.68,5.7841,5.9853,6.0054,6.0243,6.0311,6.0159,6.0305,0.0,0.0,0.0,0.0,0.0,0.0,0.0,0.0,0.0,0.0,0.0,0.0,0.0,0.0,0.0,0.0,4.597,4.5534,4.5127,4.3474,4.1956,4.1139,4.0721,4.0314,3.994,3.9638,3.9241,3.8873,3.8305,3.7814,3.7429,3.7365,3.7365,3.7365,3.7729,3.7537,3.6784,3.6784,3.6784,3.6784,3.6784,3.7409,3.862,3.9503,4.0149,4.0668,4.162,4.201,4.2071,4.2437,4.2595,4.2595,0.0,0.0,0.0,0.0,4.4306,4.5053,4.4913,4.5977,4.7445,4.7698,4.8388,4.9097,4.9097,4.9206,4.9315,4.9315,4.9611,4.98,4.9423,4.9611,4.98,4.9423,4.8913,4.8351,4.763,4.7122,4.6588,4.5893,4.5385,0.0,4.5639,4.5385,4.484,4.3986,4.4161,4.4078,4.323,4.3427,4.3651,4.3651,4.3651,4.3651,4.3651,4.4018,0.0,0.0,0.0,4.9706,5.2127,5.2111,0.0,0.0,0.0,5.471,5.6158,5.7255,0.0,0.0,5.601,5.6898,0.0,0.0,0.0,0.0,0.0,0.0,0.0,0.0,0.0,0.0,0.0,0.0,0.0,0.0,0.0,0.0,4.4513,4.3859,4.3105,4.2472,4.1442,3.9791,3.9455,3.884,3.7433,3.7272,3.6936,3.6188,3.5786,3.5383,3.4935,3.5063,3.5147,3.5147,3.5619,3.5526,3.4802,3.4802,3.4897,3.5126,3.5126,3.5763,3.6958,3.79,3.862,3.921,4.0277,4.0942,4.1251,4.1743,4.1904,4.1858,4.1312,4.1085,4.1144,4.1668,4.1918,4.2049,4.1872,4.2996,4.4545,4.4545,4.5302,4.6216,4.6216,4.6626,4.7032,4.7318,4.7832,4.8291,4.8141,4.833,4.8467,4.7972,4.7861,4.7683,4.7093,4.6964,4.6782,4.6154,4.5839,4.589,4.6484,4.6124,4.5341,4.4373,4.4427,4.4429,4.4068,4.4198,4.4483,4.487,4.487,4.487,4.487,4.487,4.5728,4.7805,4.791,4.8788,5.0694,5.0774,5.0802,5.0906,5.1476,5.219,0.0,0.0,0.0,0.0,0.0,0.0,0.0,0.0,0.0,0.0,0.0,0.0,0.0,0.0,0.0,0.0,0.0,0.0,0.0,0.0,0.0,0.0,0.0,0.0,3.9606,4.1465,4.1594,3.752,3.8597,3.8374,3.5022,3.4921,3.4723,3.3799,3.2805,3.2191,3.2191,3.1237,3.0693,3.0693,3.0756,3.1069,3.1809,3.1809,3.2184,3.2934,3.2934,3.3503,3.455,3.52,3.6635,3.8557,3.921,4.0193,4.1189,4.1251,4.1273,4.1072,3.9147,3.8386,3.8386,3.8443,3.8443,3.8558,3.9422,4.0359,4.1168,4.1168,4.1223,4.1277,4.1277,4.2055,4.3134,4.4137,4.4843,4.5477,4.6627,4.6403,4.6002,4.5945,4.5945,4.6174,4.7056,4.7225,4.7505,4.8336,4.7757,4.6893,4.6067,4.6611,4.6005,4.2595,4.2736,0.0,4.1525,4.1977,4.2912,4.4198,4.4328,4.4328,4.4328,4.4328,4.4846,4.6093,4.617,4.6664,4.7891,4.7969,4.808,4.833,4.9692,5.0909,5.1959,0.0,0.0,0.0,0.0,0.0,0.0,0.0,0.0,0.0,0.0,0.0,0.0,0.0,0.0,0.0,0.0,0.0,0.0,0.0,0.0,0.0,0.0,0.0,0.0,3.9492,3.9142,3.7277,3.6979,3.5866,3.3174,3.2931,3.2564,3.1765,3.1288,3.104,3.104,3.0746,3.0496,3.0496,3.0496,3.0639,3.0906,3.0906,3.1031,3.1299,3.1299,3.1491,3.1857,3.3383,3.4445,3.5207,3.6733,3.762,3.8038,3.8417,3.8358,3.7995,3.7696,3.765,3.7686,3.8147,3.8032,3.7686,3.801,3.8023,3.807,3.8956,3.9908,4.0761,4.0761,4.112,4.1657,4.1999,4.2552,4.3136,4.3509,4.3718,4.3972,4.4697,4.4871,4.5102,4.6138,4.6346,4.6403,4.6743,4.4833,4.3236,4.3602,4.3919,4.3984,4.3365,4.353,4.3502,4.3108,4.3233,4.3919,4.5207,4.5374,4.5732,4.6526,4.6661,4.6817,4.7205,4.7231,4.7413,4.7776,4.7802,4.7857,4.7969,4.8606,4.9016,4.918,0.0,0.0,0.0,0.0,0.0,0.0,0.0,0.0,0.0,0.0,0.0,0.0,0.0,0.0,0.0,0.0,0.0,0.0,0.0,0.0,0.0,0.0,0.0,0.0,0.0,0.0,3.6028,3.5721,0.0,3.23,3.1703,3.1102,3.0273,2.9932,2.9621,2.9343,2.9592,2.9575,2.9372,2.9555,2.9801,3.0087,3.0087,3.0229,3.0496,3.0496,3.0496,3.0559,3.1827,3.2625,3.3033,3.4243,3.5219,3.5849,3.5236,3.4675,3.4097,3.4502,3.4696,3.479,3.5512,3.5704,3.5576,3.5882,3.5712,3.5498,3.6383,3.7311,3.8139,3.8139,3.8506,3.9017,3.9448,3.997,4.0524,4.115,4.138,4.1738,4.2609,4.2836,4.3062,4.4062,4.4153,4.3926,4.3609,4.1941,4.062,4.0991,4.1279,4.1515,4.1559,4.1859,4.2127,4.2365,4.2691,4.338,4.4703,4.482,4.517,4.6002,4.6542,4.6794,4.6794,4.7215,4.7466,4.7466,4.7466,4.7496,4.7608,4.7776,4.7831,0.0,0.0,0.0,0.0,0.0,0.0,0.0,0.0,0.0,0.0,0.0,0.0,0.0,0.0,0.0,0.0,0.0,0.0,0.0,0.0,0.0,0.0,0.0,0.0,0.0,0.0,0.0,3.39,3.4738,0.0,0.0,0.0,0.0,2.9416,2.8764,2.8067,2.7338,2.7873,2.7914,2.7312,2.7862,2.8566,2.9296,2.932,2.9659,3.039,3.039,3.039,3.039,3.0434,3.0975,3.1942,3.2003,3.308,3.4597,3.2019,3.0598,3.0088,3.0088,3.0088,3.0182,3.1102,3.1772,3.2402,3.3301,3.3553,3.3565,3.3522,3.3555,3.3555,3.3513,3.4179,0.0,0.0,3.6945,3.7663,3.9328,3.9429,3.9194,3.9802,3.9937,4.016,4.1131,4.0918,4.0256,3.9227,3.9215,3.9079,3.8264,0.0,3.8923,3.7455,3.7984,3.8768,3.938,4.0225,4.1272,4.2522,4.2678,4.2701,4.2761,4.3948,4.4591,4.4591,4.5788,4.6466,4.6466,4.6516,4.6687,4.6949,4.7,0.0,0.0,0.0,0.0,0.0,0.0,0.0,0.0,0.0,0.0,0.0,0.0,0.0,0.0,0.0,0.0,0.0,0.0,0.0,0.0,0.0,0.0,0.0,0.0,0.0,0.0,3.3776,3.3385,3.2931,3.2985,3.2488,0.0,0.0,0.0,0.0,0.0,0.0,2.81,2.8227,2.8269,2.8069,2.8144,2.8302,2.8492,2.849,2.8607,2.8785,2.8785,2.8785,2.8785,2.9514,2.9944,3.0234,3.0927,3.1501,3.1923,3.1711,3.1935,3.2434,3.2434,3.2434,3.2434,3.2653,3.2498,3.2257,3.3153,3.3117,3.2601,3.2504,3.2482,3.2355,3.1645,0.0,0.0,0.0,0.0,3.4432,3.5535,3.6017,3.6598,3.7969,3.834,3.869,4.0098,3.9984,3.885,3.6166,3.5365,3.5309,3.5788,3.6009,0.0,3.6282,3.6676,3.6842,3.6525,3.6958,3.7622,3.869,3.8726,3.9156,4.01,4.0477,4.0727,4.0727,4.1011,4.1316,4.1621,4.2018,4.2479,4.3031,0.0,0.0,0.0,0.0,0.0,0.0,0.0,0.0,0.0,0.0,0.0,0.0,0.0,0.0,0.0,0.0,0.0,0.0,0.0,0.0,0.0,0.0,0.0,0.0,0.0,0.0,0.0,3.2705,3.2113,3.2009,3.1364,3.0875,0.0,0.0,0.0,0.0,0.0,0.0,0.0,0.0,0.0,2.6988,2.7489,2.7745,2.7745,2.8405,2.8715,2.8715,2.9033,2.9213,2.9213,2.9715,2.9994,2.9994,3.0526,3.0155,2.9347,2.9998,3.0245,3.0209,0.0,0.0,0.0,0.0,3.0905,3.0599,3.1481,3.129,3.0647,3.0675,0.0,0.0,0.0,0.0,0.0,0.0,0.0,3.2237,3.3218,3.3886,3.4611,3.6012,3.6489,3.6805,3.77,3.6859,3.5409,3.3569,3.3073,3.3098,3.365,3.3964,0.0,0.0,0.0,3.5225,3.4817,3.5308,3.5912,3.6415,3.6474,3.6744,3.7497,3.8048,3.839,3.839,3.8979,3.9373,3.9564,4.025,4.078,0.0,0.0,0.0,0.0,0.0,0.0,0.0,0.0,0.0,0.0,0.0,0.0,0.0,0.0,0.0,0.0,0.0,0.0,0.0,0.0,0.0,0.0,0.0,0.0,0.0,0.0,0.0,0.0,0.0,3.1875,3.1075,0.0,0.0,0.0,0.0,0.0,0.0,0.0,0.0,0.0,0.0,0.0,0.0,0.0,2.7166,2.7265,2.8397,2.893,2.893,2.9617,2.9928,2.9928,2.9928,2.999,3.007,3.0193,0.0,2.7408,2.7966,0.0,0.0,0.0,0.0,0.0,0.0,0.0,0.0,0.0,0.0,0.0,0.0,0.0,0.0,0.0,0.0,0.0,0.0,0.0,0.0,0.0,0.0,3.3079,3.3987,3.4489,3.4775,3.4617,3.2962,3.1581,3.1581,3.1732,3.1921,0.0,0.0,0.0,0.0,0.0,0.0,3.3751,3.4453,3.4948,3.4889,3.4889,3.4889,3.4889,3.5937,3.6586,3.6586,3.7612,3.83,3.8492,3.9294,0.0,0.0,0.0,0.0,0.0,0.0,0.0,0.0,0.0,0.0,0.0,0.0,0.0,0.0,0.0,0.0,0.0,0.0,0.0,0.0,0.0,0.0,0.0,0.0,0.0,0.0,0.0,0.0,0.0,0.0,0.0,0.0,0.0,0.0,0.0,0.0,0.0,0.0,0.0,0.0,0.0,0.0,0.0,0.0,0.0,0.0,0.0,0.0,0.0,0.0,2.6943,2.7002,2.7002,2.7002,2.724,2.7807,2.8354,2.8388,2.8024,2.8157,0.0,0.0,0.0,0.0,0.0,0.0,0.0,0.0,0.0,0.0,0.0,0.0,0.0,0.0,0.0,0.0,0.0,0.0,0.0,0.0,0.0,0.0,3.1843,3.2117,3.2496,3.253,3.1654,0.0,0.0,0.0,0.0,0.0,0.0,0.0,0.0,0.0,0.0,0.0,3.2328,3.2542,3.2755,3.2516,3.2495,3.2495,3.2495,3.272,3.2811,3.2811,3.2715,3.3246,0.0,0.0,0.0,0.0,0.0,0.0,0.0,0.0,0.0,0.0,0.0,0.0,0.0,0.0,0.0,0.0,0.0,0.0,0.0,0.0,0.0,0.0,0.0,0.0,0.0,0.0,0.0,0.0,0.0,0.0,0.0,0.0,0.0,0.0,0.0,0.0,0.0,0.0,0.0,0.0,0.0,0.0,0.0,0.0,0.0,0.0,0.0,0.0,0.0,0.0,0.0,0.0,0.0,0.0,0.0,0.0,0.0,0.0,2.6975,2.6451,0.0,0.0,0.0,0.0,0.0,0.0,0.0,0.0,0.0,0.0,0.0,0.0,0.0,0.0,0.0,0.0,0.0,0.0,0.0,0.0,0.0,0.0,0.0,0.0,0.0,0.0,0.0,0.0,0.0,0.0,0.0,0.0,0.0,0.0,0.0,0.0,0.0,0.0,0.0,0.0,3.1007,3.0987,3.0987,3.0895,3.0332,2.9861,2.9671,2.9671,2.9615,2.9482,2.9293,0.0,0.0,0.0,0.0,0.0,0.0,0.0,0.0,0.0,0.0,0.0,0.0,0.0,0.0,0.0,0.0,0.0,0.0,0.0,0.0,0.0,0.0,0.0,0.0,0.0,0.0,0.0,0.0,0.0,0.0,0.0,0.0,0.0,0.0,0.0,0.0,0.0,0.0,0.0,0.0,0.0,0.0,0.0,0.0,0.0,0.0,0.0,0.0,0.0,0.0,0.0,0.0,0.0,0.0,0.0,0.0,0.0,0.0,0.0,2.586,2.4859,0.0,0.0,0.0,0.0,0.0,0.0,0.0,0.0,0.0,0.0,0.0,0.0,0.0,0.0,0.0,0.0,0.0,0.0,0.0,0.0,0.0,0.0,0.0,0.0,0.0,0.0,0.0,0.0,0.0,0.0,0.0,0.0,0.0,0.0,0.0,0.0,0.0,0.0,0.0,0.0,2.9709,2.9558,2.9558,2.9558,2.8759,2.8068,2.7744,2.7628,2.7495,2.7338,2.7147,0.0,0.0,0.0,0.0,0.0,0.0,0.0,0.0,0.0,0.0,0.0,0.0,0.0,0.0,0.0,0.0,0.0,0.0,0.0,0.0,0.0,0.0,0.0,0.0,0.0,0.0,0.0,0.0,0.0,0.0,0.0,0.0,0.0,0.0,0.0,0.0,0.0,0.0,0.0,0.0,0.0,0.0,0.0,0.0,0.0,0.0,0.0,0.0,0.0,0.0,0.0,0.0,0.0,0.0,0.0,0.0,0.0,0.0,0.0,0.0,0.0,0.0,0.0,0.0,0.0,0.0,0.0,0.0,0.0,0.0,0.0,0.0,0.0,0.0,0.0,0.0,0.0,0.0,0.0,0.0,0.0,0.0,0.0,0.0,0.0,0.0,0.0,0.0,0.0,0.0,0.0,0.0,0.0,0.0,0.0,0.0,0.0,0.0,0.0,0.0,0.0,2.8439,2.8356,2.8356,2.8356,2.8241,2.8184,2.8126,2.7819,2.7553,2.757,0.0,0.0,0.0,0.0,0.0,0.0,0.0,0.0,0.0,0.0,0.0,0.0,0.0,0.0,0.0,0.0,0.0,0.0,0.0,0.0,0.0,0.0,0.0,0.0,0.0,0.0,0.0,0.0,0.0,0.0,0.0,0.0,0.0,0.0,0.0,0.0,0.0,0.0,0.0,0.0,0.0,0.0,0.0,0.0,0.0,0.0,0.0,0.0,0.0,0.0,0.0,0.0,0.0,0.0,0.0,0.0,0.0,0.0,0.0,0.0,0.0,0.0,0.0,0.0,0.0,0.0,0.0,0.0,0.0,0.0,0.0,0.0,0.0,0.0,0.0,0.0,0.0,0.0,0.0,0.0,0.0,0.0,0.0,0.0,0.0,0.0,0.0,0.0,0.0,0.0,0.0,0.0,0.0,0.0,0.0,0.0,0.0,0.0,0.0,0.0,0.0,0.0,2.7153,2.7024,2.6965,2.679,2.6086,2.5497,2.5066,2.4888,2.4694,2.459,0.0,0.0,0.0,0.0,0.0,0.0,0.0,0.0,0.0,0.0,0.0,0.0,0.0,0.0,0.0,0.0,0.0,0.0,0.0,0.0,0.0,0.0,0.0,0.0,0.0,0.0,0.0,0.0,0.0,0.0,0.0,0.0,0.0,0.0,0.0,0.0,0.0,0.0,0.0,0.0,0.0,0.0,0.0,0.0,0.0,0.0,0.0,0.0,0.0,0.0,0.0,0.0,0.0,0.0,0.0,0.0,0.0,0.0,0.0,0.0,0.0,0.0,0.0,0.0,0.0,0.0,0.0,0.0,0.0,0.0,0.0,0.0,0.0,0.0,0.0,0.0,0.0,0.0,0.0,0.0,0.0,0.0,0.0,0.0,0.0,0.0,0.0,0.0,0.0,0.0,0.0,0.0,0.0,0.0,0.0,0.0,0.0,0.0,0.0,0.0,0.0,0.0,2.5541,2.5485,2.5497,2.5319,2.4383,2.3619,2.3137,2.3001,2.2835,2.2592,0.0,0.0,0.0,0.0,0.0,0.0,0.0,0.0,0.0,0.0,0.0,0.0,0.0,0.0,0.0,0.0,0.0,0.0,0.0,0.0,0.0,0.0,0.0,0.0,0.0,0.0,0.0,0.0,0.0,0.0,0.0,0.0,0.0,0.0,0.0,0.0,0.0,0.0,0.0,0.0,0.0,0.0,0.0,0.0,0.0,0.0,0.0,0.0,0.0,0.0,0.0,0.0,0.0,0.0,0.0,0.0,0.0,0.0,0.0,0.0,0.0,0.0,0.0,0.0,0.0,0.0,0.0,0.0,0.0,0.0,0.0,0.0,0.0,0.0,0.0,0.0,0.0,0.0,0.0,0.0,0.0,0.0,0.0,0.0,0.0,0.0,0.0,0.0,0.0,0.0,0.0,0.0,0.0,0.0,0.0,0.0,0.0,0.0,0.0,0.0,0.0,0.0,2.3499,2.3672,2.3919,2.3919,2.3679,2.3513,2.3513,2.3137,2.2835,0.0,0.0,0.0,0.0,0.0,0.0,0.0,0.0,0.0,0.0,0.0,0.0,0.0,0.0,0.0,0.0,0.0,0.0,0.0,0.0,0.0,0.0,0.0,0.0,0.0,0.0,0.0,0.0,0.0,0.0,0.0,0.0,0.0,0.0,0.0,0.0,0.0,0.0,0.0,0.0,0.0,0.0,0.0,0.0,0.0,0.0,0.0,0.0,0.0,0.0,0.0,0.0,0.0,0.0,0.0,0.0,0.0,0.0,0.0,0.0,0.0,0.0,0.0,0.0,0.0,0.0,0.0,0.0,0.0,0.0,0.0,0.0,0.0,0.0,0.0,0.0,0.0,0.0,0.0,0.0,0.0,0.0,0.0,0.0,0.0,0.0,0.0,0.0,0.0,0.0,0.0,0.0,0.0,0.0,0.0,0.0,0.0,0.0,0.0,0.0,0.0,0.0,0.0,2.3385,2.3672,2.3859,2.3679,2.3318,2.3076,2.2895,2.2713,2.2467,2.1918,0.0,0.0,0.0,0.0,0.0,0.0,0.0,0.0,0.0,0.0,0.0,0.0,0.0,0.0,0.0,0.0,0.0,0.0,0.0,0.0,0.0,0.0,0.0,0.0,0.0,0.0,0.0,0.0,0.0,0.0,0.0,0.0,0.0,0.0,0.0,0.0,0.0,0.0,0.0,0.0,0.0,0.0,0.0,0.0,0.0,0.0,0.0,0.0,0.0,0.0,0.0,0.0,0.0,0.0,0.0,0.0,0.0,0.0,0.0,0.0,0.0,0.0,0.0,0.0,0.0,0.0,0.0,0.0,0.0,0.0,0.0,0.0,0.0,0.0,0.0,0.0,0.0,0.0,0.0,0.0,0.0,0.0,0.0,0.0,0.0,0.0,0.0,0.0,0.0,0.0,0.0,0.0,0.0,0.0,0.0,0.0,0.0,0.0,0.0,0.0,0.0,0.0,0.0,2.3175,2.3335,2.3469,2.2578,2.191,2.1741,2.1741,2.1285,2.013,0.0,0.0,0.0,0.0,0.0,0.0,0.0,0.0,0.0,0.0,0.0,0.0,0.0,0.0,0.0,0.0,0.0,0.0,0.0,0.0,0.0,0.0,0.0,0.0,0.0,0.0,0.0,0.0,0.0,0.0,0.0,0.0,0.0,0.0,0.0,0.0,0.0,0.0,0.0,0.0,0.0,0.0,0.0,0.0,0.0,0.0,0.0,0.0,0.0,0.0,0.0,0.0,0.0,0.0,0.0,0.0,0.0,0.0,0.0,0.0,0.0,0.0,0.0,0.0,0.0,0.0,0.0,0.0,0.0,0.0,0.0,0.0,0.0,0.0,0.0,0.0,0.0,0.0,0.0,0.0,0.0,0.0,0.0,0.0,0.0,0.0,0.0,0.0,0.0,0.0,0.0,0.0,0.0,0.0,0.0,0.0,0.0,0.0,0.0,0.0,0.0,0.0,0.0,2.2338,2.2609,2.3245,2.1578,2.0367,2.0255,2.0255,1.9439,1.7538,1.9281,0.0,0.0,0.0,0.0,0.0,0.0,0.0,0.0,0.0,0.0,0.0,0.0,0.0,0.0,0.0,0.0,0.0,0.0,0.0,0.0,0.0,0.0,0.0,0.0,0.0,0.0,0.0,0.0,0.0,0.0,0.0,0.0,0.0,0.0,0.0,0.0,0.0,0.0,0.0,0.0,0.0,0.0,0.0,0.0,0.0,0.0,0.0,0.0,0.0,0.0,0.0,0.0,0.0,0.0,0.0,0.0,0.0,0.0,0.0,0.0,0.0,0.0,0.0,0.0,0.0,0.0,0.0,0.0,0.0,0.0,0.0,0.0,0.0,0.0,0.0,0.0,0.0,0.0,0.0,0.0,0.0,0.0,0.0,0.0,0.0,0.0,0.0,0.0,0.0,0.0,0.0,0.0,0.0,0.0,0.0,0.0,0.0,0.0,0.0,0.0,0.0,0.0,2.229,2.2026,2.1247,2.0728,1.9882,1.8587,1.8503,1.7915,1.6657,1.7919,0.0,0.0,0.0,0.0,0.0,0.0,0.0,0.0,0.0,0.0,0.0,0.0,0.0,0.0,0.0,0.0,0.0,0.0,0.0,0.0,0.0,0.0,0.0,0.0,0.0,0.0,0.0,0.0,0.0,0.0,0.0,0.0,0.0,0.0,0.0,0.0,0.0,0.0,0.0,0.0,0.0,0.0,0.0,0.0,0.0,0.0,0.0,0.0,0.0,0.0,0.0,0.0,0.0,0.0,0.0,0.0,0.0,0.0,0.0,0.0,0.0,0.0,0.0,0.0,0.0,0.0,0.0,0.0,0.0,0.0,0.0,0.0,0.0,0.0,0.0,0.0,0.0,0.0,0.0,0.0,0.0,0.0,0.0,0.0,0.0,0.0,0.0,0.0,0.0,0.0,0.0,0.0,0.0,0.0,0.0,0.0,0.0,0.0,0.0,0.0,0.0,0.0,2.2162,2.1714,2.0294,1.9458,1.8391,1.6861,1.6721,1.6106,1.4703,1.5592,0.0,0.0,0.0,0.0,0.0,0.0,0.0,0.0,0.0,0.0,0.0,0.0,0.0,0.0,0.0,0.0,0.0,0.0,0.0,0.0,0.0,0.0,0.0,0.0,0.0,0.0,0.0,0.0,0.0,0.0,0.0,0.0,0.0,0.0,0.0,0.0,0.0,0.0,0.0,0.0,0.0,0.0,0.0,0.0,0.0,0.0,0.0,0.0,0.0,0.0,0.0,0.0,0.0,0.0,0.0,0.0,0.0,0.0,0.0,0.0,0.0,0.0,0.0,0.0,0.0,0.0,0.0,0.0,0.0,0.0,0.0,0.0,0.0,0.0,0.0,0.0,0.0,0.0,0.0,0.0,0.0,0.0,0.0,0.0,0.0,0.0,0.0,0.0,0.0,0.0,0.0,0.0,0.0,0.0,0.0,0.0,0.0,0.0,0.0,0.0,0.0,0.0,0.0,2.1538,1.9953,1.8206,1.6531,1.5085,1.496,1.4264,1.2629,0.0,0.0,0.0,0.0,0.0,0.0,0.0,0.0,0.0,0.0,0.0,0.0,0.0,0.0,0.0,0.0,0.0,0.0,0.0,0.0,0.0,0.0,0.0,0.0,0.0,0.0,0.0,0.0,0.0,0.0,0.0,0.0,0.0,0.0,0.0,0.0,0.0,0.0,0.0,0.0,0.0,0.0,0.0,0.0,0.0,0.0,0.0,0.0,0.0,0.0,0.0,0.0,0.0,0.0,0.0,0.0,0.0,0.0,0.0,0.0,0.0,0.0,0.0,0.0,0.0,0.0,0.0,0.0,0.0,0.0,0.0,0.0,0.0,0.0,0.0,0.0,0.0,0.0,0.0,0.0,0.0,0.0,0.0,0.0,0.0,0.0,0.0,0.0,0.0,0.0,0.0,0.0,0.0,0.0,0.0,0.0,0.0,0.0,0.0,0.0,0.0,0.0,0.0,0.0,2.1397,1.9818,1.7645,1.543,1.3251,1.3065,1.2785,1.2171,0.0,0.0,0.0,0.0,0.0,0.0,0.0,0.0,0.0,0.0,0.0,0.0,0.0,0.0]}]]]